GFSMA_sfc_temp_000.txt.gz
Temp
88 91 90 90 90 95 96 91 91 90 88 90 90 90 91 90 89 91 92 82 80 80 81 83 83 82 82 82 81 82 81 81 81 81 81 81 80 81 81 81 81 80 80
87 91 91 91 91 94 94 92 89 88 88 90 89 89 89 91 89 88 92 92 81 80 81 82 83 82 82 83 82 82 82 81 81 81 81 80 80 80 80 80 80 80 80
87 87 91 89 91 90 87 89 88 90 90 90 88 90 90 89 90 88 90 93 93 81 81 82 82 82 82 82 82 82 81 81 81 80 80 80 80 80 80 80 80 80 80
88 88 89 90 91 89 90 90 90 89 89 89 88 89 89 89 88 88 91 91 93 94 85 83 82 82 82 83 82 81 81 80 81 80 80 80 80 80 80 80 80 79 79
89 89 90 90 88 88 84 88 89 87 87 88 89 90 89 89 90 94 90 91 90 92 94 82 81 80 83 84 83 82 81 80 79 80 80 80 80 80 79 79 79 79 79
89 87 88 88 88 84 88 89 83 88 85 86 87 88 89 91 91 91 91 93 89 91 92 89 91 90 82 81 82 82 81 81 80 80 79 79 79 79 79 79 79 79 79
89 88 89 87 87 86 87 85 85 84 86 88 84 88 87 88 88 91 92 90 88 90 89 89 90 90 88 81 79 79 80 81 81 80 80 79 79 79 79 78 78 78 78
88 88 87 87 86 90 84 83 82 84 87 87 82 83 82 83 87 90 90 88 86 90 89 87 86 85 87 87 82 77 76 77 78 79 79 79 79 79 78 78 77 77 78
88 87 87 88 86 85 88 84 83 81 83 85 81 81 80 81 83 87 85 88 85 87 87 87 85 85 84 86 85 82 75 74 76 77 78 78 78 78 78 78 78 77 77
89 88 87 86 84 88 85 84 86 82 81 83 86 85 81 79 79 81 86 86 89 87 83 87 88 86 85 88 81 74 74 74 74 75 76 76 76 77 78 78 78 77 77
88 89 87 85 84 86 83 83 82 80 85 83 84 85 82 85 82 79 77 83 87 87 87 88 87 89 87 87 88 78 74 73 73 73 73 74 75 75 76 77 78 78 78
89 87 86 85 85 85 83 84 82 81 81 81 84 82 83 82 83 81 79 79 79 84 87 86 86 87 88 88 83 74 75 73 71 71 71 72 72 73 74 75 76 78 79
90 86 84 83 86 84 84 83 81 82 81 81 80 84 85 84 85 82 80 79 79 83 84 86 87 86 86 86 86 75 77 73 71 70 69 70 70 71 72 73 74 75 76
90 89 85 85 85 85 84 83 84 84 83 82 80 80 84 85 85 84 81 78 76 80 83 80 85 87 86 85 82 74 82 73 72 69 68 68 69 69 70 71 71 72 72
91 87 85 85 85 85 83 82 84 82 82 82 82 81 82 86 87 86 84 81 78 73 76 82 82 85 85 86 83 83 82 76 71 69 68 67 67 68 69 69 69 69 70
86 85 85 85 84 83 83 81 83 83 81 83 84 82 81 85 85 85 85 84 83 78 74 82 83 84 84 83 82 81 81 74 73 70 68 67 67 67 68 68 68 68 69
84 83 83 83 83 82 82 80 80 82 81 80 81 80 79 80 83 85 86 84 82 81 76 79 83 83 80 79 81 81 82 81 83 70 69 67 66 66 67 67 67 67 67
82 80 81 79 81 83 82 80 80 83 81 80 80 80 80 84 81 80 83 79 80 79 77 71 77 79 79 80 79 78 80 84 83 77 69 67 66 66 65 65 65 65 64
76 76 76 76 77 79 81 81 81 81 81 81 81 81 81 81 79 81 80 81 82 81 80 78 75 80 81 81 79 76 79 80 82 76 70 69 67 66 65 63 63 62 60
77 72 74 74 78 81 81 81 82 81 81 81 81 80 80 80 79 79 79 78 78 78 78 77 75 78 76 76 77 73 75 83 81 85 78 74 72 72 68 65 64 64 60
75 72 74 74 77 79 79 80 81 81 79 79 81 81 82 79 74 74 80 79 77 77 75 75 74 77 73 72 72 78 77 79 75 81 81 81 82 82 81 75 75 71 65
77 75 75 75 76 79 72 69 76 81 80 79 79 79 78 74 73 67 67 66 69 72 71 74 73 73 71 70 75 76 74 72 70 80 76 76 79 78 80 81 74 68 66
76 79 78 77 75 77 67 67 68 80 80 78 78 76 75 74 70 77 69 65 65 64 64 70 69 70 68 72 72 66 69 69 70 75 72 70 78 76 80 82 70 65 63
76 78 77 76 77 79 65 63 66 78 77 78 77 75 71 69 69 74 76 75 76 75 75 74 72 73 73 72 69 69 67 66 67 71 72 69 77 76 78 79 69 65 64
78 79 78 77 76 78 60 60 65 80 78 76 70 71 68 68 65 63 71 72 73 74 70 63 61 60 59 58 61 68 68 65 64 67 73 72 74 73 73 70 70 66 63
77 78 77 78 74 76 60 58 64 82 74 70 67 67 62 65 59 58 69 71 70 72 74 72 72 69 64 70 60 67 65 61 64 68 73 70 69 63 54 63 68 68 67

GFSMA_sfc_temp_003.txt.gz
Temp
88 89 91 93 92 90 87 91 91 91 90 89 91 90 91 91 92 93 93 82 81 81 81 83 82 82 82 82 81 81 81 81 81 81 81 81 81 81 80 81 81 81 79
81 92 87 86 84 88 87 92 88 88 86 88 91 90 90 91 90 89 93 90 82 81 81 82 83 82 81 82 82 82 82 81 81 81 81 81 81 80 80 81 81 81 80
91 88 88 90 92 89 88 86 83 83 88 93 90 91 91 91 91 89 91 94 91 81 82 83 83 82 82 82 82 82 82 80 81 81 80 80 80 80 80 80 80 80 80
89 89 90 90 86 91 87 89 78 83 90 90 89 90 90 90 89 89 91 91 92 95 84 83 83 82 81 82 81 81 81 81 81 80 80 80 80 80 80 80 80 79 79
90 90 90 88 88 88 88 89 86 86 88 88 90 91 91 90 89 93 89 90 90 91 94 82 83 83 83 83 82 82 80 79 79 80 80 80 80 80 80 79 79 79 79
90 90 91 89 89 83 89 77 83 87 86 86 88 89 89 90 90 90 90 92 89 91 92 89 88 87 83 82 81 81 81 81 80 80 79 79 79 79 79 79 79 79 79
90 88 89 87 88 87 83 86 86 85 87 88 84 87 87 88 88 90 91 90 89 91 89 89 89 88 82 81 79 79 79 80 80 79 79 78 78 79 78 78 78 78 78
89 88 87 90 89 88 86 85 83 83 87 87 82 83 81 82 84 85 89 89 87 90 88 88 87 85 83 83 81 77 76 77 78 79 78 78 78 78 78 77 77 77 78
91 89 88 87 87 87 89 85 84 81 82 85 82 81 79 73 79 82 85 87 86 86 87 86 86 85 84 86 81 78 75 75 76 77 77 76 76 77 77 77 77 77 77
90 90 88 89 87 87 85 85 86 82 81 83 87 85 82 80 78 77 79 85 86 87 84 86 88 86 85 87 78 75 74 74 74 75 75 76 76 76 76 77 77 77 77
91 92 90 88 85 87 85 83 83 80 84 83 85 85 82 84 81 80 77 80 86 86 86 86 86 87 87 85 86 76 74 73 73 73 73 74 74 75 76 76 77 77 77
91 89 90 87 85 86 85 84 83 82 81 81 83 83 83 82 82 81 79 79 79 83 86 87 85 86 87 87 83 77 75 74 73 72 72 72 72 74 74 75 76 76 77
92 87 88 85 86 84 85 84 82 83 82 82 81 83 79 76 81 83 80 79 74 79 84 86 86 86 86 85 85 79 76 74 73 71 70 71 71 72 73 73 74 74 75
92 90 87 87 85 86 85 84 84 84 84 83 81 80 83 83 81 84 75 74 68 74 80 78 82 84 86 85 83 77 82 74 73 71 70 69 69 70 71 71 72 72 72
92 89 88 85 85 85 85 83 83 83 82 82 82 81 82 85 87 87 85 76 71 69 72 81 82 85 86 85 84 84 83 78 73 70 69 68 68 69 69 70 70 70 70
88 88 86 85 85 85 84 82 83 83 81 83 84 83 82 84 85 85 85 84 83 78 74 81 82 84 85 85 84 84 83 76 71 70 69 68 68 68 69 69 69 69 69
86 86 84 84 84 84 83 81 81 83 81 81 81 81 81 81 83 85 86 85 82 81 76 79 82 83 78 80 81 81 83 83 83 72 70 68 67 67 68 68 68 68 68
86 84 83 82 83 83 78 81 81 83 81 80 81 80 80 84 79 79 83 78 79 80 77 72 76 78 78 80 81 79 81 84 84 79 69 67 66 66 66 66 66 65 65
83 84 83 81 81 82 82 82 82 81 81 82 82 81 81 81 79 81 79 80 80 78 79 78 76 77 79 77 78 80 77 76 78 77 71 69 67 66 65 65 64 63 61
82 82 82 81 81 82 82 82 82 81 81 82 82 82 82 79 77 76 77 76 78 75 78 78 77 76 78 74 79 78 75 75 76 83 79 75 73 72 67 65 65 64 61
81 81 81 81 82 83 85 82 82 81 81 80 81 82 81 79 73 71 76 70 73 74 78 77 76 76 75 77 72 77 75 77 73 81 80 81 82 82 81 75 74 69 65
82 82 79 80 79 84 73 71 78 80 80 80 76 79 75 76 76 67 67 66 65 65 68 70 72 73 70 72 72 70 70 72 70 79 76 76 79 78 80 81 75 69 67
81 81 78 79 79 80 67 67 69 80 76 79 77 76 79 82 74 78 69 64 64 64 64 70 67 69 68 71 71 69 69 69 69 74 72 70 75 75 79 83 69 65 65
80 81 79 81 80 81 65 64 67 74 75 79 80 79 78 77 76 69 73 69 69 75 72 72 71 72 73 73 70 69 67 67 70 74 74 67 73 74 78 81 69 65 66
81 78 78 76 78 78 62 61 67 75 73 77 79 80 76 73 67 63 66 66 70 72 73 66 64 62 61 60 63 69 68 69 67 69 72 71 74 73 75 75 76 69 63
80 81 79 76 75 78 59 59 65 72 72 80 78 76 64 68 60 60 70 71 70 73 75 76 73 68 63 67 60 66 70 63 67 66 73 69 70 70 66 70 72 70 62

GFSMA_sfc_temp_006.txt.gz
Temp
80 76 84 87 86 86 83 83 83 83 83 85 85 86 85 84 85 84 81 82 82 82 82 81 81 77 79 82 81 81 81 81 81 80 80 81 81 80 80 80 80 80 79
84 81 83 82 82 84 85 83 83 82 81 83 84 85 85 85 85 84 84 80 82 82 82 81 82 80 82 82 82 81 81 81 81 81 80 80 80 80 80 80 80 80 80
84 86 83 84 82 84 85 82 82 79 79 84 84 85 85 84 84 83 83 84 82 81 82 82 82 82 82 82 82 82 81 80 80 80 80 80 80 80 79 80 80 80 80
88 86 82 77 75 83 82 78 78 80 77 81 80 82 82 84 84 83 84 83 82 85 81 82 82 81 82 82 81 81 81 81 80 80 80 79 80 80 80 79 79 79 79
86 84 83 78 81 83 83 78 75 78 78 80 82 82 82 81 83 87 83 83 83 83 83 81 81 81 82 83 82 82 81 80 79 79 79 79 79 79 79 79 79 79 79
87 83 83 83 85 83 79 79 78 80 78 78 85 82 81 81 81 81 83 85 83 84 83 81 79 80 80 81 81 81 81 81 80 80 79 79 79 79 78 78 78 78 78
86 85 84 83 82 82 77 79 81 78 78 79 77 76 77 81 81 80 81 79 81 82 82 80 80 76 77 79 78 78 78 78 80 80 79 79 78 78 78 78 78 78 78
85 82 82 80 80 79 79 79 79 76 77 78 74 73 68 74 77 81 79 79 79 80 80 82 79 78 78 76 76 77 76 77 78 79 79 78 77 78 77 77 77 77 77
85 81 82 83 81 83 79 79 78 78 74 77 79 74 69 67 71 78 78 77 77 75 76 78 79 78 77 76 76 75 75 75 76 77 77 76 76 76 77 76 77 76 76
86 86 84 83 82 80 79 78 80 77 77 73 76 78 77 74 68 67 75 76 76 77 75 75 77 78 78 75 77 75 74 74 74 75 76 76 76 76 76 76 76 76 76
84 84 83 83 81 80 79 79 77 76 77 75 74 76 75 74 73 70 67 70 74 75 75 75 76 76 77 77 73 73 75 74 73 73 73 74 74 75 76 76 76 76 77
85 85 85 82 81 80 78 79 79 78 77 76 75 75 74 73 71 72 69 70 71 74 76 75 75 75 76 76 81 76 75 74 73 73 73 73 73 74 75 75 76 76 76
84 82 82 81 80 80 79 79 77 78 77 76 75 75 75 74 74 72 71 68 68 71 72 75 75 75 78 75 75 78 76 75 73 72 71 71 72 73 73 74 74 75 75
85 82 82 82 82 79 79 78 78 77 77 76 76 75 75 76 75 74 72 69 66 68 70 73 76 76 75 75 76 78 74 72 73 71 70 70 70 71 71 72 73 73 73
87 83 83 82 81 80 79 78 76 76 78 77 76 75 74 75 76 76 75 73 68 64 65 71 72 75 75 76 76 76 74 76 72 71 69 68 69 69 70 70 70 70 70
85 82 82 81 81 78 79 77 77 78 75 76 76 75 74 75 76 76 75 74 72 69 65 71 72 74 76 77 78 75 76 76 72 70 69 68 68 69 69 69 69 69 69
83 82 81 80 79 79 79 76 76 76 75 75 75 75 75 77 75 74 75 74 73 72 68 69 72 73 72 72 74 74 75 73 74 70 69 69 68 68 69 68 68 68 68
83 81 81 80 80 79 78 76 76 77 76 74 75 74 75 78 73 73 73 72 72 72 69 67 69 70 70 72 72 71 75 79 74 77 71 68 67 66 66 66 66 66 65
82 82 81 79 78 78 77 76 76 76 76 76 75 74 74 74 73 72 72 71 70 70 68 66 66 70 70 70 69 70 70 72 75 75 71 69 67 66 65 64 64 63 61
82 82 80 79 78 78 77 77 77 76 76 77 77 76 76 74 74 73 72 71 70 68 66 63 63 64 69 70 70 67 66 69 69 77 76 73 71 68 67 65 65 64 61
83 82 80 79 78 79 81 77 77 76 75 76 75 77 76 76 73 71 69 69 70 67 65 64 62 64 68 67 64 67 65 67 68 71 70 69 71 69 71 69 68 68 64
81 80 78 77 75 80 74 72 76 77 75 75 72 75 76 72 71 67 66 67 69 67 64 61 61 61 65 65 65 64 65 64 63 69 65 67 69 68 70 72 71 69 67
80 78 77 76 74 76 67 68 71 77 75 74 72 73 74 76 71 74 68 66 65 65 66 66 63 64 63 65 65 64 63 62 62 66 65 63 67 66 69 74 68 67 65
78 78 76 74 75 76 66 65 69 72 73 74 73 73 70 72 73 73 71 69 67 68 66 65 64 66 66 67 66 64 62 61 63 65 65 60 64 65 69 69 67 66 64
76 76 75 75 74 75 63 62 65 69 71 71 73 73 72 73 69 62 68 67 67 68 71 64 65 63 63 62 62 63 61 60 61 63 65 64 64 62 65 66 69 66 64
77 79 77 75 71 75 61 59 64 74 72 71 71 72 64 69 63 60 66 67 66 67 68 69 68 64 61 64 61 62 64 60 61 60 64 60 62 61 58 65 65 67 66

GFSMA_sfc_temp_009.txt.gz
Temp
72 72 73 72 73 74 74 73 76 80 77 82 82 83 80 79 79 76 74 81 81 81 82 82 80 79 81 82 81 81 81 81 81 81 80 80 80 80 80 80 80 80 79
75 74 74 78 80 79 79 80 76 77 78 78 78 81 81 82 78 79 76 76 81 80 81 82 80 80 80 81 81 81 81 81 81 81 80 78 80 79 80 80 80 80 79
78 77 75 74 76 77 78 77 78 75 76 77 75 78 80 78 79 78 78 77 78 81 81 82 81 80 80 81 82 81 81 81 81 80 80 79 79 79 79 79 79 79 79
79 78 75 74 73 78 78 74 73 74 73 72 72 77 76 78 79 82 81 77 76 80 80 82 81 81 81 82 81 81 81 80 79 80 79 79 79 79 79 79 79 78 79
79 76 75 74 76 74 74 73 72 75 72 70 74 74 74 75 77 83 78 81 78 79 78 80 81 81 82 82 82 81 81 80 79 79 79 79 79 79 79 78 78 78 78
79 76 76 74 77 74 72 73 74 72 70 70 77 75 73 75 75 74 75 80 78 81 80 79 75 77 80 82 81 81 81 81 80 79 79 79 79 79 78 78 78 78 78
78 77 75 75 76 75 73 77 72 69 70 71 69 71 73 76 78 73 73 73 75 76 76 75 74 73 76 79 78 79 79 79 79 79 79 78 78 78 77 78 77 78 78
78 77 75 74 75 75 73 72 71 67 68 70 67 64 63 70 74 76 72 73 71 73 75 75 74 74 73 71 73 77 77 77 78 78 78 77 76 77 77 77 77 77 77
79 77 76 75 74 73 72 71 71 68 66 69 71 67 62 60 68 72 72 71 71 70 70 73 74 74 72 71 72 74 75 75 76 77 77 77 76 76 76 76 76 76 76
78 77 77 76 75 73 71 70 72 68 68 66 69 71 68 67 62 61 68 72 70 72 70 70 71 73 72 69 73 74 75 74 75 75 76 76 76 76 76 76 76 76 76
78 79 77 76 74 72 71 71 70 69 69 67 66 67 67 65 65 63 60 64 70 70 69 71 71 70 72 69 67 71 74 74 74 74 74 74 74 75 76 76 76 76 76
77 77 78 76 74 72 71 71 70 70 69 68 67 66 66 65 63 63 61 61 64 68 72 70 70 71 70 70 74 75 75 74 73 73 73 73 74 74 75 76 76 76 76
74 75 77 76 74 72 72 71 70 70 69 68 67 67 67 66 66 65 63 60 61 64 68 72 71 70 73 71 71 74 75 73 72 71 71 72 72 73 74 75 75 76 76
79 77 78 77 74 75 72 71 69 69 70 69 69 68 67 67 67 66 67 65 59 60 63 67 70 71 71 70 72 75 70 72 71 70 69 69 70 71 72 73 73 74 74
79 78 77 76 75 73 72 70 69 69 69 69 68 68 68 68 68 68 70 67 63 57 59 64 67 69 70 71 72 71 70 72 70 70 69 68 68 69 70 71 71 71 71
78 78 76 77 74 74 72 70 69 69 68 68 69 68 68 67 68 69 71 67 67 67 60 64 66 68 71 74 74 73 72 73 72 69 68 68 68 69 69 69 69 69 70
76 78 78 75 75 74 73 70 69 69 69 68 69 68 68 68 67 70 67 67 69 67 61 64 66 68 68 69 71 70 72 71 71 70 69 68 67 67 68 69 68 68 68
78 78 77 77 75 75 73 72 70 72 68 68 68 67 67 72 67 67 69 68 66 64 62 61 64 65 66 68 68 67 71 75 71 74 70 68 66 66 66 66 66 66 65
78 77 78 76 75 74 73 73 72 69 69 69 69 69 69 68 66 66 68 68 67 66 63 61 61 64 66 66 68 66 65 67 71 73 69 68 67 66 65 64 64 63 61
77 77 77 76 75 75 74 73 71 68 68 69 69 72 71 69 68 67 68 67 66 65 63 62 60 61 62 67 67 63 62 64 65 72 71 70 69 68 67 64 63 63 60
77 77 74 74 73 74 76 71 72 68 68 69 70 72 72 72 71 69 66 67 67 65 63 61 59 58 61 62 63 62 61 62 63 64 65 65 65 64 65 66 67 67 64
76 76 75 74 71 76 71 70 72 71 69 68 70 71 72 72 71 68 67 68 68 64 60 59 58 58 58 62 60 59 59 58 56 64 59 63 64 63 65 65 67 66 65
76 75 74 74 71 70 67 68 70 71 70 70 71 69 71 71 68 68 66 65 65 65 66 63 61 58 59 60 60 58 58 57 56 63 56 58 59 58 64 66 65 65 63
76 74 74 72 70 69 65 65 68 70 69 70 70 69 67 69 69 66 66 64 65 64 63 63 61 64 61 62 61 61 59 56 56 57 58 53 57 56 60 60 63 64 63
74 75 72 70 68 69 62 61 64 66 68 68 69 68 67 68 66 62 64 64 63 62 66 62 62 62 61 60 60 57 56 52 52 53 57 54 57 54 56 59 60 64 61
72 72 71 69 67 70 61 61 63 68 67 66 65 69 65 66 62 60 62 61 60 61 60 60 60 60 60 61 61 58 62 57 51 51 57 54 53 53 55 55 57 62 62

GFSMA_sfc_temp_012.txt.gz
Temp
71 71 72 73 72 73 72 73 75 77 78 79 78 79 78 78 75 74 73 81 81 81 82 82 81 80 82 81 81 81 81 80 80 80 80 80 80 80 80 80 80 79 79
72 71 71 73 73 73 76 76 75 77 74 75 75 77 79 78 76 74 74 75 81 81 82 82 81 81 81 82 81 81 81 81 80 80 80 80 79 79 79 79 79 79 79
74 73 72 72 73 73 74 74 74 73 73 74 73 75 77 76 78 75 74 74 76 81 81 81 81 80 81 81 82 81 81 80 80 80 80 79 79 79 79 79 79 79 79
76 74 73 73 73 74 74 73 71 72 75 71 69 72 73 75 78 80 77 75 74 78 80 82 81 80 80 81 81 81 81 80 79 79 79 79 79 79 79 79 79 78 78
77 74 73 73 73 74 72 72 71 72 73 68 71 71 71 72 75 78 75 78 76 75 75 80 80 80 82 83 82 81 80 80 79 79 79 79 79 79 78 78 78 78 78
77 74 74 74 73 72 71 70 72 70 68 68 75 73 70 71 71 71 73 76 75 79 78 78 73 76 80 81 80 81 81 80 79 79 78 78 78 78 78 78 78 78 77
76 75 73 73 73 71 71 72 70 68 67 68 67 67 68 72 70 70 70 70 72 73 73 73 72 73 76 79 78 79 79 80 80 80 79 78 78 78 77 77 77 77 77
76 75 73 73 73 72 72 71 69 65 66 66 65 62 62 69 73 70 68 71 70 71 72 73 72 72 71 70 73 77 77 77 78 78 77 77 77 76 76 76 76 77 77
77 75 74 73 72 72 70 70 68 67 65 66 67 65 60 59 65 70 67 68 69 67 68 70 71 71 70 69 73 75 76 75 77 77 77 76 76 76 76 76 75 75 76
77 76 75 74 72 71 70 70 70 66 66 65 66 69 65 65 61 61 67 66 67 70 67 67 69 70 69 68 72 73 75 74 76 76 76 76 75 76 76 76 76 75 75
77 76 75 74 72 70 70 69 67 66 66 65 65 65 64 63 62 61 59 63 66 66 66 67 68 68 69 67 67 70 74 74 74 75 75 75 75 75 76 76 76 76 76
75 76 76 74 72 70 69 68 68 67 66 67 65 64 64 64 62 61 58 59 62 66 68 67 67 68 68 67 72 73 75 73 73 73 73 74 75 75 76 76 76 76 76
72 75 75 73 71 70 69 68 67 67 66 66 66 65 64 64 64 62 61 59 60 62 65 68 68 67 69 67 69 74 75 73 72 71 71 72 73 74 75 76 76 76 77
79 77 76 74 71 71 70 68 67 67 67 66 66 65 65 65 64 64 63 61 58 58 60 64 66 68 69 67 69 75 69 71 71 69 69 70 70 71 73 73 74 74 75
79 76 76 74 73 72 71 68 67 67 67 66 65 65 65 65 65 65 65 65 62 56 57 62 63 66 67 70 71 69 69 70 70 69 68 67 68 69 70 71 71 71 71
77 76 75 75 74 72 71 68 66 67 66 66 66 65 64 65 65 65 65 64 64 64 59 61 64 65 67 71 72 71 69 71 70 69 69 67 67 68 69 69 69 70 70
77 76 75 75 74 72 71 69 67 67 66 66 66 66 66 65 65 64 64 64 63 63 62 63 63 65 66 66 68 67 69 69 68 69 68 67 66 67 68 68 68 68 68
77 77 76 75 74 74 72 70 68 70 66 66 66 65 65 69 67 64 67 64 64 62 60 61 61 63 65 66 66 65 69 72 68 71 68 67 66 66 65 65 65 65 65
76 76 76 75 75 73 73 72 70 68 68 67 67 66 66 68 66 64 64 63 63 65 63 60 61 62 63 63 64 64 65 65 68 71 69 67 66 65 64 63 62 61 59
75 75 76 76 75 74 72 72 70 69 68 68 67 67 67 68 67 66 65 65 65 63 64 62 62 61 60 61 61 61 60 61 62 69 69 68 67 67 66 65 64 63 60
77 76 75 75 75 73 73 71 71 69 69 66 66 67 67 70 70 69 66 64 63 64 63 62 61 59 58 58 58 59 58 58 59 60 60 60 60 60 62 63 67 67 63
75 74 74 73 71 73 70 68 71 69 68 68 66 66 68 71 70 69 67 66 67 65 63 60 58 57 58 57 58 58 57 56 54 59 57 58 58 58 59 60 64 64 62
73 73 72 72 71 72 66 66 67 71 67 68 66 66 68 70 67 68 65 64 64 65 66 62 59 58 58 58 58 57 56 56 55 58 55 52 55 55 58 62 63 63 62
74 74 72 73 71 71 64 64 66 69 68 67 67 67 68 67 66 65 64 64 64 63 64 63 62 63 60 61 59 60 58 56 55 56 55 51 54 54 57 58 62 62 62
75 74 73 71 71 70 61 61 64 68 69 66 66 67 68 67 63 61 65 62 62 62 63 61 61 60 59 59 60 57 55 52 51 52 54 53 53 52 53 55 59 61 60
75 73 71 71 68 69 59 60 63 67 66 65 66 67 63 64 60 59 63 62 61 61 60 59 59 59 59 58 60 57 55 52 50 50 54 53 50 49 49 51 54 57 55

GFSMA_sfc_temp_015.txt.gz
Temp
71 70 70 71 71 72 71 72 74 75 77 78 76 76 74 77 73 73 72 81 80 81 81 81 82 82 81 81 81 80 81 80 80 80 80 80 80 80 79 79 79 79 79
71 70 70 71 72 72 74 75 72 76 74 74 77 75 76 77 73 73 72 72 80 81 81 80 81 81 81 81 81 81 81 80 80 80 80 79 79 79 79 79 79 79 79
72 72 70 71 72 72 73 73 75 71 73 76 73 73 75 74 76 73 73 73 75 81 81 81 81 81 81 81 81 81 81 80 80 80 79 79 79 79 79 79 79 79 79
73 72 71 71 72 72 72 71 71 70 74 72 69 69 71 72 75 77 74 73 73 76 79 81 80 80 80 81 81 81 80 79 79 79 80 79 79 79 79 79 79 78 78
75 72 72 72 72 72 71 71 69 70 68 67 70 69 69 70 72 76 74 76 73 73 74 79 80 80 81 81 82 81 81 80 79 79 79 79 79 79 79 78 78 78 78
76 73 73 72 72 71 70 69 70 68 67 66 72 70 68 69 69 70 71 74 73 77 77 76 72 74 79 82 81 80 80 79 78 79 79 78 78 78 78 78 78 78 77
75 73 72 72 71 71 70 70 69 67 65 65 65 65 67 69 68 67 68 69 71 71 72 71 71 72 74 79 79 79 79 78 80 79 78 77 78 78 78 77 77 77 77
74 74 72 72 71 71 70 69 68 64 64 65 63 61 60 66 70 67 66 69 68 69 71 71 70 70 70 70 73 78 77 78 78 78 78 77 77 77 76 76 76 77 77
75 74 73 72 71 71 69 68 68 66 64 65 65 63 59 58 61 68 66 66 66 66 67 68 70 70 69 68 72 74 76 76 77 77 77 76 76 76 76 75 75 75 74
76 75 74 72 71 70 69 69 69 65 64 64 65 66 63 63 60 58 63 64 64 67 65 67 68 69 69 67 72 73 75 75 76 77 77 76 76 76 76 76 75 75 75
75 76 74 72 71 69 69 69 66 65 65 64 64 63 62 61 61 60 58 62 64 64 65 65 67 67 68 68 67 69 74 74 74 75 76 76 76 76 76 76 76 76 76
73 74 74 73 71 69 69 68 67 65 65 65 64 63 63 62 60 60 57 58 60 64 64 65 65 66 66 66 71 73 74 74 73 74 74 74 76 76 77 77 77 77 76
71 72 73 72 71 69 69 68 65 65 65 65 64 64 63 63 62 60 60 57 59 60 62 64 65 65 67 65 67 74 74 72 72 71 71 72 73 74 76 76 77 77 77
74 75 75 74 71 70 69 67 65 65 65 65 64 63 63 63 62 62 62 60 57 56 58 63 64 64 65 65 67 73 69 71 71 69 69 69 71 72 72 73 74 74 75
76 74 75 74 72 71 69 67 65 65 65 64 64 64 63 63 63 63 62 62 62 56 57 61 62 65 65 65 68 67 67 69 70 69 68 67 68 69 70 71 71 71 71
75 74 74 74 72 70 69 67 65 65 65 64 64 63 62 62 63 63 62 62 61 61 60 63 63 63 65 68 69 68 68 71 69 68 67 67 67 68 69 69 70 70 70
75 75 75 74 72 71 70 68 67 65 65 65 65 64 63 63 63 63 62 61 60 61 60 65 61 63 64 65 67 66 67 66 66 67 67 67 66 67 67 68 68 68 68
74 75 74 74 72 72 71 69 68 69 66 64 64 64 64 67 63 63 63 63 62 60 59 59 62 64 64 67 64 64 67 70 67 70 67 66 65 64 64 64 64 64 64
74 75 74 73 72 71 71 71 70 69 68 67 65 64 64 64 62 62 62 62 61 62 60 60 63 61 62 62 65 62 62 63 66 70 68 68 67 65 64 63 62 60 58
74 74 74 74 73 72 71 70 69 68 69 67 67 67 65 65 63 63 63 62 62 61 61 60 61 60 60 63 60 59 59 59 61 67 68 66 65 66 65 64 64 64 61
75 75 74 74 74 73 72 70 69 68 67 67 66 66 65 67 68 67 64 63 62 61 60 60 61 60 60 59 57 58 57 57 58 59 59 59 59 59 60 62 64 66 63
75 73 73 73 71 73 69 68 70 68 67 67 65 65 66 69 68 67 67 66 65 62 61 59 59 59 58 57 56 57 56 55 54 58 57 58 57 58 58 58 63 63 62
74 71 72 72 71 71 67 66 67 68 67 67 68 66 66 68 67 67 65 64 64 63 64 61 60 60 59 60 58 56 55 55 54 57 56 53 54 56 58 60 62 62 61
74 71 72 72 71 71 63 63 66 68 68 68 68 67 65 65 65 67 65 64 63 63 63 62 61 64 62 60 59 58 57 56 54 55 55 51 53 53 56 57 60 61 61
73 72 72 71 71 71 61 61 64 68 67 67 68 65 65 65 63 61 64 62 62 63 62 60 60 59 58 58 59 59 57 54 51 52 52 52 52 51 51 54 57 60 59
74 73 73 72 70 71 59 59 63 68 67 65 63 64 63 66 59 58 64 62 60 62 61 60 60 58 57 57 59 57 55 53 49 49 53 51 49 48 48 49 50 54 53

GFSMA_sfc_temp_018.txt.gz
Temp
73 72 72 73 74 74 75 75 76 77 77 78 78 78 78 78 78 78 77 80 81 81 83 82 81 82 81 81 81 81 80 80 80 80 80 80 80 79 79 79 79 79 79
73 73 72 73 73 73 75 77 76 76 76 76 77 78 78 79 77 77 78 78 80 81 81 81 81 80 81 81 81 81 80 81 80 80 80 80 78 79 79 79 79 79 79
73 74 72 72 73 74 75 76 76 75 75 76 75 76 77 77 77 77 77 78 79 81 81 81 80 81 81 81 80 81 81 80 80 80 80 79 79 79 79 79 79 79 79
74 73 72 73 74 74 75 74 74 74 74 73 72 73 74 76 76 78 78 78 77 81 81 81 81 80 81 81 81 80 79 80 79 79 79 79 79 79 79 79 79 79 78
76 73 73 74 75 74 74 74 73 73 72 72 74 72 73 73 76 79 77 78 78 78 80 80 80 80 81 81 80 80 81 80 79 79 79 79 79 79 79 78 78 78 78
76 74 74 74 74 73 73 72 73 71 71 70 74 72 72 73 73 74 76 78 78 78 79 79 78 80 80 81 80 79 80 80 79 79 79 79 78 78 78 78 78 77 77
76 75 74 74 74 73 73 73 72 72 70 70 70 71 71 72 71 71 74 75 76 76 77 76 77 78 79 79 78 79 80 79 79 80 79 78 78 78 78 76 77 77 77
76 76 74 73 74 73 72 72 71 69 69 69 68 66 66 71 73 72 72 73 73 75 76 76 76 75 76 76 79 78 78 78 79 79 78 77 77 77 76 75 75 76 77
76 75 74 74 73 73 73 72 70 70 68 69 69 68 63 64 67 70 71 71 71 72 73 74 75 75 74 75 75 76 76 76 77 78 77 76 76 76 76 75 75 75 74
76 76 75 74 74 73 72 72 71 69 69 69 68 69 68 68 66 65 69 71 71 72 72 73 74 74 74 75 75 75 76 75 76 77 77 77 76 76 76 76 76 75 75
76 76 75 74 74 73 73 71 69 68 69 69 69 68 67 67 66 66 65 68 69 71 71 71 73 74 74 74 74 73 75 74 75 76 76 76 76 76 77 76 76 76 76
75 75 75 75 74 73 72 71 70 69 68 68 69 69 69 68 67 66 65 65 67 70 71 71 71 72 73 74 74 74 74 74 74 74 74 75 76 77 77 78 77 77 77
73 74 74 74 73 72 72 71 69 69 69 68 68 69 69 69 68 67 67 65 66 67 69 71 72 72 73 72 74 74 74 73 72 71 71 72 73 74 76 76 77 77 78
76 75 75 75 74 73 72 71 70 69 69 69 68 68 69 68 68 68 67 66 65 65 66 71 71 72 72 72 72 72 76 71 71 69 69 69 70 71 72 73 74 74 75
76 75 75 74 74 73 72 70 70 69 69 69 68 68 69 69 69 68 68 68 67 64 65 70 70 71 72 72 73 74 74 71 69 69 68 67 68 69 70 71 71 71 72
76 75 75 75 74 73 72 70 69 69 68 68 69 67 67 68 68 68 69 68 67 68 67 69 70 71 72 74 73 74 74 71 70 68 67 67 67 68 69 69 69 70 70
75 75 75 74 73 72 71 70 69 69 69 68 68 67 67 67 68 68 68 68 67 67 67 69 69 70 71 72 73 73 74 73 74 67 67 66 66 66 67 67 67 67 67
75 75 75 74 74 73 72 71 70 71 69 68 68 67 68 69 67 67 68 67 67 66 66 66 68 69 69 71 72 71 73 75 74 72 67 65 65 65 64 64 63 63 63
74 75 75 74 73 73 72 72 71 71 70 70 69 68 68 68 67 68 66 66 67 67 65 65 69 67 69 68 70 70 69 70 72 70 68 67 66 65 64 63 63 62 59
74 74 74 74 74 74 73 72 71 70 71 70 69 69 68 68 67 67 67 66 66 65 65 65 65 66 65 67 68 68 68 69 70 73 71 68 67 67 65 63 63 63 61
75 75 74 74 74 74 74 71 71 70 70 69 68 69 68 69 68 68 67 66 66 65 65 64 64 66 66 66 66 68 66 67 67 68 70 71 71 71 71 66 67 65 62
75 74 74 74 73 75 70 67 71 70 70 69 68 67 69 68 68 66 66 67 67 66 65 64 64 65 65 64 65 64 63 61 64 68 67 69 68 69 70 70 65 63 62
74 73 74 74 73 74 66 66 68 71 70 69 69 68 67 69 67 69 65 65 65 65 66 67 65 65 64 63 63 62 60 63 63 67 65 64 67 66 70 71 62 62 61
74 73 74 73 73 73 64 63 66 72 70 69 69 69 69 69 68 69 69 68 67 67 66 67 67 69 68 67 66 66 64 62 62 64 63 60 66 65 67 68 61 61 60
74 73 73 72 72 72 62 61 65 71 69 68 69 69 69 69 63 62 68 67 67 66 62 61 61 60 59 59 62 62 60 59 60 63 62 63 64 63 64 65 67 60 58
74 75 73 73 71 73 59 59 65 70 67 67 68 68 63 67 59 59 68 67 64 64 66 64 64 62 62 61 59 64 64 62 60 60 63 61 62 61 61 62 63 66 66

GFSMA_sfc_temp_024.txt.gz
Temp
90 93 92 95 94 97 97 89 92 92 89 92 94 94 95 94 95 99 95 83 82 83 83 83 82 82 82 81 81 81 81 81 81 81 81 80 80 80 80 80 80 79 79
92 95 93 95 96 96 93 92 89 89 88 94 92 94 95 95 92 94 97 90 83 82 83 82 82 82 82 82 81 81 81 81 81 80 80 80 80 80 80 80 80 80 80
89 87 94 93 96 90 90 92 91 92 92 94 88 92 96 93 94 92 98 96 89 82 82 82 82 82 81 81 82 81 81 80 81 80 80 80 80 80 80 80 80 80 80
89 89 90 91 95 91 93 93 92 90 94 95 92 93 94 94 93 93 94 96 97 94 83 82 82 81 82 82 82 81 81 80 80 80 80 80 80 80 80 79 79 79 79
89 89 88 91 90 92 92 91 91 89 91 93 94 93 94 93 93 95 92 94 92 96 95 82 82 81 82 82 82 82 81 81 80 80 80 80 80 79 80 79 79 79 79
90 89 92 90 91 93 89 86 88 90 90 91 94 91 92 92 93 94 94 95 92 93 94 91 89 84 82 82 82 82 82 81 81 80 80 80 79 79 79 78 78 78 78
90 89 92 90 90 89 87 86 87 85 89 90 88 89 89 90 91 93 95 94 92 94 93 92 91 88 88 80 80 80 81 81 81 81 80 80 79 79 78 77 77 78 77
90 90 87 87 89 88 85 85 83 90 90 90 88 89 83 86 90 94 94 93 91 94 92 91 90 89 92 89 84 79 79 80 80 79 78 78 78 78 78 77 76 76 76
91 89 89 89 87 89 84 86 86 85 89 88 86 87 83 83 86 89 87 92 89 92 91 90 90 88 89 89 85 82 78 78 79 79 79 78 78 77 77 77 76 76 76
91 91 90 89 87 91 89 86 89 87 85 86 87 88 85 84 84 81 88 88 89 90 90 92 91 90 89 92 82 78 78 77 79 79 79 79 78 78 78 78 77 77 77
90 92 90 89 88 87 89 87 86 84 88 88 88 87 84 87 85 84 79 84 87 90 91 90 93 93 90 91 90 80 78 78 78 78 78 78 78 78 78 78 78 77 77
92 90 91 89 89 89 88 88 86 85 85 86 89 88 88 86 86 85 84 83 85 87 90 91 90 91 92 91 88 78 77 76 76 76 76 77 77 78 78 78 79 79 79
93 91 88 88 89 88 89 88 85 86 85 85 83 89 90 89 90 89 87 87 85 88 87 91 91 91 92 91 91 81 77 75 74 74 74 74 75 76 77 77 78 78 78
94 92 90 89 89 89 89 88 88 88 87 85 83 84 90 90 90 89 87 86 82 84 86 83 91 92 91 91 87 79 86 74 73 72 71 71 72 73 74 74 75 75 76
95 92 91 88 89 89 88 87 89 86 87 85 85 83 86 91 90 91 90 89 85 81 82 85 86 89 91 91 88 88 88 75 72 71 69 69 69 70 71 71 72 72 72
91 92 89 89 89 89 88 86 88 87 85 87 88 84 83 90 89 90 89 89 88 85 82 89 88 89 90 91 84 87 89 78 72 70 69 68 68 69 69 70 70 70 70
90 89 89 88 89 88 88 86 87 89 84 84 85 85 82 85 89 89 89 89 87 87 82 87 89 88 84 84 87 87 88 87 88 71 69 68 67 67 68 69 69 69 68
90 89 89 88 88 89 88 86 85 88 85 84 84 83 83 85 81 84 87 84 85 85 84 78 85 86 82 85 84 83 86 91 90 74 71 69 67 67 67 67 67 66 65
88 90 89 88 88 88 88 87 87 87 87 85 85 84 83 83 80 85 83 86 86 84 83 83 83 86 87 87 83 82 83 84 87 76 71 68 67 67 66 65 65 64 62
88 88 89 89 89 89 89 89 87 87 87 87 86 86 85 83 81 80 82 81 83 83 83 82 84 85 85 85 84 84 83 85 84 89 81 75 74 70 67 65 65 64 62
88 88 88 89 89 90 92 89 88 87 87 87 87 87 86 82 76 78 84 81 81 80 84 83 83 84 84 84 81 85 84 85 84 85 84 85 85 85 81 67 74 67 65
87 87 87 88 88 92 80 74 83 89 87 86 85 86 86 76 75 70 71 72 79 79 79 83 84 82 80 82 83 83 83 81 78 83 80 82 86 84 86 87 68 66 64
87 86 87 87 87 88 73 71 73 89 88 87 86 86 86 88 77 81 69 68 69 69 71 80 78 80 80 80 80 77 77 78 78 82 78 78 84 83 85 87 67 66 63
85 85 86 86 87 88 70 67 71 85 88 88 87 86 85 85 82 80 80 77 77 79 77 82 81 82 80 82 79 78 76 76 79 81 79 73 82 80 83 83 68 65 63
86 86 86 85 85 86 67 64 69 85 86 87 87 87 86 84 74 67 80 78 77 76 70 67 66 65 66 67 70 81 78 77 77 78 79 78 78 78 79 80 81 67 64
86 88 87 87 81 86 68 62 69 88 85 88 86 85 69 81 65 62 77 80 76 77 77 79 76 69 66 69 62 75 81 77 78 77 78 76 77 77 73 80 80 80 79

GFSMA_sfc_temp_027.txt.gz
Temp
91 88 91 86 89 89 79 92 90 91 90 85 82 94 96 95 95 91 90 82 82 84 84 83 82 82 82 81 81 81 81 81 81 81 81 81 81 80 80 80 80 80 80
91 84 87 85 84 85 81 92 91 82 91 90 92 94 94 95 93 93 91 87 82 83 83 83 83 82 82 82 81 81 81 81 81 80 81 81 81 80 80 80 80 80 80
91 89 84 88 83 92 90 89 91 74 87 95 91 94 88 94 94 94 89 88 88 82 83 83 82 82 82 82 82 81 81 81 81 81 80 80 80 80 80 80 80 80 80
91 90 92 94 82 93 93 84 88 93 91 93 92 93 94 94 93 94 95 93 83 90 83 82 82 82 82 82 82 82 81 81 80 80 80 80 80 80 80 80 80 79 79
91 91 92 87 91 83 93 92 89 91 91 92 94 94 94 94 91 95 93 94 92 83 86 82 82 82 82 83 82 81 82 81 80 80 80 79 79 79 79 79 79 79 79
91 90 88 91 91 79 89 92 86 91 90 91 95 92 92 93 95 93 93 96 94 92 88 88 86 84 82 83 82 82 82 82 81 81 80 80 79 79 79 78 78 78 79
91 90 90 89 91 88 89 87 89 87 90 91 89 90 89 91 93 94 96 95 93 95 94 92 85 87 84 81 81 81 82 82 82 81 79 79 79 79 79 78 77 78 78
91 89 87 91 91 87 87 87 86 81 90 91 86 88 79 86 91 94 93 93 92 95 92 91 90 85 82 86 83 79 80 80 80 80 79 78 78 78 78 77 77 77 77
92 91 89 90 91 90 84 87 87 86 79 89 88 86 82 73 84 88 88 92 90 92 91 90 90 89 89 88 84 81 78 79 80 80 79 78 78 78 78 77 77 77 77
92 93 90 90 88 91 81 86 89 88 86 86 88 90 87 84 76 76 86 90 90 90 90 92 90 90 89 90 81 79 78 78 79 80 80 79 79 79 79 78 77 77 77
91 93 92 89 88 89 89 86 87 86 89 88 89 88 86 88 87 81 78 79 88 91 91 90 93 91 90 91 88 79 78 78 78 79 79 79 79 79 79 79 78 78 78
92 91 93 90 89 90 90 88 87 87 85 88 90 90 88 86 86 85 84 83 85 85 91 92 90 91 92 91 85 78 78 77 78 78 79 79 79 79 79 79 79 79 79
95 91 90 88 90 89 90 90 87 88 86 86 85 89 91 91 91 90 88 87 86 89 88 92 92 92 93 92 89 82 77 76 75 75 75 76 76 77 77 78 78 79 79
96 95 90 91 90 90 89 90 90 89 88 87 85 84 90 91 92 90 88 86 83 85 87 85 92 93 92 91 87 79 84 74 74 73 72 73 73 73 74 75 75 76 76
97 96 93 90 91 90 90 89 90 88 89 87 86 85 86 92 93 92 91 90 85 81 78 84 87 91 92 92 88 89 88 73 73 72 71 70 70 71 72 72 72 72 72
93 95 92 92 90 90 90 88 90 89 87 89 89 86 85 90 92 91 91 90 89 86 82 90 88 90 90 92 84 88 88 77 73 72 70 69 69 70 70 70 70 70 70
92 91 91 90 90 89 89 88 88 90 87 86 87 87 84 85 90 92 91 90 89 88 83 88 91 88 86 85 86 87 88 87 86 71 71 70 68 68 69 70 70 69 69
91 91 91 90 90 90 89 88 87 90 89 86 86 86 85 86 83 85 90 85 86 88 85 81 86 86 83 84 84 84 86 91 89 73 71 70 69 68 68 68 68 68 67
90 92 90 89 89 89 89 89 88 88 89 88 87 86 85 84 82 85 84 87 87 86 85 83 84 87 87 86 82 83 83 83 87 74 71 69 68 68 67 66 66 65 63
89 89 90 90 89 90 90 90 88 88 88 89 88 88 86 85 83 82 84 82 84 85 83 84 84 85 86 86 86 82 77 82 80 84 81 77 75 69 68 66 66 65 63
89 89 89 90 90 91 93 89 89 88 87 87 88 88 88 85 78 80 84 82 81 82 85 83 82 84 84 81 79 81 77 77 73 83 83 81 79 78 75 68 73 68 66
88 88 88 88 89 93 81 75 84 89 88 87 86 88 88 79 76 72 72 73 80 80 79 84 84 82 81 84 85 84 82 78 71 76 82 79 81 78 84 82 70 70 67
88 87 88 88 88 89 74 72 73 90 89 88 87 87 88 91 80 83 71 71 69 71 74 80 78 81 82 82 82 79 78 78 77 78 77 76 83 82 85 76 66 68 64
87 87 87 88 87 89 73 68 72 87 88 88 88 87 87 87 84 83 82 79 80 80 79 81 81 82 83 84 81 79 78 77 78 80 77 74 81 80 83 84 67 65 65
87 87 88 87 86 87 69 66 69 87 87 86 89 88 88 87 77 70 82 80 79 79 71 67 68 69 68 70 77 79 77 75 75 77 77 78 80 79 81 81 79 66 65
88 90 88 88 82 87 70 64 68 90 86 88 86 87 72 84 67 65 80 80 78 77 78 76 71 68 68 70 64 78 81 75 73 75 78 78 79 78 74 81 81 78 78

GFSMA_sfc_temp_030.txt.gz
Temp
81 85 85 81 78 74 73 76 82 81 82 81 84 86 87 87 86 84 81 81 82 82 83 83 82 82 82 81 81 81 81 81 81 81 81 81 81 80 80 80 80 80 80
82 86 85 82 82 79 74 77 76 77 78 81 83 87 86 87 85 84 83 80 81 82 83 83 83 82 82 82 81 81 81 81 81 81 81 81 81 80 80 80 80 80 80
87 83 83 79 81 82 85 83 79 77 76 84 85 86 85 87 87 85 84 82 81 82 82 83 82 82 82 82 82 81 81 81 81 81 80 80 80 80 80 80 80 80 80
89 86 82 78 76 81 82 82 82 77 79 81 82 82 82 84 86 86 83 85 82 83 82 82 82 81 82 82 82 81 81 81 80 80 80 80 80 80 80 79 79 79 79
88 86 85 83 82 76 79 84 83 82 81 83 84 84 83 82 83 88 86 83 82 82 81 81 81 81 82 83 82 82 81 81 80 80 80 79 79 79 79 79 79 79 79
88 87 86 85 84 77 83 83 82 83 82 81 90 85 82 83 83 83 85 87 82 81 82 79 78 80 81 83 83 82 82 81 81 80 79 79 79 79 79 78 78 78 78
87 86 83 76 82 79 82 84 83 83 81 83 79 79 79 83 85 84 83 84 84 83 83 80 79 79 79 81 81 81 82 82 82 81 80 80 79 79 78 78 77 77 77
85 85 84 82 83 81 82 83 82 78 80 81 77 75 72 76 81 85 82 83 83 83 83 82 81 78 77 77 77 79 80 80 80 79 79 78 78 78 77 77 77 77 77
86 84 84 84 83 81 80 82 82 81 77 80 82 77 71 70 75 79 81 81 82 79 80 81 81 79 79 75 76 77 78 78 79 79 79 78 77 77 77 77 77 77 77
87 87 85 84 84 81 80 80 84 82 80 77 79 82 80 77 71 71 77 78 81 83 80 79 80 81 79 77 79 78 77 77 78 79 79 79 78 78 78 77 77 77 77
86 88 85 85 84 84 81 80 83 82 82 80 78 78 79 78 79 74 71 74 78 79 80 80 81 79 81 77 74 75 77 76 77 78 79 79 79 79 79 79 78 78 78
86 86 87 84 84 83 82 81 82 83 81 81 81 80 77 76 76 75 73 74 74 77 79 79 80 79 81 79 82 78 76 76 76 77 77 78 79 79 79 79 79 79 79
87 84 85 83 83 83 83 83 82 82 82 81 81 79 80 80 81 79 76 74 74 76 77 80 79 79 83 79 78 77 76 75 75 74 75 76 76 77 77 78 78 79 79
87 86 85 85 85 84 84 84 83 83 82 81 81 79 78 80 82 80 78 75 72 74 76 77 79 79 79 79 77 77 75 73 73 72 72 73 73 74 74 75 75 75 76
91 88 85 85 84 85 84 83 84 82 83 81 80 80 79 79 81 81 80 78 75 70 71 76 76 80 79 77 78 78 76 73 72 72 71 70 71 71 72 72 72 72 72
86 89 85 85 85 85 85 83 83 83 81 83 82 79 78 78 79 81 80 79 78 75 71 75 76 78 80 83 78 79 80 74 72 72 70 70 69 70 70 70 71 71 71
87 86 86 85 84 84 84 83 82 83 82 81 82 80 78 78 79 79 80 79 77 77 72 75 78 78 77 76 77 79 76 75 74 71 70 70 69 69 69 70 70 70 70
86 86 86 85 85 84 84 83 82 84 82 81 81 81 79 81 77 78 79 77 77 78 75 73 76 75 75 77 77 76 79 85 79 74 70 70 69 68 68 68 68 68 67
86 87 87 85 84 85 83 84 83 83 83 83 82 80 80 79 77 78 77 78 77 78 77 74 73 76 76 77 75 76 76 76 80 73 69 69 68 68 67 66 66 65 63
84 86 86 85 86 85 85 85 84 83 83 84 83 82 81 80 78 77 77 75 77 76 75 74 73 73 75 75 76 74 72 74 74 81 77 75 70 69 68 66 66 65 62
86 85 85 86 85 86 88 84 84 83 83 82 83 84 83 81 77 77 79 77 75 75 75 74 72 73 73 73 74 74 72 72 72 74 74 74 73 70 72 68 70 68 65
85 85 84 85 85 88 79 75 82 84 83 82 81 83 83 78 76 73 72 74 76 74 73 75 75 74 72 74 74 73 72 69 67 74 72 72 74 70 74 72 70 70 66
85 84 84 85 84 85 74 72 74 86 84 83 82 82 84 87 78 79 71 72 70 71 74 75 73 73 73 75 75 73 73 72 70 72 71 69 72 71 72 70 66 65 66
84 84 84 84 84 85 72 68 71 83 84 84 83 83 82 83 82 80 78 76 76 75 73 78 77 76 76 78 77 75 73 73 72 73 72 66 70 69 71 67 64 65 64
84 85 85 84 83 84 68 66 68 82 83 83 84 84 83 82 77 69 78 75 75 76 71 68 70 70 68 68 74 74 71 70 68 69 71 70 70 68 69 67 64 63 62
85 86 85 85 80 84 70 63 67 84 82 84 83 83 72 81 70 64 78 77 74 75 76 75 72 67 67 69 67 74 74 70 69 67 71 70 68 67 63 68 66 63 62

GFSMA_sfc_temp_033.txt.gz
Temp
72 74 77 74 75 73 72 73 75 76 77 79 79 81 84 83 81 77 74 81 81 82 82 82 82 81 81 81 81 81 81 81 81 81 81 80 80 80 80 80 80 79 79
73 75 75 72 73 73 72 73 73 72 77 76 78 84 80 81 80 78 76 77 81 81 82 82 82 82 82 81 81 81 81 80 80 80 80 80 80 80 80 80 80 79 79
77 79 73 75 74 73 73 74 73 74 77 79 78 83 80 80 79 78 80 78 79 82 82 82 82 81 82 82 81 81 81 80 80 80 80 79 79 79 79 79 79 79 79
80 75 76 75 74 78 78 75 76 76 74 77 75 80 82 81 79 80 79 77 78 79 81 81 81 81 82 82 82 81 81 80 79 80 79 79 79 79 79 79 79 79 79
81 77 74 75 76 75 75 77 76 78 75 74 80 75 76 80 81 82 78 79 76 78 77 80 80 80 82 82 82 81 81 80 79 79 79 79 79 79 79 78 78 78 78
81 79 75 74 75 75 74 76 76 75 74 75 84 78 75 79 79 79 81 81 77 79 76 75 75 77 79 82 81 81 81 80 79 79 79 79 78 78 78 78 78 78 78
80 78 76 74 76 74 75 77 75 74 73 74 71 71 72 76 79 77 79 75 78 78 75 74 73 75 76 80 80 81 82 81 81 80 78 78 79 78 78 77 77 77 77
79 79 77 75 76 74 75 75 75 72 72 73 71 72 68 71 73 76 74 76 74 76 77 76 75 74 74 73 75 79 79 80 80 79 78 77 77 77 77 76 76 76 76
80 78 78 76 76 75 74 75 75 73 70 72 74 70 64 64 67 75 73 75 74 72 74 75 75 75 73 71 75 76 77 77 79 79 78 77 77 77 77 76 76 76 76
80 79 78 77 77 74 75 74 77 74 72 70 71 76 72 72 64 65 70 72 74 75 73 73 74 75 73 71 75 75 77 77 78 79 79 79 78 77 77 77 76 76 76
79 81 79 78 77 75 75 74 75 74 74 72 70 70 70 71 71 67 64 70 71 72 73 74 74 73 74 72 70 73 76 76 76 77 78 79 79 79 79 78 78 77 77
79 79 80 79 77 76 75 75 75 75 74 74 72 71 71 70 69 68 66 66 68 71 73 72 75 73 74 71 77 76 76 75 75 75 76 77 78 79 79 79 79 79 79
79 78 78 78 77 76 76 76 75 75 74 73 73 72 71 72 73 71 69 67 67 69 71 72 73 73 76 73 73 76 76 74 73 72 73 74 76 76 77 78 78 78 79
80 81 80 80 78 78 77 76 76 75 75 74 74 72 71 72 72 73 72 69 65 66 68 71 72 73 72 75 74 76 73 72 72 71 71 71 72 73 74 75 75 75 75
82 81 82 79 79 79 78 76 78 75 75 74 73 73 71 72 72 73 74 72 69 63 65 70 71 73 72 73 74 74 71 72 71 70 70 70 70 71 72 72 72 72 72
79 81 81 81 80 80 79 78 76 76 75 75 75 73 72 71 72 72 73 73 71 68 65 69 71 72 74 77 76 74 74 73 71 70 70 69 69 70 70 71 71 70 70
79 77 80 80 80 80 79 78 76 75 75 74 75 74 73 72 71 71 72 72 71 70 67 69 71 72 71 71 72 71 73 72 71 69 70 69 68 68 69 69 69 69 69
80 79 80 80 80 80 80 78 77 80 76 75 75 74 74 76 71 70 71 71 72 70 69 67 68 70 70 70 72 71 74 78 72 72 69 68 68 67 67 67 67 67 68
80 82 78 80 80 80 79 80 79 79 77 76 77 76 76 74 73 75 70 70 70 72 70 68 67 68 70 70 69 70 71 71 75 74 69 68 68 67 66 65 64 63 63
81 81 81 80 81 81 81 81 80 79 79 79 76 78 78 75 76 76 74 72 70 70 69 68 67 67 68 69 71 71 66 69 71 77 74 71 69 68 67 66 64 64 61
82 82 81 82 81 82 83 81 81 80 79 79 79 78 79 79 75 76 77 75 72 69 71 70 65 66 66 66 70 68 71 71 69 69 68 69 68 67 69 67 68 67 63
82 82 81 82 81 83 76 73 79 81 80 79 78 79 80 75 75 71 71 73 76 76 72 75 73 71 73 68 69 73 73 65 63 68 68 67 70 66 69 68 68 67 63
82 81 82 81 82 82 71 70 72 83 81 81 80 80 80 83 75 78 70 70 71 71 75 76 74 74 74 75 74 70 72 70 64 67 66 66 68 66 69 71 66 64 63
82 82 81 82 81 82 70 68 69 81 82 82 81 81 81 80 81 78 77 74 75 75 74 77 77 76 75 74 76 74 71 69 67 68 67 64 68 68 66 66 63 64 62
83 83 82 82 81 82 66 65 67 78 81 82 82 82 81 81 75 67 77 75 74 76 71 67 70 70 68 68 71 72 68 65 62 64 66 66 67 68 66 63 63 62 61
83 84 83 83 78 82 68 62 66 80 80 81 82 83 71 77 69 64 76 77 74 75 75 75 70 66 67 69 67 76 70 66 63 63 69 66 66 66 64 64 62 60 61

GFSMA_sfc_temp_036.txt.gz
Temp
72 73 74 74 73 73 73 72 74 75 75 75 77 78 79 78 75 75 73 81 81 82 82 82 81 81 81 81 81 81 81 81 80 80 80 80 79 79 79 79 79 79 79
72 73 73 72 73 73 71 71 73 71 72 74 76 81 77 77 76 75 74 76 80 81 82 82 82 81 81 81 81 80 80 80 80 80 80 79 79 79 79 79 79 79 79
74 74 72 72 72 72 73 72 72 72 78 77 75 79 76 75 76 75 75 74 77 81 81 82 81 81 81 81 81 81 80 80 80 80 79 79 79 79 79 79 79 79 79
76 74 73 73 73 72 72 71 73 74 75 75 74 77 74 75 75 75 75 75 75 77 80 81 80 81 81 81 81 81 80 80 79 79 79 79 79 79 79 79 78 78 78
77 75 73 73 73 72 72 74 72 72 71 74 75 73 77 73 75 79 75 75 74 75 74 79 79 79 81 81 81 81 80 80 79 79 79 79 79 79 78 78 78 78 77
78 75 73 74 73 72 73 73 72 72 71 71 79 75 72 76 75 72 76 77 74 75 73 74 74 75 80 81 80 80 81 80 79 79 79 78 78 78 78 77 77 77 77
77 75 74 73 73 73 73 74 72 71 71 70 70 69 69 72 76 72 74 73 74 74 73 73 72 73 75 79 80 80 81 81 81 79 79 78 77 77 77 76 76 76 76
77 76 74 73 73 72 72 73 72 69 69 70 68 67 65 69 71 73 71 73 72 73 73 74 73 72 72 72 74 79 79 79 79 79 78 77 77 77 76 75 75 76 76
77 76 76 74 74 73 72 73 73 71 68 70 71 69 63 62 64 70 70 70 71 70 71 73 73 73 72 70 75 76 77 77 78 78 78 77 76 76 76 76 75 75 75
77 77 77 75 74 73 73 73 74 72 69 68 70 73 69 67 63 64 68 68 70 72 70 70 72 72 72 69 73 74 76 76 77 78 79 78 77 77 77 77 76 75 75
77 79 76 75 74 73 73 73 73 72 71 69 68 68 68 68 67 64 63 66 68 69 69 71 72 71 71 70 69 71 76 75 76 77 78 78 78 78 78 78 77 77 77
77 77 78 76 75 74 73 72 73 73 72 71 69 68 69 69 67 66 63 64 66 69 69 69 70 70 70 69 74 75 76 75 74 75 76 77 77 79 79 79 79 78 78
73 75 76 75 76 74 74 73 72 73 72 72 70 70 69 69 69 68 66 64 65 67 68 69 70 70 73 69 70 75 76 73 72 72 72 74 75 76 77 78 78 78 78
77 78 78 77 77 76 75 73 73 73 73 72 72 70 69 70 70 70 69 66 63 63 64 69 69 69 70 71 71 75 72 72 71 70 70 71 72 73 74 75 75 75 75
79 78 79 78 77 77 75 74 73 73 74 72 71 72 70 70 70 70 69 69 68 62 63 68 68 70 72 70 73 73 70 72 71 70 69 69 70 71 72 72 72 72 72
77 79 78 79 77 77 77 74 74 73 73 73 72 71 70 70 70 69 69 68 68 67 64 67 69 69 71 74 73 73 73 72 71 70 69 68 68 69 70 70 70 70 70
76 77 78 78 78 77 77 75 74 75 74 74 73 72 71 70 70 69 68 68 67 66 66 68 67 69 68 68 71 71 71 70 70 69 69 68 67 68 68 69 68 68 69
76 77 76 78 78 78 78 77 75 77 75 73 74 73 73 75 69 68 68 68 68 67 67 66 66 66 68 68 70 69 72 76 72 72 68 68 67 66 66 66 66 65 65
77 75 77 77 77 78 78 78 77 77 75 75 75 74 75 73 73 71 67 70 67 68 66 66 67 65 66 66 66 67 67 70 72 73 68 66 66 66 65 65 64 62 61
77 77 76 77 77 78 79 79 78 77 77 76 76 76 76 75 75 73 70 68 68 66 65 64 64 64 65 66 67 70 67 66 71 75 74 71 69 67 66 65 64 63 60
77 79 79 77 78 79 80 79 79 78 77 77 76 76 77 77 75 75 76 74 69 69 65 66 63 63 63 64 68 68 69 72 70 68 68 68 67 66 67 66 69 67 62
78 78 78 78 77 80 74 72 78 79 79 77 76 76 77 74 73 70 70 73 75 73 71 72 72 69 74 67 66 74 71 63 65 67 68 71 68 66 71 70 69 66 63
78 78 79 79 79 80 70 69 71 81 79 79 78 78 78 80 74 76 69 69 70 69 74 76 75 75 75 75 74 67 71 70 73 69 69 72 66 71 73 73 66 64 63
78 78 78 79 79 80 68 66 69 79 80 80 79 79 79 78 79 76 76 72 73 76 73 76 79 79 79 79 76 76 75 73 68 67 68 70 66 69 68 70 64 64 62
80 80 80 79 79 80 65 64 66 76 78 79 81 80 80 79 73 66 75 74 73 73 73 67 70 70 68 67 72 74 70 67 65 68 67 73 64 66 64 67 68 62 61
81 81 81 81 76 79 65 63 66 79 78 79 80 81 70 76 67 64 74 76 74 75 75 76 72 69 66 69 65 78 78 71 71 63 65 71 62 63 61 65 65 64 61

GFSMA_sfc_temp_039.txt.gz
Temp
71 73 73 72 72 72 71 69 72 73 73 73 74 75 75 75 74 73 73 80 80 81 82 81 81 81 81 80 80 80 80 80 80 80 80 79 79 79 79 78 78 78 78
70 71 72 72 72 72 71 70 71 70 71 73 74 76 74 74 74 73 73 74 80 80 80 81 81 81 81 81 80 80 80 80 79 79 79 79 79 78 79 79 79 78 78
72 73 72 71 71 71 72 71 71 73 71 74 77 75 74 74 74 73 73 73 75 81 80 81 81 81 80 81 81 80 80 79 79 79 79 78 78 78 78 78 78 78 78
74 72 72 71 72 71 71 71 71 74 71 72 76 72 72 73 73 73 73 73 73 76 79 81 80 80 81 81 81 80 80 80 79 79 79 78 79 78 78 78 78 77 77
76 73 72 72 73 71 71 71 71 71 71 71 73 71 71 71 72 76 73 73 72 73 73 78 79 79 80 81 80 79 80 79 78 79 78 78 78 78 78 78 78 78 77
76 73 72 72 72 71 70 70 71 69 68 70 76 71 71 71 70 71 72 75 72 73 72 73 73 74 79 81 80 79 80 80 79 78 78 77 78 77 77 77 77 77 77
76 74 72 72 72 71 72 73 71 70 68 68 68 67 68 69 71 70 71 71 72 73 71 71 71 72 73 79 79 80 80 81 80 79 79 78 77 77 77 76 76 76 76
75 75 74 73 73 71 72 71 71 68 68 68 67 64 63 67 69 69 69 71 70 71 72 72 71 71 71 71 73 79 79 79 79 78 78 77 77 76 76 75 75 75 75
76 75 74 73 72 72 71 71 71 69 68 68 68 67 62 61 62 67 68 69 70 69 69 71 71 71 71 69 73 75 77 77 78 78 77 77 76 76 76 75 75 75 75
76 76 75 73 73 72 72 71 72 70 68 68 68 70 67 66 63 63 66 67 68 69 68 69 71 71 71 69 73 74 76 75 77 78 78 77 77 77 77 76 76 75 75
75 77 75 74 72 72 72 72 71 70 69 67 67 67 66 66 64 63 62 65 67 68 68 69 69 69 70 69 68 70 75 75 75 77 78 78 78 78 78 77 77 77 76
74 74 75 73 73 72 72 72 72 71 70 69 67 67 68 67 66 64 62 62 64 67 68 68 68 69 69 68 72 75 75 75 74 75 75 76 77 78 79 78 78 78 78
71 73 73 73 72 73 73 72 71 71 71 70 69 68 67 68 67 66 65 62 63 65 66 66 68 68 71 68 69 75 75 73 72 71 72 74 75 76 77 78 78 79 79
75 76 75 75 74 74 73 72 71 71 71 70 71 68 68 68 67 68 68 65 62 61 62 67 67 68 69 68 70 74 70 72 71 70 70 70 71 73 75 75 75 76 76
76 74 76 76 74 74 73 73 71 71 72 71 70 70 68 68 68 68 67 67 66 62 62 66 67 67 70 68 70 71 70 72 71 70 69 68 69 70 72 72 73 72 72
75 75 75 76 75 74 73 73 72 72 71 71 71 70 69 68 68 67 67 66 65 66 63 66 68 68 68 72 71 71 71 72 71 69 69 68 68 69 70 70 70 70 70
73 74 74 75 76 75 74 73 73 73 71 71 72 71 70 69 68 67 66 65 65 64 64 66 65 66 66 66 69 71 70 68 70 69 68 68 67 67 68 68 68 68 69
73 75 75 75 76 76 75 74 73 75 73 72 72 72 72 72 69 67 66 66 65 64 65 64 65 66 66 66 68 67 70 73 71 71 68 67 67 66 66 66 66 66 65
74 74 75 75 75 75 75 75 75 75 74 75 74 73 74 71 70 69 67 65 65 67 64 63 66 64 65 64 64 65 66 68 70 73 68 67 66 66 65 64 64 63 61
75 75 76 76 76 76 76 76 76 75 75 75 75 75 75 74 73 72 71 69 67 65 63 62 62 67 65 65 64 64 63 63 70 74 73 72 69 68 66 64 64 63 60
76 77 76 76 76 76 78 76 76 76 75 75 74 75 76 76 74 74 75 73 68 68 66 69 68 60 62 63 63 65 70 73 69 71 71 73 70 70 69 65 68 67 63
75 76 76 76 75 78 72 71 76 77 76 75 75 74 75 73 73 70 69 71 75 72 71 69 72 71 71 69 74 72 68 61 66 69 69 74 74 72 72 68 68 66 64
76 75 75 77 76 77 69 68 70 79 77 77 76 77 76 78 73 75 69 68 68 68 73 77 71 74 73 75 74 69 71 71 72 69 72 73 70 71 74 72 66 65 64
75 75 75 76 76 78 68 66 68 76 78 78 78 78 78 78 77 75 75 73 71 74 73 73 77 79 78 79 76 75 74 75 75 77 69 70 68 70 73 71 65 65 63
76 76 77 76 76 77 65 64 66 75 76 77 79 78 78 78 72 66 75 74 74 74 70 66 67 68 68 66 73 76 72 68 70 72 71 71 72 69 66 69 69 64 62
78 78 77 77 73 77 65 62 64 76 75 76 78 79 68 74 66 63 73 75 73 76 77 76 72 68 66 71 64 75 74 68 70 71 74 67 71 66 64 63 68 64 63

GFSMA_sfc_temp_042.txt.gz
Temp
73 74 75 73 74 74 72 72 75 75 75 77 77 78 78 77 77 78 78 80 80 80 82 82 81 81 81 80 80 80 80 80 80 80 80 79 79 79 79 79 79 79 78
72 73 74 74 73 73 73 73 74 73 74 76 76 78 77 77 77 77 78 78 80 80 81 81 81 81 81 80 80 80 80 79 79 79 79 79 79 79 79 79 79 79 78
73 73 73 73 74 74 74 74 74 75 75 77 76 77 77 77 77 77 77 78 78 80 80 80 81 81 81 81 81 80 80 79 79 79 79 79 79 78 78 78 78 78 78
75 73 73 74 74 74 74 73 73 75 75 75 75 75 75 76 76 77 77 78 78 80 80 80 80 80 80 80 80 80 80 79 79 79 79 78 78 78 78 78 78 78 78
76 74 73 73 75 74 74 75 73 74 74 75 76 74 75 75 76 79 77 77 77 78 78 78 79 79 80 80 81 80 80 79 79 78 78 78 78 78 78 78 78 78 77
77 75 72 73 74 73 73 73 73 71 72 73 77 73 73 75 75 75 77 78 77 78 78 78 78 79 79 81 81 80 80 80 79 79 79 78 78 78 78 77 77 77 77
77 75 73 73 73 73 74 75 74 72 71 72 71 72 72 73 74 75 76 77 77 78 77 77 77 78 79 78 79 79 80 81 80 79 79 78 78 77 77 76 76 76 76
76 75 74 73 72 73 74 75 74 71 71 71 69 68 68 72 73 75 75 76 76 77 77 77 77 76 77 77 77 78 79 79 79 78 77 77 77 76 76 75 75 75 75
77 76 76 75 74 73 73 74 74 73 71 72 72 70 67 68 68 72 73 74 75 75 76 76 77 77 76 77 77 77 77 76 78 78 77 77 76 76 76 75 75 75 75
76 77 76 75 75 74 74 75 75 73 71 72 71 73 71 70 69 70 72 73 73 75 75 75 77 77 76 77 76 75 75 75 76 78 78 77 76 76 77 76 76 75 75
75 77 76 75 75 75 74 75 74 74 73 71 71 71 71 71 69 69 69 71 73 74 74 75 76 77 77 76 76 75 75 75 75 76 78 78 78 78 78 77 77 76 76
74 75 77 75 75 75 75 75 75 74 73 72 71 71 72 72 71 70 69 69 70 73 74 74 75 76 77 77 76 75 75 75 74 75 75 76 77 78 79 79 78 78 78
73 74 75 75 75 75 75 75 74 74 74 74 72 72 72 72 72 71 71 70 70 71 73 74 75 75 77 76 76 75 75 73 72 71 71 73 75 76 77 78 79 79 79
74 76 75 76 76 76 76 75 75 75 75 74 74 72 73 72 72 72 72 71 70 69 70 73 74 74 75 76 76 74 77 71 71 70 70 71 71 73 74 75 75 76 76
76 76 76 76 76 76 76 75 75 75 75 75 74 74 73 74 73 73 72 73 72 70 70 74 73 74 74 75 76 77 76 72 71 70 69 69 69 71 71 72 72 72 73
75 75 75 76 76 76 76 75 75 75 74 75 75 73 73 74 74 73 73 72 71 72 70 73 75 75 75 76 75 76 76 72 70 70 69 68 68 69 70 70 70 70 71
75 75 75 75 76 76 76 75 75 75 74 75 75 74 74 74 75 74 72 72 71 70 70 73 72 74 73 73 75 75 75 75 76 69 69 68 67 68 68 69 69 69 69
75 75 75 75 75 76 76 75 75 77 75 75 75 74 75 76 73 73 73 71 71 70 71 69 71 73 71 73 73 72 74 77 76 73 68 67 66 66 66 66 66 66 65
74 76 76 75 75 76 75 76 76 76 76 76 76 75 76 75 74 75 73 73 72 72 70 69 72 72 73 73 71 70 71 73 76 73 68 67 66 66 65 64 64 63 61
75 75 75 75 76 76 76 76 76 76 76 77 77 77 77 76 75 76 74 73 73 72 70 70 71 71 73 73 71 72 72 71 74 78 76 73 71 69 67 64 64 64 61
75 75 75 76 76 77 79 76 77 76 76 76 76 77 78 77 74 74 78 75 74 73 74 71 71 71 71 71 71 76 71 75 74 75 76 76 76 75 75 67 71 67 63
75 75 75 75 75 79 72 70 75 77 77 76 75 76 77 74 73 69 69 71 76 74 73 74 74 74 73 73 74 74 73 72 72 76 73 75 78 77 77 78 72 67 63
75 75 75 75 75 76 68 68 70 79 77 77 77 77 77 79 74 77 70 67 68 67 71 77 74 74 74 76 75 72 71 73 74 79 73 74 77 75 77 79 67 65 64
74 74 75 75 75 76 67 65 68 76 78 78 78 78 77 78 77 76 77 77 77 76 73 74 75 77 79 79 77 76 74 73 74 76 72 71 78 75 77 77 67 65 64
74 74 75 75 75 76 64 64 66 75 77 77 79 79 78 78 71 66 76 76 76 77 71 66 67 68 66 65 69 76 72 69 69 72 75 73 73 75 75 73 76 65 64
76 77 76 76 72 75 64 62 64 77 75 77 77 78 68 74 66 63 74 76 75 77 77 77 75 68 65 70 64 68 71 68 68 68 76 67 70 67 67 70 70 70 68

GFSMA_sfc_temp_045.txt.gz
Temp
84 86 85 87 86 87 87 87 87 87 85 86 87 87 88 87 87 91 90 81 81 82 82 82 81 81 81 81 80 80 80 80 80 80 80 79 79 79 79 79 79 79 79
84 84 82 84 86 87 87 87 85 86 86 88 85 87 87 87 86 87 91 87 80 80 82 82 82 81 81 81 80 80 80 80 80 79 79 79 79 79 79 79 79 79 78
83 83 83 82 86 85 84 86 86 87 88 89 86 87 87 86 87 86 90 91 88 80 80 80 81 81 81 81 81 80 80 79 79 79 79 79 79 79 79 79 79 78 78
83 83 85 87 85 84 86 87 88 88 78 87 86 87 87 87 86 87 89 89 90 92 83 81 80 80 80 80 81 81 80 80 80 80 79 79 79 79 79 78 78 78 78
84 85 86 85 85 86 85 88 86 87 84 87 88 87 87 87 87 91 87 87 88 89 90 80 80 80 81 81 81 81 80 80 79 79 79 79 79 78 78 78 78 78 78
85 84 85 84 84 83 86 86 83 84 86 87 88 80 87 88 88 89 89 90 89 88 90 87 88 88 79 80 81 81 81 80 79 78 79 78 78 78 78 78 77 77 77
85 84 86 84 84 85 85 84 84 81 83 84 85 85 85 87 86 88 90 91 88 89 89 89 89 90 89 79 79 80 80 81 80 80 79 79 78 78 77 77 76 76 76
85 85 83 83 82 84 83 83 82 84 84 84 84 84 81 83 87 89 88 88 88 91 90 88 87 86 87 89 84 78 79 79 79 79 78 77 77 77 76 76 76 76 76
85 85 83 84 82 81 81 82 84 82 83 83 82 85 80 80 83 85 83 87 86 87 89 88 87 87 85 88 83 82 78 77 78 78 78 77 76 76 76 76 76 76 76
85 85 85 83 83 85 81 84 85 84 83 83 83 85 82 82 83 81 85 86 86 86 87 88 89 87 86 88 82 78 76 76 76 78 78 77 77 77 77 77 76 76 76
85 86 85 84 83 83 83 83 82 82 84 85 85 84 82 85 82 84 82 85 86 88 88 87 89 89 88 87 88 82 76 76 76 77 78 78 78 78 78 78 77 77 77
86 84 85 84 84 85 83 84 82 82 83 83 85 84 86 85 85 83 82 83 83 87 89 89 87 89 89 89 86 78 75 75 75 75 76 77 78 79 79 79 79 78 78
86 84 83 83 85 84 85 84 83 83 83 83 81 85 86 86 86 86 84 84 83 87 87 89 89 89 90 89 89 79 76 74 73 73 73 74 75 76 77 79 79 79 79
87 87 85 85 85 85 85 84 85 85 84 84 83 83 86 86 86 85 85 83 82 83 85 83 91 89 89 89 88 77 85 72 72 71 71 71 72 73 74 75 76 76 77
87 86 86 85 85 85 84 84 85 84 83 83 84 83 84 87 86 86 85 85 83 80 83 88 88 87 89 89 87 88 87 78 71 71 70 69 70 71 72 73 73 73 73
84 86 85 85 85 85 84 83 85 85 83 85 86 83 83 86 85 85 85 85 84 82 80 88 89 88 88 89 86 84 87 77 72 70 69 69 69 70 71 71 71 71 71
83 84 84 85 84 84 84 83 83 85 83 83 83 83 82 83 86 87 85 85 84 83 81 86 87 87 82 83 86 85 85 85 87 70 69 68 68 69 69 70 70 69 70
84 84 84 84 84 85 85 83 83 85 83 83 84 83 83 86 82 83 85 82 83 83 81 78 84 86 83 85 84 83 85 90 88 80 69 67 67 67 67 67 67 67 67
83 85 84 83 83 84 84 84 83 84 84 84 85 84 84 84 82 85 84 85 85 83 82 80 82 86 85 86 84 83 82 84 87 79 69 67 66 66 66 65 65 64 63
83 83 83 84 85 85 85 85 84 84 84 85 85 85 85 84 83 83 84 83 83 83 84 82 83 85 85 85 84 82 84 88 87 90 84 78 75 70 67 65 65 65 62
83 83 83 84 84 86 88 85 85 84 83 84 85 85 85 83 77 79 86 84 83 82 83 83 83 84 84 85 83 87 85 86 86 88 86 88 89 88 83 68 73 68 65
82 83 83 83 83 87 76 72 80 85 84 83 83 84 85 78 77 70 69 71 79 82 80 83 85 83 82 83 86 85 84 82 81 91 85 84 87 87 89 90 78 70 66
82 81 82 83 83 84 70 68 70 85 86 85 84 84 86 89 80 84 74 68 68 67 70 80 80 82 82 83 83 80 81 82 82 87 82 82 87 86 87 90 72 69 66
81 81 82 82 82 84 67 66 68 81 84 85 85 85 85 85 85 84 85 85 85 85 81 80 80 82 83 85 84 81 79 77 78 83 83 76 85 85 85 89 72 67 65
81 81 82 82 81 82 65 64 67 82 83 83 85 85 85 84 75 67 82 82 83 84 78 68 69 68 65 64 68 76 72 73 72 77 84 78 83 84 86 86 88 67 63
81 84 82 82 77 82 66 62 66 83 82 84 84 83 70 78 68 63 79 81 80 83 85 86 86 76 70 73 64 70 71 69 69 70 81 76 75 74 72 85 84 82 83

GFSMA_sfc_temp_048.txt.gz
Temp
91 93 91 96 95 96 95 95 94 94 91 93 94 94 95 93 94 97 89 81 82 82 82 82 81 81 81 81 81 81 81 81 80 80 80 80 80 79 79 80 79 79 79
88 92 91 92 93 97 95 95 93 93 94 94 92 93 94 94 92 94 95 88 81 81 82 82 82 82 81 81 81 81 81 80 80 80 80 80 79 79 79 79 79 79 79
87 88 91 90 92 92 90 91 92 93 95 95 92 93 94 93 93 91 96 96 87 81 81 81 82 81 82 81 81 81 80 80 80 80 80 80 80 79 79 79 79 79 79
88 88 90 91 93 93 94 95 95 90 89 94 92 93 93 94 91 91 93 95 94 95 83 81 81 81 81 81 81 81 81 80 80 80 80 80 80 79 79 79 79 79 79
90 92 94 90 89 93 94 95 95 89 91 93 93 94 94 94 94 96 91 93 91 95 96 81 81 81 81 82 82 81 81 80 80 79 79 79 79 79 79 79 79 78 78
90 90 92 88 91 91 91 94 90 93 94 95 94 95 95 95 96 96 94 96 93 94 96 92 90 83 81 81 81 81 81 81 80 80 79 79 79 79 79 78 78 77 77
90 89 89 90 89 90 90 89 90 87 91 92 90 91 92 93 92 96 98 99 93 96 94 95 94 96 88 81 81 80 80 81 80 80 79 79 79 78 78 77 77 77 77
90 91 89 91 90 88 87 87 87 91 91 92 90 91 84 88 93 97 97 96 95 98 97 93 93 91 92 95 87 79 79 79 80 79 78 78 78 77 77 77 77 77 77
91 90 89 90 88 90 90 88 88 87 89 90 89 86 83 77 88 92 90 94 92 94 96 94 94 92 91 93 85 84 80 78 79 79 79 78 77 77 77 77 77 77 77
91 91 89 89 88 88 88 89 91 90 88 88 90 93 88 87 84 81 91 92 93 93 92 94 96 93 92 93 85 80 79 77 78 79 79 78 77 77 77 77 77 77 77
91 92 89 89 89 91 88 88 87 87 91 92 92 90 88 92 89 87 86 89 92 95 96 94 97 96 93 93 95 86 78 77 77 78 79 79 79 79 79 78 78 77 77
92 90 91 89 89 89 89 89 88 87 88 89 92 91 91 89 90 90 89 88 88 93 97 96 95 95 96 95 91 78 77 76 75 76 76 77 78 79 80 79 79 79 78
94 91 89 88 90 88 90 89 86 87 88 88 86 91 93 92 93 91 89 90 89 94 94 97 97 96 97 96 95 83 77 74 74 73 73 75 76 77 78 79 79 79 79
95 93 90 90 90 90 90 89 88 89 89 89 87 87 93 93 93 93 90 88 87 91 93 88 98 98 97 96 93 79 90 73 72 72 71 72 73 74 75 76 77 77 78
95 93 92 90 90 90 90 89 91 89 89 88 89 88 89 94 94 94 93 92 88 84 89 91 94 95 97 98 93 94 93 79 72 71 70 70 71 72 73 73 74 74 74
90 92 90 90 90 90 89 88 90 89 88 91 92 89 88 93 93 93 93 93 91 88 85 95 95 96 95 96 93 92 92 80 73 71 70 69 70 71 71 72 72 72 72
90 88 89 89 90 90 89 88 88 90 88 88 89 88 87 88 92 94 93 93 91 91 87 92 96 97 89 88 91 93 92 91 93 71 70 69 68 69 70 71 71 70 71
89 89 89 88 89 90 90 88 88 90 88 87 88 88 87 91 86 87 92 88 90 91 89 83 89 91 90 91 89 87 90 96 96 84 70 68 68 67 68 68 68 68 68
87 90 89 88 88 90 89 89 89 89 89 89 89 88 88 88 86 90 89 91 92 90 89 88 87 93 93 94 91 90 88 89 93 82 71 69 67 66 66 65 65 65 64
87 88 89 89 89 90 90 90 90 89 89 90 90 90 90 89 88 87 88 87 88 88 89 89 90 92 94 94 94 91 90 94 95 98 88 81 78 73 68 65 65 65 62
88 88 88 89 89 91 94 90 90 90 89 89 90 91 91 88 79 81 91 89 88 88 90 91 91 92 92 93 91 94 91 93 93 96 96 97 97 95 92 68 74 68 65
87 87 88 88 88 93 79 74 83 90 89 88 88 89 90 82 80 72 71 71 77 85 85 88 89 88 87 89 93 91 91 89 87 96 91 91 93 91 92 95 80 72 67
87 86 87 88 88 89 73 70 72 90 91 89 89 89 91 96 84 91 74 69 70 69 70 81 81 84 85 87 87 85 86 86 84 90 88 86 90 89 93 97 73 69 66
86 86 86 87 88 89 70 67 69 87 88 89 90 90 89 89 90 89 91 90 90 90 84 83 84 85 85 87 86 85 83 83 85 84 82 78 88 86 91 92 75 70 67
86 87 87 87 86 87 67 65 69 86 87 87 89 89 90 89 79 68 87 86 86 88 84 70 71 70 68 66 71 83 77 78 76 83 85 78 86 87 89 90 91 74 66
87 90 88 88 82 87 68 62 69 89 88 90 89 88 72 80 70 64 84 85 84 86 89 89 89 74 69 78 65 77 80 72 73 73 86 77 79 78 75 87 89 91 90

GFSMA_sfc_temp_051.txt.gz
Temp
85 84 93 82 84 88 92 90 94 92 93 96 89 87 94 95 89 87 88 82 82 83 83 82 82 82 82 82 82 82 81 81 81 81 81 80 80 80 80 80 80 80 79
88 92 92 85 84 76 87 87 88 93 94 95 94 87 89 94 93 85 92 87 82 82 83 83 82 82 82 82 82 81 81 81 80 80 80 80 80 80 80 80 80 80 79
90 91 84 93 84 92 92 93 93 90 94 92 83 92 94 91 94 93 85 85 86 82 82 82 82 82 82 82 82 81 81 80 80 80 80 80 80 80 80 80 80 79 79
90 89 92 93 92 88 87 94 80 91 92 90 85 82 93 93 93 94 93 88 87 89 83 82 82 82 82 82 82 82 81 81 80 80 80 80 80 80 80 80 79 79 79
92 79 81 91 91 90 82 89 89 90 90 92 83 87 93 93 91 94 93 94 93 88 88 82 81 82 82 82 82 82 81 81 81 80 80 80 80 80 80 79 79 78 78
93 92 89 90 87 94 84 78 90 86 83 82 96 94 93 94 95 94 93 96 94 94 86 88 85 85 81 83 82 82 82 81 81 80 80 80 80 79 79 79 78 78 77
92 91 89 90 91 91 84 91 90 89 91 93 90 91 92 94 93 96 99 98 94 96 96 94 91 88 85 81 82 82 81 81 81 81 80 79 79 79 78 78 77 77 77
92 93 86 85 80 89 88 89 89 89 92 89 81 89 78 85 94 96 97 96 95 98 96 94 93 91 91 91 86 82 81 81 81 81 79 78 78 78 78 77 77 77 77
93 93 91 88 90 86 85 88 88 88 85 92 90 80 74 72 86 93 91 95 92 94 96 93 94 92 91 92 85 83 81 80 80 80 79 78 78 77 77 77 77 77 77
93 93 91 90 88 92 84 87 91 91 86 88 91 93 86 86 76 81 92 93 94 93 93 95 96 94 92 93 87 82 80 79 79 80 80 79 78 78 78 78 77 77 77
93 94 91 90 89 91 90 89 89 87 92 84 85 91 89 92 88 85 80 88 93 95 96 94 97 97 94 94 95 86 78 78 77 78 79 80 80 79 79 79 78 78 77
93 92 92 90 90 91 89 89 89 89 87 90 92 91 82 79 82 90 87 87 89 92 96 97 96 96 97 96 91 78 78 77 76 76 77 78 79 79 80 80 79 79 78
95 91 91 88 91 89 91 89 88 89 88 89 87 91 93 93 94 92 91 90 89 94 94 97 98 97 98 97 96 86 77 75 75 74 74 75 76 77 78 79 79 80 79
97 92 91 91 91 91 90 90 90 90 90 89 88 87 92 94 95 93 91 89 87 91 93 91 98 99 98 97 91 80 90 74 73 72 72 72 73 74 75 76 77 77 78
98 95 93 90 91 91 91 90 91 88 89 89 89 88 89 94 96 95 94 93 89 84 89 90 93 97 97 99 94 95 94 78 73 71 71 70 71 72 73 74 74 74 75
93 94 93 92 91 91 91 90 91 91 89 91 92 90 89 93 95 95 94 94 93 89 85 95 96 98 98 98 94 94 94 82 73 71 70 70 70 71 72 72 72 72 73
93 91 91 91 90 90 90 89 89 92 88 89 90 91 89 89 92 95 95 94 93 92 87 92 96 97 94 91 92 92 92 93 93 71 70 70 69 69 70 71 71 71 71
91 91 90 90 90 91 91 89 88 91 89 88 89 89 89 92 87 88 91 89 91 92 89 83 88 91 89 91 91 89 91 95 94 85 71 69 68 67 67 68 68 68 67
89 91 90 89 89 90 90 90 90 89 90 90 90 89 89 89 87 90 90 91 93 91 90 88 88 93 94 95 93 91 90 90 95 85 76 70 69 68 67 66 65 64 63
89 89 90 90 90 90 91 91 91 90 90 91 91 91 91 90 88 88 88 87 88 88 89 89 90 92 94 95 96 93 93 97 96 100 91 84 78 71 68 66 65 65 62
89 89 89 90 91 91 94 90 91 91 89 89 91 91 91 89 81 83 91 88 87 89 90 90 91 93 93 94 90 94 92 94 94 96 97 96 92 92 86 70 73 69 65
89 89 89 89 89 93 80 75 85 91 90 89 89 90 91 82 81 74 72 72 77 83 84 87 89 88 85 88 93 91 90 88 85 95 89 91 92 88 93 91 80 70 67
88 87 88 89 89 90 73 71 74 92 91 90 89 89 91 96 84 91 75 72 72 69 70 81 80 82 82 85 85 83 83 85 84 89 88 86 91 88 93 95 77 72 66
87 87 88 88 89 90 72 67 71 88 89 90 91 91 89 90 91 90 92 91 88 88 84 83 83 84 85 86 85 85 83 82 84 88 87 81 88 87 88 90 76 69 67
88 88 89 88 87 88 69 66 70 88 88 87 90 90 90 90 80 70 87 86 87 88 84 71 71 71 69 67 71 85 82 81 79 79 86 82 87 85 87 88 91 76 70
89 92 90 90 83 88 68 64 70 91 88 90 88 87 74 82 72 65 84 86 84 86 89 90 91 81 71 78 67 77 81 74 74 74 84 81 82 81 81 88 90 91 92

GFSMA_sfc_temp_054.txt.gz
Temp
82 86 77 79 81 78 83 80 85 80 79 79 86 85 88 87 87 83 81 81 81 82 82 82 82 82 82 82 82 82 81 81 81 81 80 80 80 80 80 80 80 80 79
82 87 84 79 78 77 81 80 84 84 84 84 83 86 85 85 85 84 82 80 81 82 82 82 82 82 82 82 82 81 81 80 80 80 80 80 80 80 80 80 80 79 79
88 84 86 75 74 80 84 86 85 83 84 85 81 83 86 86 84 84 83 82 81 82 82 82 82 82 82 82 82 81 81 80 80 80 80 80 80 80 80 79 79 79 79
89 83 81 84 82 84 79 82 80 83 80 82 82 81 82 85 86 83 83 83 82 84 81 82 82 82 82 82 82 82 81 81 80 80 80 80 80 80 79 79 79 79 78
82 76 76 85 80 74 77 83 82 83 82 80 81 81 83 83 83 89 86 82 83 81 82 81 81 81 82 82 82 82 81 81 80 80 80 80 80 79 79 79 79 78 78
82 77 77 85 86 75 76 80 79 80 82 79 88 87 84 84 83 84 86 89 84 83 83 80 79 80 80 82 82 82 82 81 81 80 80 79 79 79 79 79 78 78 77
84 76 79 83 82 79 78 83 82 82 81 82 80 81 81 85 86 84 86 85 87 85 84 83 81 81 80 80 81 81 82 81 81 81 80 79 79 79 79 78 77 77 77
88 83 80 82 78 82 85 84 81 80 82 82 78 77 73 78 82 86 84 87 86 87 87 86 82 80 80 79 79 80 80 81 81 81 80 79 79 78 78 77 77 77 77
89 85 86 82 84 81 83 83 84 80 78 79 82 78 72 71 75 81 84 83 84 84 83 84 85 83 83 81 80 79 79 78 80 81 80 79 78 77 77 77 76 77 77
87 88 87 85 84 80 79 83 85 81 79 79 81 84 81 79 73 73 80 82 83 86 85 83 84 83 82 82 83 80 79 78 79 80 80 79 78 78 78 77 76 76 76
88 89 86 86 84 81 82 84 85 84 81 81 79 80 80 79 80 76 73 76 80 82 82 83 84 83 83 83 80 78 78 77 77 78 79 79 79 79 79 79 78 77 77
87 86 87 86 85 83 82 83 85 85 82 81 80 81 79 78 78 78 76 77 78 81 83 83 83 84 83 83 87 80 77 76 76 76 76 77 78 79 80 80 80 79 79
86 84 84 84 85 84 84 84 83 83 84 81 83 81 80 79 80 80 79 78 78 80 81 84 84 84 88 83 84 80 77 75 74 74 74 74 76 77 78 79 79 80 80
87 86 86 85 85 85 85 83 83 83 84 83 83 83 82 82 83 83 80 77 75 78 80 83 84 84 84 85 83 80 78 73 73 72 72 72 73 74 75 76 76 77 78
90 86 86 86 86 85 84 83 83 82 84 83 82 83 82 82 84 85 83 82 78 73 75 80 80 86 84 85 84 81 81 75 73 72 71 70 71 71 73 73 73 73 74
87 84 85 85 86 86 85 84 84 83 83 83 84 82 82 83 84 85 84 83 81 78 74 80 82 85 85 89 83 84 85 81 73 72 70 70 70 71 71 72 72 72 72
87 87 87 86 85 85 85 84 83 84 82 82 84 84 82 83 82 83 83 82 81 81 77 79 82 83 83 84 84 84 84 82 82 72 71 70 69 70 70 71 70 70 70
86 87 86 86 85 85 85 84 83 85 83 83 83 83 84 87 82 82 82 81 82 83 80 76 79 80 81 82 82 81 84 90 85 83 71 69 68 68 68 68 68 68 67
85 87 86 84 84 84 84 84 84 83 83 84 84 83 83 83 82 82 82 81 82 82 80 79 78 82 82 83 82 82 81 82 87 82 77 72 68 68 66 66 65 64 62
84 85 85 85 85 85 85 86 85 84 84 85 85 84 84 83 82 82 82 81 82 81 80 79 79 80 81 82 82 80 80 82 82 92 87 83 75 71 68 66 65 65 61
85 85 84 85 85 86 89 84 85 84 83 84 84 85 85 84 79 80 85 81 81 81 81 81 80 79 79 79 78 80 79 80 82 82 86 83 85 84 79 69 70 69 66
84 84 84 84 84 89 79 75 82 85 84 83 82 84 85 79 79 74 72 73 77 79 78 79 79 78 77 79 79 80 79 78 75 83 79 82 83 82 84 85 76 69 67
84 83 84 84 84 85 74 72 74 86 84 84 83 83 85 91 80 85 74 72 72 71 72 79 77 77 77 78 79 78 78 78 78 82 80 79 81 81 83 88 73 70 67
83 83 83 84 84 85 72 68 71 82 84 84 84 84 83 83 84 84 84 83 80 81 79 78 77 79 80 81 80 81 79 78 79 81 80 75 80 80 81 82 74 71 68
83 83 84 83 83 84 68 68 68 80 83 82 83 84 84 84 77 72 81 80 80 81 78 68 71 70 70 69 71 75 77 77 75 77 79 76 78 78 78 78 79 71 68
84 86 85 85 80 84 68 66 69 85 82 83 82 82 72 79 71 66 78 81 79 80 82 83 83 79 70 74 65 72 77 73 74 73 77 74 76 76 72 76 75 76 75

GFSMA_sfc_temp_057.txt.gz
Temp
78 78 74 75 76 74 73 73 73 72 73 77 79 81 83 79 78 76 74 81 81 81 82 82 82 81 81 81 81 81 81 81 80 80 80 80 79 79 79 79 79 79 79
78 73 72 77 75 75 77 77 75 73 76 77 80 82 79 81 80 77 77 77 81 81 82 82 82 82 81 81 81 81 80 80 80 80 80 80 79 79 79 79 79 79 79
77 77 73 74 74 76 77 77 78 76 76 78 81 81 79 79 80 81 79 76 78 81 82 82 82 81 81 82 81 81 80 80 80 80 80 79 79 79 79 79 79 78 78
76 74 74 75 74 78 76 79 75 79 77 76 77 80 78 79 79 80 79 77 76 79 81 81 81 81 81 82 81 81 81 80 80 79 79 79 79 79 79 79 78 78 78
77 73 73 75 74 75 74 76 75 77 77 76 76 76 77 80 81 82 78 78 76 76 76 80 80 80 81 82 82 81 81 80 80 79 79 79 79 79 79 78 78 77 77
77 73 73 75 73 74 73 74 74 78 78 78 85 83 80 77 77 76 79 81 78 78 76 76 75 76 80 82 81 81 81 81 80 80 79 79 78 78 78 78 78 77 77
78 75 73 75 75 73 73 78 75 76 76 78 72 74 74 78 79 76 79 78 78 79 77 75 74 74 76 80 80 80 81 81 81 80 79 78 78 78 77 77 77 77 76
78 75 73 74 75 75 75 75 75 73 77 74 72 73 72 73 79 79 76 80 79 80 79 79 76 75 74 75 75 79 80 80 81 81 80 78 78 77 77 76 76 76 76
80 80 77 77 75 75 75 75 76 76 71 73 77 72 69 70 69 74 75 77 78 76 77 78 79 77 75 75 77 78 79 78 80 81 80 79 77 77 77 76 76 76 76
81 81 79 78 76 78 75 75 78 75 73 72 73 78 74 75 71 67 73 75 77 79 77 75 78 78 77 75 78 77 78 77 78 79 80 80 78 77 77 77 76 76 76
80 81 79 78 76 74 75 76 77 76 74 73 71 72 72 73 76 72 67 71 73 75 77 77 77 77 79 77 75 76 77 76 76 77 78 79 79 79 79 79 78 77 77
79 79 80 78 77 75 75 76 77 76 75 75 73 74 73 74 74 73 70 69 70 74 76 77 77 78 78 77 81 79 77 76 75 75 76 77 78 79 80 80 80 79 79
76 77 78 77 77 77 76 76 76 76 76 75 75 77 74 73 73 76 72 70 71 73 75 76 77 77 81 78 79 79 77 74 73 73 73 74 75 76 77 79 79 80 80
81 78 79 78 78 78 78 76 76 75 76 75 76 75 74 75 74 74 74 72 69 70 72 76 77 78 79 78 79 78 76 73 72 71 71 72 72 74 75 75 76 77 77
82 79 81 80 79 78 78 76 75 75 76 75 75 75 75 75 75 76 76 75 72 67 68 74 75 78 79 78 79 76 76 75 72 71 70 70 70 72 72 73 73 73 73
79 79 80 80 79 78 78 76 76 76 76 76 77 76 75 75 75 77 76 76 74 72 69 72 76 78 79 83 81 78 79 77 74 71 70 69 70 71 71 71 71 72 72
78 80 82 78 79 78 77 77 76 76 75 75 77 75 76 77 76 75 76 75 74 73 70 73 75 76 76 77 79 78 79 79 76 71 70 69 69 69 70 70 70 70 70
77 78 81 81 79 78 78 77 76 79 77 76 76 76 77 80 76 75 75 75 74 75 73 71 72 75 76 79 78 78 83 86 77 79 73 70 68 68 68 67 68 67 66
78 79 80 80 80 80 77 77 77 77 77 77 77 76 76 76 75 75 75 74 74 76 74 72 72 74 76 76 76 77 77 78 81 79 74 72 71 69 67 65 64 64 62
77 77 78 79 78 79 78 78 78 77 76 77 78 78 78 77 76 76 76 75 75 74 73 72 72 72 73 78 75 75 74 75 76 85 82 78 75 74 69 65 65 64 62
82 80 78 77 79 79 82 77 78 79 78 77 77 78 78 78 76 76 78 75 75 74 73 73 72 72 71 72 72 73 72 72 74 77 77 77 79 82 79 73 70 69 65
80 81 81 79 77 83 75 73 78 77 79 79 78 77 78 77 76 73 72 73 76 75 73 72 72 71 71 71 72 71 71 71 69 77 76 79 78 77 81 77 73 69 66
81 78 80 80 79 80 72 71 73 82 80 78 79 79 79 85 76 78 73 71 71 70 72 77 73 74 74 73 73 72 72 72 73 79 76 76 76 75 78 80 72 67 64
80 81 80 80 80 81 70 69 71 80 81 81 78 79 80 80 78 77 77 78 76 77 76 75 74 78 77 78 76 78 75 74 76 77 75 71 74 74 76 77 69 67 63
80 81 81 80 79 81 68 67 69 74 79 79 79 80 80 79 73 69 75 74 75 75 74 68 69 69 69 68 71 72 72 75 71 73 75 73 73 73 74 72 72 66 64
82 81 81 81 77 81 68 65 67 80 76 78 78 75 69 75 69 67 77 79 75 77 74 75 75 69 66 69 65 70 76 70 70 71 74 73 73 73 67 69 69 70 67

GFSMA_sfc_temp_060.txt.gz
Temp
73 75 74 72 74 72 72 72 72 72 73 75 76 77 79 76 74 74 73 81 80 81 82 81 81 81 81 81 80 80 80 80 79 79 79 79 79 79 79 79 79 79 78
73 72 73 73 72 72 72 72 74 73 72 77 76 77 75 76 76 74 74 76 80 81 81 81 81 81 81 81 81 80 80 79 79 79 79 79 79 79 79 79 79 78 78
74 72 72 72 72 73 73 73 74 72 72 75 76 78 76 76 77 75 75 74 77 81 81 81 81 81 81 81 81 80 80 79 79 79 79 79 79 79 79 78 78 78 77
75 73 71 72 72 73 74 72 71 72 72 76 75 76 75 76 76 76 75 74 74 77 79 81 81 80 81 81 81 81 80 80 79 79 79 79 79 79 78 78 78 77 77
76 73 72 73 73 72 72 74 73 74 72 72 74 73 75 75 75 79 75 75 74 75 74 79 80 80 81 82 81 81 81 80 79 79 79 79 78 78 78 78 77 77 76
75 73 72 73 73 72 71 73 73 74 77 74 82 78 74 74 74 73 75 77 74 75 74 74 74 75 79 81 81 81 81 80 80 79 79 78 78 78 77 77 77 76 76
74 72 73 73 72 72 72 75 76 73 75 75 71 71 75 77 74 73 74 74 75 76 74 74 72 73 74 79 79 80 81 81 80 80 79 78 77 77 77 77 76 76 76
75 74 73 73 73 73 73 73 73 74 72 71 70 68 66 72 72 75 73 75 73 76 76 76 74 73 72 73 75 79 79 80 81 80 80 78 77 77 76 76 75 76 76
76 76 75 74 73 72 72 73 73 74 70 71 72 72 65 65 66 72 72 72 73 72 74 75 76 75 73 72 76 77 79 77 79 81 80 79 77 77 76 76 75 75 76
77 78 76 75 73 73 72 73 78 72 70 71 71 76 71 70 66 66 71 72 72 74 73 73 76 76 74 73 76 77 77 76 77 79 80 80 78 77 77 77 76 75 75
77 78 77 75 74 74 73 74 74 73 72 71 70 70 70 70 69 67 66 70 71 72 73 73 74 74 75 74 73 74 76 76 76 77 78 79 79 79 79 79 78 77 76
76 76 77 75 74 73 73 74 74 74 72 72 71 70 72 72 69 72 65 66 67 72 73 73 73 74 75 74 78 78 77 75 75 75 76 77 78 79 80 80 80 79 79
73 75 75 74 74 74 74 74 73 74 74 73 73 72 72 72 71 70 68 67 68 70 72 74 74 73 77 74 75 78 77 74 74 72 73 74 75 76 77 79 79 80 80
79 77 77 76 75 76 75 74 73 73 74 73 74 73 72 72 72 72 71 69 67 67 69 73 74 74 74 75 77 77 77 73 73 71 70 71 72 73 74 75 75 76 77
79 77 78 77 76 75 75 74 73 73 74 73 73 73 72 73 72 72 72 71 70 66 67 72 73 76 74 75 77 76 76 76 72 71 70 69 70 71 71 72 73 73 74
77 76 77 77 76 75 75 74 73 74 73 73 74 73 72 72 72 73 73 72 70 70 67 70 73 75 77 81 79 77 77 75 73 71 70 69 69 70 70 71 71 71 71
76 77 78 78 77 76 75 74 73 74 73 73 74 74 74 73 73 72 73 72 71 70 68 71 71 74 75 75 76 76 77 76 75 72 72 70 68 68 69 69 69 70 70
74 76 77 78 78 77 76 74 73 76 73 73 74 74 74 77 74 72 72 73 72 72 70 69 69 72 74 76 76 76 79 82 77 77 71 69 68 68 68 67 66 66 65
73 75 77 78 78 78 76 75 75 74 74 74 75 74 74 74 73 73 73 72 72 74 72 70 70 71 73 74 74 74 76 77 79 77 74 71 70 70 68 65 64 62 60
77 74 76 78 78 78 78 77 76 74 74 74 75 75 75 74 73 74 74 73 73 72 71 70 69 70 71 73 72 72 71 72 73 81 78 75 72 73 71 68 67 65 61
77 77 76 77 78 79 80 78 77 75 74 74 74 75 75 76 74 74 76 74 73 72 71 71 70 70 70 71 71 71 70 71 72 73 75 76 77 79 77 73 74 69 64
76 76 74 77 77 81 74 71 76 76 75 74 74 74 75 74 73 71 70 72 75 73 72 71 71 71 71 70 70 70 69 69 68 75 74 78 76 77 77 76 67 65 63
78 77 77 75 76 78 70 69 71 79 76 76 76 77 75 81 74 76 71 68 68 68 72 74 72 71 71 72 71 70 70 70 70 78 75 75 74 74 76 74 65 63 63
77 78 78 79 78 78 68 67 70 78 78 77 77 77 76 77 75 75 74 74 74 74 72 72 73 77 77 76 73 76 72 72 74 77 74 70 73 74 74 71 63 63 62
77 78 79 77 78 79 66 65 67 76 77 77 78 78 78 77 71 67 75 73 73 74 72 66 67 67 66 65 68 72 72 71 71 70 73 73 72 74 72 70 68 62 61
79 79 79 80 75 79 67 64 66 78 75 76 78 77 68 76 66 64 73 74 72 75 73 73 73 69 64 68 64 69 73 70 70 70 73 73 73 70 66 67 65 64 62

GFSMA_sfc_temp_063.txt.gz
Temp
72 72 71 70 71 71 70 70 71 72 73 74 74 74 74 73 73 72 73 80 80 81 81 81 81 80 80 80 80 80 80 79 79 79 79 79 79 78 78 78 78 78 78
72 72 71 71 71 71 72 71 72 71 71 74 74 74 74 74 73 73 73 75 80 80 81 81 81 81 81 80 80 80 80 79 79 79 79 79 78 78 78 78 78 78 77
72 71 71 71 71 71 72 72 72 71 72 74 73 74 74 74 74 74 73 73 75 80 81 81 81 81 81 81 81 80 79 79 79 79 79 79 78 78 78 78 78 77 77
74 71 71 71 71 72 71 71 70 70 71 72 72 72 72 74 74 74 73 73 73 75 78 81 81 80 80 81 81 81 80 80 79 79 79 79 78 78 78 78 77 77 76
75 72 71 71 72 71 70 72 70 71 70 71 72 72 72 72 73 76 73 73 72 73 72 77 79 79 81 81 81 81 80 80 79 79 79 79 78 78 78 77 77 76 76
73 72 72 72 71 70 70 70 71 71 71 70 78 75 71 72 72 72 73 75 73 73 73 72 72 74 79 80 81 81 81 80 80 79 79 78 78 77 77 77 77 76 76
74 72 72 72 71 71 71 72 71 73 72 71 70 70 71 72 72 72 72 72 73 74 73 72 71 72 72 78 79 79 81 81 81 80 79 78 77 77 77 76 76 76 76
73 73 72 72 71 71 71 72 72 70 70 69 69 67 68 69 70 72 71 73 72 73 74 74 73 72 71 71 74 78 79 80 81 81 80 79 77 77 76 76 75 75 75
75 74 73 72 72 71 71 71 72 72 69 69 69 68 62 63 64 69 70 70 71 70 72 73 74 73 72 71 74 75 78 77 79 80 80 79 78 77 77 76 75 75 75
75 74 75 74 72 71 71 72 74 73 69 69 69 72 68 68 65 65 68 70 70 71 70 70 73 73 73 72 75 76 76 76 77 79 80 80 79 78 78 77 76 75 75
75 76 74 74 72 72 72 72 73 71 70 70 68 68 68 68 67 65 65 68 69 70 71 71 72 72 73 73 72 73 76 75 75 77 78 79 79 79 80 79 78 77 77
73 75 75 74 73 72 72 72 72 72 71 70 69 68 69 71 68 66 64 64 65 70 71 71 71 71 72 72 76 78 77 75 74 74 75 76 78 79 80 81 80 80 79
72 74 74 73 72 73 72 72 72 72 72 71 70 70 70 70 69 68 67 65 66 68 70 71 72 72 74 72 73 77 77 74 73 72 72 73 74 76 76 77 78 79 80
75 75 74 74 74 74 74 72 72 71 73 72 72 72 70 70 70 70 69 68 66 66 67 71 72 72 73 73 74 76 75 74 73 72 71 71 72 73 74 74 75 75 76
77 75 74 74 74 74 73 72 71 72 72 72 72 71 71 70 70 70 69 69 69 64 66 70 71 74 74 72 75 75 75 74 73 72 70 69 69 70 71 72 73 73 73
75 74 74 74 74 74 74 72 71 72 71 71 72 72 71 71 71 71 71 69 68 68 66 68 71 73 75 78 78 77 77 74 73 72 70 70 69 69 70 70 70 71 71
74 74 74 74 73 74 73 72 72 72 72 72 72 72 72 72 71 71 71 71 70 68 67 69 69 72 73 74 75 75 76 75 75 72 70 70 68 68 68 69 68 68 68
73 72 74 74 74 74 73 73 72 74 72 72 72 72 72 75 72 71 71 71 70 70 68 67 68 70 72 74 74 74 77 80 76 77 72 70 68 67 67 67 66 65 64
72 73 73 73 74 75 74 74 73 73 73 73 73 72 73 72 72 72 71 71 71 72 70 69 70 70 71 71 72 73 74 74 77 76 73 73 71 69 68 66 64 62 59
72 72 73 74 74 75 76 75 74 72 72 73 73 73 74 73 72 72 72 72 72 71 70 69 68 68 69 72 71 70 72 71 73 80 77 74 71 71 71 66 66 64 61
73 73 74 74 75 76 77 74 74 74 73 72 72 73 74 74 72 72 74 72 71 70 70 69 69 69 69 70 70 70 69 70 70 72 73 74 75 75 75 69 68 66 62
72 71 73 75 74 78 73 71 75 75 74 73 72 72 73 73 72 69 69 70 73 72 70 70 70 70 70 70 69 69 68 68 67 73 74 77 74 74 74 65 65 63 61
76 74 74 75 75 76 69 69 70 79 76 74 74 74 73 78 72 74 70 68 67 67 70 74 72 71 71 70 70 69 69 68 68 75 74 74 74 72 70 65 63 62 60
75 75 75 75 74 76 68 66 69 76 78 76 75 74 74 75 73 73 73 72 72 72 70 71 71 76 74 75 72 72 71 70 71 75 75 70 72 73 68 64 62 61 59
75 75 76 76 75 76 65 65 66 74 76 76 76 75 75 74 69 66 73 72 72 73 70 65 66 66 65 64 66 70 69 68 69 72 73 73 72 73 71 65 63 60 58
76 76 75 76 74 77 65 63 65 76 75 76 77 74 67 73 65 63 71 73 72 74 72 72 70 66 63 67 63 69 71 70 70 69 73 71 72 71 69 66 63 61 58

GFSMA_sfc_temp_066.txt.gz
Temp
74 74 73 73 73 73 73 73 73 75 75 77 77 77 77 76 77 78 78 80 80 81 81 81 81 80 80 80 80 80 80 79 79 79 79 79 79 79 78 78 79 78 78
73 73 73 73 73 73 74 74 74 73 75 77 76 77 76 77 77 77 78 79 80 80 81 81 81 81 80 80 80 80 80 79 79 79 79 79 79 79 79 79 78 78 77
72 72 73 73 73 74 75 75 75 75 76 77 76 77 77 77 78 77 78 78 79 80 81 81 81 81 80 81 81 80 80 79 79 79 79 79 78 79 79 78 78 77 77
73 72 72 74 74 74 74 74 74 75 74 75 75 76 76 77 77 77 77 78 78 80 79 80 80 80 81 81 81 81 80 80 79 79 79 79 79 78 78 78 77 77 76
75 72 72 74 75 74 73 75 73 75 74 75 76 75 76 76 77 80 77 77 77 78 78 77 78 79 80 81 81 81 81 80 79 79 79 79 78 78 78 77 77 76 76
74 73 74 74 74 74 73 74 74 74 75 75 79 77 76 76 76 77 77 79 78 78 78 77 77 79 77 79 80 80 81 81 80 79 79 78 78 77 77 77 77 76 76
74 73 73 73 73 73 74 75 75 75 75 74 74 74 74 75 76 76 77 78 78 79 78 78 77 78 79 77 78 79 80 81 81 80 79 78 78 77 77 76 76 76 76
74 74 73 73 73 73 74 75 75 74 73 73 72 71 68 72 75 77 76 77 77 78 79 79 78 77 77 78 78 78 79 79 80 81 80 79 78 77 76 76 75 76 76
75 75 75 74 73 72 74 75 75 75 73 72 73 72 69 68 69 75 76 75 75 76 77 78 79 78 78 78 78 78 77 77 79 80 81 80 78 77 77 76 76 75 75
76 76 75 75 74 74 74 75 76 75 73 72 72 75 73 72 71 71 74 75 76 77 77 77 79 79 79 79 78 78 76 76 76 78 80 80 79 79 78 77 77 76 75
76 76 76 76 74 74 74 75 76 75 74 73 73 73 72 72 72 71 71 73 76 77 77 77 78 79 79 79 79 77 76 75 75 76 77 79 79 80 80 80 79 78 77
74 76 77 74 74 74 75 75 76 76 74 74 74 73 73 74 74 72 71 71 72 76 77 78 77 78 79 79 80 78 77 76 75 74 75 76 77 79 80 81 81 80 80
74 75 75 74 73 75 75 75 75 75 75 75 75 75 74 74 74 73 72 72 72 75 76 78 79 78 81 79 79 77 77 74 73 72 72 73 74 75 77 78 79 80 80
76 76 76 76 75 76 75 74 75 75 76 76 76 75 75 76 76 75 74 73 73 73 74 77 79 80 79 79 78 76 81 73 72 72 71 71 71 72 73 74 75 75 76
77 77 75 75 76 76 75 75 75 74 75 76 76 76 76 76 76 76 75 74 74 72 73 77 78 81 81 82 80 83 82 75 72 71 70 70 70 70 71 71 72 72 72
76 76 76 76 75 76 75 75 75 75 75 76 76 75 75 76 76 76 76 75 74 74 73 75 78 79 81 84 82 83 82 74 73 71 71 69 69 70 70 70 70 70 70
75 75 76 76 75 75 76 75 75 75 75 75 75 75 76 76 76 77 76 76 75 74 74 77 76 79 79 80 82 82 83 83 84 73 71 69 68 68 69 69 68 67 68
74 75 75 76 75 75 75 75 75 77 75 75 75 75 76 78 76 76 76 75 76 75 75 73 75 78 78 80 79 79 82 85 83 78 71 69 68 68 67 66 64 64 63
73 75 75 75 75 76 76 76 76 76 76 76 76 76 76 76 76 76 76 76 76 77 75 74 75 76 77 79 79 80 80 80 83 77 73 72 71 69 66 64 62 61 59
73 74 75 75 76 76 76 77 76 76 76 77 77 77 77 77 76 77 77 76 77 76 75 74 74 75 75 78 77 77 79 80 80 85 80 75 72 71 66 64 63 62 59
74 74 74 76 76 77 78 76 77 76 76 76 77 77 77 76 73 74 78 77 75 75 75 74 74 74 75 76 76 77 75 78 79 80 81 84 83 82 75 67 67 64 61
73 72 73 75 75 79 71 70 74 77 76 76 75 76 77 73 73 69 68 69 75 76 75 75 75 74 75 75 77 77 75 75 74 81 79 81 82 80 76 72 64 63 61
73 72 72 73 74 76 68 68 69 78 77 76 76 76 77 80 73 78 71 67 67 67 69 77 75 76 76 78 77 76 75 74 75 81 78 77 81 76 73 72 62 61 60
73 72 73 73 73 75 67 66 68 76 77 77 77 77 77 77 77 77 78 77 78 78 76 75 75 78 79 80 77 79 77 75 76 79 78 75 76 75 72 68 62 61 59
73 74 74 73 73 74 64 64 67 76 76 76 77 77 77 77 70 65 77 76 77 77 72 65 66 66 65 64 69 76 75 73 74 78 77 75 78 74 72 66 67 60 58
75 76 75 74 71 74 64 62 65 77 75 77 77 76 66 75 65 62 74 76 75 77 79 79 77 70 65 70 62 73 77 73 74 71 77 75 75 75 71 69 67 69 69

GFSMA_sfc_temp_069.txt.gz
Temp
84 85 84 86 85 86 86 85 85 85 85 86 87 87 87 87 88 90 90 80 80 81 81 81 81 81 81 80 80 80 80 80 79 80 80 79 79 79 79 79 79 78 78
83 85 84 85 86 88 87 86 85 85 87 88 86 86 87 88 87 87 90 88 80 80 81 81 81 81 81 81 81 81 80 80 80 80 79 79 79 79 79 79 79 78 77
83 78 83 85 86 86 84 86 86 86 88 89 85 87 89 88 89 87 90 91 90 80 81 81 81 81 81 81 81 81 81 80 80 79 79 79 79 79 79 79 78 77 77
83 82 84 81 86 86 87 87 88 87 87 88 87 89 88 89 88 87 89 89 90 91 84 80 80 80 81 81 81 81 81 80 80 80 79 79 79 79 79 78 78 77 77
83 83 84 86 84 86 87 88 86 87 87 88 90 89 89 90 89 92 88 88 89 89 91 82 79 79 80 81 81 81 81 81 80 80 79 79 79 78 78 78 77 77 77
83 83 85 84 86 87 86 87 84 86 88 88 91 90 90 90 90 90 91 92 91 88 89 86 88 90 79 80 80 80 81 81 81 80 80 79 79 78 78 77 77 77 77
83 82 82 84 85 86 86 84 86 84 86 87 87 89 89 88 88 89 91 91 90 90 90 90 88 90 91 79 79 79 80 81 81 81 80 79 79 78 77 77 77 77 77
82 83 83 84 83 86 83 83 84 86 86 86 85 85 83 87 91 92 91 90 89 91 91 90 88 87 88 90 87 79 79 79 80 81 81 80 79 78 77 77 76 77 77
83 83 83 84 83 85 86 84 84 83 85 84 83 85 82 81 84 90 88 91 88 91 91 90 89 89 88 89 86 86 79 77 78 80 81 80 79 79 78 77 77 76 76
84 84 83 83 83 86 84 85 86 85 84 84 85 87 83 83 82 83 89 90 91 92 91 92 93 92 89 91 87 82 77 76 77 79 80 80 80 79 79 78 77 77 76
83 85 84 83 83 85 84 84 84 79 86 87 87 86 84 86 83 84 83 87 91 93 93 93 94 94 91 91 92 87 79 76 76 77 77 79 79 80 80 80 79 78 77
81 84 85 83 83 84 83 85 84 84 85 85 87 86 87 84 86 85 85 84 85 90 92 93 92 93 93 93 89 80 79 76 75 75 75 76 77 78 80 81 81 80 80
86 84 84 83 83 84 83 84 83 84 84 86 84 88 87 86 88 86 86 85 86 89 91 93 92 92 95 93 93 80 81 75 73 72 72 73 74 75 76 77 78 79 80
88 86 85 84 84 84 84 83 85 86 85 86 83 84 88 88 89 88 86 85 86 87 89 85 94 94 93 92 87 78 93 76 72 71 71 71 72 72 73 74 74 75 75
88 86 86 85 84 84 84 83 86 84 84 84 85 84 87 89 89 89 88 87 85 83 86 89 91 92 93 95 87 93 92 76 73 72 70 70 70 71 72 72 72 72 72
85 86 85 86 85 84 84 83 84 84 83 85 87 84 84 88 88 89 89 88 87 86 83 89 91 89 90 93 91 91 92 77 77 73 71 70 69 70 71 71 70 70 70
84 84 84 85 85 84 84 82 83 84 83 84 84 84 83 84 88 88 88 88 87 86 84 89 88 90 87 88 90 91 93 93 94 76 72 69 68 69 69 69 68 68 68
85 84 84 84 85 85 84 83 83 85 83 83 84 83 84 86 83 84 87 84 85 85 85 81 86 88 86 87 87 87 91 95 93 82 72 70 69 68 66 66 65 64 64
84 86 85 83 84 85 84 84 84 84 84 85 85 84 84 84 83 86 85 86 87 86 85 84 84 88 88 89 88 89 88 88 94 81 76 72 70 67 65 63 62 61 59
82 83 84 84 85 85 85 86 85 84 85 85 85 85 85 85 84 84 84 84 85 84 85 84 86 86 87 88 87 87 88 92 90 94 87 78 74 67 65 63 63 61 58
82 83 83 84 85 86 88 85 85 85 84 84 85 85 86 84 77 79 87 85 84 84 86 85 85 86 87 87 86 88 86 88 89 90 91 93 93 91 81 68 68 64 61
81 82 82 82 83 88 76 72 81 86 84 84 84 84 86 77 76 70 69 70 77 82 81 84 86 84 82 84 88 86 86 85 84 93 86 90 93 91 89 87 64 63 61
81 80 81 82 82 84 70 68 70 88 86 85 84 85 86 90 79 86 72 68 68 67 70 82 81 82 82 84 84 82 84 84 84 89 87 86 92 89 87 79 63 62 61
80 80 81 81 81 83 68 66 68 83 86 86 86 85 84 86 86 85 86 86 86 86 82 82 82 84 85 86 85 85 83 82 85 88 88 82 91 87 84 82 62 62 61
80 80 81 81 80 81 65 64 67 83 84 84 86 86 86 85 76 67 83 84 84 85 77 68 68 68 68 66 72 86 84 84 85 88 90 84 89 87 84 82 75 61 59
80 82 81 81 76 81 66 62 66 84 84 85 84 84 69 80 68 63 79 83 82 84 87 87 86 75 68 76 63 78 86 84 85 84 90 85 88 83 82 85 80 76 71

GFSMA_sfc_temp_072.txt.gz
Temp
90 92 90 93 93 95 93 92 92 93 92 93 94 93 94 93 94 97 93 81 81 81 82 82 82 81 81 81 81 81 81 80 80 80 80 80 80 80 80 80 79 79 78
90 91 91 92 93 95 94 93 91 93 94 94 92 93 93 94 92 94 96 89 81 81 81 82 81 81 81 81 81 81 81 81 80 80 80 80 80 79 79 79 79 78 78
89 88 92 93 93 91 90 91 92 93 95 95 91 92 94 93 93 92 97 97 88 81 81 81 81 81 81 81 82 82 81 81 80 80 80 80 80 79 79 79 79 78 78
89 88 92 92 93 93 94 94 95 94 94 94 93 94 94 95 92 92 95 96 95 98 83 82 80 81 81 81 82 82 81 81 81 80 80 80 80 79 79 79 79 78 78
90 90 93 92 90 94 94 95 94 94 92 94 95 95 95 96 95 98 94 95 94 97 97 81 81 80 81 82 82 81 81 81 81 80 80 80 79 79 79 79 78 78 78
89 88 91 89 93 94 93 94 90 94 94 94 97 95 98 98 98 99 98 99 96 96 99 94 95 91 81 81 81 81 81 81 81 81 81 80 79 79 79 78 78 78 78
89 88 91 90 92 92 90 90 91 89 92 93 93 94 95 95 96 99 101 101 97 99 98 99 96 97 94 81 80 80 81 81 81 81 81 80 79 79 79 78 78 78 78
88 89 89 90 90 92 89 89 90 93 93 94 91 92 89 91 96 100 100 100 97 101 101 98 97 95 95 98 91 81 80 80 81 81 81 80 80 79 79 78 77 77 77
89 90 89 92 89 92 92 89 90 88 91 93 89 90 87 86 92 96 94 98 95 100 100 98 98 97 95 97 91 91 81 79 79 80 81 80 80 79 79 78 78 77 77
90 90 89 89 88 93 90 90 92 92 88 90 93 95 90 88 88 87 94 95 97 98 96 101 100 99 97 99 92 85 81 78 77 79 80 80 80 80 80 79 78 77 76
90 91 89 89 88 92 89 90 88 88 92 94 94 94 90 94 89 90 88 92 96 99 99 101 102 103 100 99 100 89 79 78 77 77 78 78 79 79 80 80 80 79 78
90 90 90 88 88 90 89 90 89 88 91 92 94 92 93 89 91 92 91 90 92 95 99 100 100 102 102 101 95 81 80 78 76 75 75 75 77 78 79 80 80 80 80
92 88 87 85 89 87 89 89 87 89 88 91 89 94 95 95 95 94 94 92 93 95 97 100 100 101 102 101 98 81 84 77 74 72 72 73 74 75 76 77 77 78 79
94 92 89 90 90 90 90 89 91 92 91 91 88 89 95 96 97 95 92 91 91 93 93 90 101 102 101 100 89 83 97 77 75 73 71 71 72 73 74 74 74 74 74
95 92 91 90 90 89 89 88 92 88 90 89 90 89 91 96 97 97 96 95 90 89 92 92 96 98 99 102 90 97 97 76 76 74 71 70 70 72 73 73 72 72 72
91 92 90 90 90 89 88 88 90 89 88 91 93 89 88 95 94 95 95 95 94 91 88 97 97 96 95 98 94 96 96 82 80 76 72 71 70 71 72 71 71 70 71
90 90 89 88 89 89 89 87 89 90 87 88 89 89 88 89 93 95 95 95 93 93 89 94 97 97 91 92 93 95 97 98 101 77 73 71 70 70 70 70 69 69 69
90 90 88 89 88 90 90 88 88 91 88 88 88 88 88 92 87 88 93 89 92 92 90 85 91 94 92 92 92 91 96 101 98 81 74 72 70 68 67 66 66 65 65
88 91 90 87 88 88 89 89 89 89 89 89 89 88 88 88 87 91 90 92 93 92 92 90 90 95 95 95 93 94 94 94 101 84 77 72 68 66 65 63 63 61 59
87 88 89 90 89 91 90 89 89 89 90 90 90 90 90 89 88 87 89 88 89 89 90 90 91 93 94 95 94 93 95 98 97 100 91 79 74 66 65 63 63 61 58
88 88 88 89 90 91 94 90 90 89 89 89 90 90 90 88 80 82 91 89 88 89 91 91 91 92 93 94 90 94 93 95 95 98 96 97 94 85 79 66 70 65 62
87 87 87 88 88 93 79 74 83 91 90 89 88 90 90 81 80 72 71 72 78 85 84 88 90 89 87 89 93 92 92 90 88 99 94 94 99 94 96 93 67 64 63
86 85 86 87 87 88 72 69 73 91 91 90 89 89 91 96 84 90 73 69 69 68 70 83 83 85 85 87 87 85 87 87 88 94 92 91 97 93 93 83 64 63 62
84 85 86 86 86 88 71 68 69 87 88 90 91 90 89 91 91 89 90 90 89 89 84 86 85 86 88 89 88 89 87 86 89 93 93 88 96 95 95 92 63 63 62
84 85 86 85 85 86 67 66 70 87 88 87 90 91 91 90 79 69 88 88 88 90 81 71 71 70 67 67 73 89 89 89 90 93 98 95 94 95 94 90 84 62 61
81 85 86 87 80 85 68 63 69 89 87 89 88 88 73 83 71 65 85 86 85 88 91 92 88 79 72 80 66 80 88 87 90 90 97 93 93 95 90 91 91 78 75

GFSMA_sfc_temp_075.txt.gz
Temp
87 90 91 86 89 88 93 92 89 87 92 92 96 96 96 96 98 96 91 81 82 82 82 82 82 82 82 81 82 82 82 81 81 80 80 81 80 80 80 80 79 79 78
91 93 93 86 88 90 88 87 82 86 84 95 89 92 90 94 95 92 92 87 82 82 82 82 82 82 82 82 81 82 81 81 81 80 80 80 80 80 80 79 79 79 78
91 92 91 84 85 92 92 93 92 94 92 93 91 93 95 89 95 91 95 91 87 82 82 83 82 82 81 82 82 82 81 81 81 80 80 80 80 80 80 79 79 79 78
91 89 92 89 94 94 85 87 84 87 90 90 86 87 95 95 94 95 96 96 92 94 83 83 82 82 82 82 82 82 82 81 81 80 80 80 80 80 80 79 79 79 79
91 92 89 92 89 89 92 87 90 87 83 91 94 92 94 94 92 98 95 96 95 97 95 82 82 82 82 82 82 82 82 81 81 81 81 80 80 80 80 79 79 79 79
91 91 93 92 88 90 83 89 85 82 86 86 91 94 93 98 99 98 97 99 96 95 98 94 91 89 81 83 82 82 82 82 81 81 81 80 80 80 80 79 79 79 78
90 89 93 91 90 92 89 92 91 88 92 95 81 93 95 96 96 99 101 101 97 99 98 96 96 96 88 82 82 82 82 82 82 82 81 80 80 80 79 79 78 78 78
90 91 87 91 88 92 90 90 86 86 89 93 87 85 87 92 97 100 99 99 97 100 99 97 96 94 95 97 90 83 82 82 82 82 81 80 80 80 79 79 78 78 78
91 91 90 87 91 90 91 90 91 88 84 93 88 88 82 80 89 96 94 97 95 98 99 97 98 96 95 97 91 89 82 80 81 81 81 80 80 79 79 79 78 78 78
91 92 91 91 90 88 85 91 93 89 88 90 94 95 91 89 79 87 95 95 97 97 97 99 99 98 97 98 92 86 81 79 79 79 80 80 80 79 79 79 79 78 78
92 92 91 91 89 91 92 87 89 89 93 92 92 93 91 95 93 89 88 91 97 99 99 99 101 102 99 100 100 85 81 79 78 78 78 78 79 80 80 80 80 79 79
92 91 91 89 88 86 90 91 90 90 87 90 91 92 88 79 88 93 90 92 92 95 99 100 100 101 101 101 94 83 82 79 77 76 75 76 77 78 79 79 80 80 80
93 89 89 88 89 89 90 90 89 90 89 90 90 86 94 87 93 95 86 93 92 95 97 100 100 101 103 101 97 86 84 79 76 74 73 74 75 76 77 77 78 78 78
80 90 90 89 90 88 90 89 91 91 91 91 90 89 88 90 84 91 92 92 90 93 93 90 100 102 102 102 91 86 91 79 77 74 73 73 73 74 74 75 74 74 75
78 93 91 90 91 91 90 90 90 89 87 90 90 90 90 91 96 97 96 95 90 88 90 92 95 98 100 101 90 98 97 78 79 76 73 73 71 72 73 73 72 72 73
93 80 91 91 91 91 90 89 89 90 89 91 93 89 89 92 96 96 96 96 95 91 88 97 97 97 96 97 94 96 96 83 81 77 73 73 73 72 72 72 72 71 72
91 91 90 91 91 90 90 88 87 91 88 88 89 91 88 89 93 97 97 96 95 94 89 94 98 97 93 93 94 95 95 97 94 75 73 75 72 71 71 71 70 70 69
91 91 91 90 90 90 91 89 88 92 89 88 89 88 89 92 88 88 93 91 91 91 90 85 89 93 92 95 93 92 96 101 100 80 72 73 72 69 67 68 68 66 65
89 91 90 89 89 90 90 90 89 89 91 90 90 89 89 89 87 90 90 91 94 92 91 89 89 95 96 97 94 93 94 95 100 82 71 72 69 67 66 64 64 62 60
89 89 90 91 90 90 91 89 88 87 90 91 91 91 91 90 88 88 88 88 89 89 90 90 90 92 94 96 96 93 94 98 97 101 89 85 74 68 66 64 63 62 59
89 89 89 90 91 92 94 91 91 90 87 89 91 91 92 89 81 82 90 87 88 89 90 90 90 92 93 94 91 93 91 95 95 98 98 98 88 82 77 65 70 66 62
89 89 88 89 89 93 81 74 85 92 90 89 88 90 92 82 81 73 73 73 76 83 85 87 89 88 86 89 92 92 91 88 86 97 93 94 98 98 91 88 75 66 63
88 87 88 88 88 89 75 70 74 92 91 91 89 90 92 97 84 91 74 72 72 69 70 82 82 84 84 87 87 85 85 87 86 92 91 90 96 95 100 79 65 63 62
82 86 87 88 88 89 73 69 70 88 89 89 90 90 89 90 91 89 90 89 86 87 85 86 84 84 86 87 87 88 86 85 88 91 90 86 96 95 98 81 64 63 62
84 84 86 86 86 87 68 68 70 88 88 87 89 89 90 90 80 72 88 88 88 89 82 73 74 74 73 71 74 88 87 88 87 91 97 95 96 95 97 89 76 62 61
85 88 86 87 81 87 71 64 68 89 87 90 87 86 74 82 72 68 86 87 85 87 91 91 88 78 71 79 67 79 86 84 86 88 94 93 94 94 90 97 83 73 72

GFSMA_sfc_temp_078.txt.gz
Temp
83 82 77 84 79 78 76 80 80 86 84 87 89 88 89 89 88 85 81 81 81 82 83 82 82 82 82 81 81 82 81 81 81 80 80 81 80 80 79 79 79 79 78
84 85 79 85 84 78 84 79 81 83 83 86 85 86 86 88 88 84 83 80 81 81 82 83 82 82 82 82 82 82 81 81 81 80 80 80 80 80 79 79 79 79 78
81 77 83 80 83 86 86 81 83 85 84 86 85 86 86 88 87 86 85 84 81 81 82 82 82 82 82 82 82 82 81 81 81 81 80 80 80 80 79 79 79 79 78
81 76 81 81 82 85 83 76 81 76 83 79 82 84 84 87 88 88 86 86 83 85 81 82 82 82 82 82 82 82 82 81 81 81 80 80 80 80 80 79 79 79 79
88 83 81 82 83 82 83 79 81 84 82 82 84 85 85 85 85 92 88 88 87 85 84 81 81 81 82 83 83 82 82 81 81 81 80 80 80 80 80 79 79 79 79
88 85 80 86 86 83 81 83 82 80 76 78 87 88 84 85 85 85 88 91 87 87 86 81 80 81 81 82 83 82 82 82 81 81 81 80 80 80 79 79 79 79 78
87 86 84 87 80 79 79 85 85 82 83 82 82 82 83 87 88 87 88 88 88 90 88 86 84 83 80 81 82 82 82 83 82 81 81 80 80 79 79 79 78 78 78
87 87 81 85 81 81 84 86 83 80 82 83 80 78 74 80 85 89 87 90 89 89 89 89 86 87 85 82 81 81 82 82 82 82 81 80 80 79 79 78 78 78 78
87 85 84 85 82 83 83 85 83 77 80 83 84 80 73 72 78 83 85 85 86 86 85 87 88 87 86 86 85 82 81 81 81 81 81 80 79 79 79 78 78 77 78
85 84 87 86 82 77 75 83 87 82 81 79 82 87 83 81 76 75 81 84 85 89 87 85 87 87 87 86 87 85 82 79 80 80 80 80 79 79 79 79 78 78 77
86 86 85 87 83 76 77 81 85 84 82 80 78 83 82 82 82 79 74 78 82 84 86 86 89 87 88 89 84 82 81 80 79 79 78 78 79 79 80 80 79 79 79
86 84 86 85 83 76 79 81 86 86 83 83 82 82 81 79 78 78 78 79 80 83 85 86 86 88 89 87 90 83 82 80 78 77 76 76 77 78 79 80 79 79 79
85 83 85 84 81 83 81 85 86 84 85 83 83 82 82 81 82 81 80 81 79 82 84 86 88 88 93 88 87 85 83 80 77 75 75 75 75 76 76 77 77 77 77
77 85 85 85 86 85 86 85 84 83 84 84 84 82 83 81 83 83 81 80 78 80 82 84 87 88 88 87 86 86 81 80 77 75 75 73 73 74 74 74 74 74 75
81 82 84 85 85 83 85 83 80 82 83 82 84 83 82 83 84 85 85 83 79 75 77 83 82 89 88 87 84 88 88 81 79 76 76 73 72 73 73 73 73 73 73
75 75 73 81 85 83 83 83 82 80 80 81 84 83 83 82 83 85 84 84 84 80 77 83 84 87 88 90 88 88 88 82 80 77 76 74 73 73 73 73 72 72 71
76 73 72 72 79 85 85 83 81 81 82 82 83 83 82 83 82 83 82 83 83 83 78 81 83 86 86 85 87 87 87 86 83 75 77 74 73 72 72 72 71 70 69
86 78 74 72 80 83 82 83 82 84 81 82 83 82 83 87 83 82 82 81 82 82 80 77 80 81 82 84 85 84 88 94 87 78 74 72 71 70 68 69 68 67 66
85 87 86 85 85 84 84 82 83 83 83 83 84 83 83 83 81 81 81 82 82 83 81 79 78 82 83 85 84 85 84 84 91 81 72 72 70 68 66 65 64 62 60
85 85 85 84 84 85 85 84 82 82 82 84 84 85 84 83 81 81 82 80 82 80 80 79 79 79 80 82 83 81 81 82 83 94 87 81 72 68 66 64 64 62 59
85 85 85 84 84 86 89 85 84 83 80 81 83 84 85 85 80 80 84 81 80 80 80 79 79 79 79 80 80 82 80 80 81 82 81 81 74 71 68 65 68 66 62
84 83 84 84 84 90 80 75 82 85 83 82 81 83 85 81 79 74 73 74 77 79 77 78 79 78 77 79 80 79 78 76 74 82 80 80 82 79 78 72 71 66 63
83 82 83 84 83 84 74 70 72 86 85 83 82 82 85 91 80 84 73 72 72 69 72 77 76 77 77 78 79 78 78 77 77 80 79 78 81 80 83 81 69 65 62
80 80 81 83 83 85 72 70 69 80 83 83 84 82 83 83 84 83 84 81 80 81 78 77 76 78 79 80 79 80 78 78 80 83 82 77 82 82 80 74 66 64 62
77 78 79 81 82 83 69 67 70 81 82 82 84 84 83 83 76 72 81 81 82 83 77 71 72 72 72 71 73 78 77 76 76 79 80 77 78 79 81 72 67 63 61
74 76 78 80 77 81 70 65 67 81 81 83 82 82 73 78 71 65 78 81 79 81 83 84 78 73 69 73 67 75 80 77 77 76 81 78 78 78 76 78 72 66 63

GFSMA_sfc_temp_081.txt.gz
Temp
72 73 72 73 74 72 72 74 74 77 81 81 82 85 83 80 78 77 74 81 81 81 82 82 81 81 81 81 81 81 81 81 80 80 80 80 79 79 79 79 78 78 78
74 74 72 75 76 73 73 74 77 76 78 80 81 82 81 82 79 77 76 76 81 81 82 82 82 81 81 81 81 81 81 80 80 80 80 79 79 79 79 79 79 78 78
75 74 76 76 74 75 76 74 76 78 78 80 80 81 81 81 81 79 78 75 77 81 81 82 81 81 81 81 81 81 81 80 80 80 80 79 79 79 79 79 79 78 78
76 73 77 76 76 78 74 72 77 72 76 76 77 78 79 81 82 80 79 78 76 80 80 81 81 81 81 81 82 81 81 80 80 80 80 80 80 80 79 79 79 79 78
78 74 78 76 78 79 76 75 75 76 74 76 78 78 78 79 81 85 81 80 78 78 76 79 80 80 82 83 82 82 81 81 80 80 80 80 79 79 79 79 79 78 78
81 76 76 78 75 75 74 74 75 77 75 78 81 82 79 79 79 79 81 83 80 79 78 77 76 77 80 82 82 82 82 81 81 80 80 79 79 79 79 79 78 78 78
80 77 76 74 73 74 75 78 77 76 79 76 76 75 78 81 78 78 80 81 81 82 79 77 76 76 78 80 80 81 82 82 82 81 81 79 79 79 79 78 78 78 78
79 79 74 75 79 75 75 77 77 74 75 76 74 72 72 76 78 80 79 82 80 82 82 82 79 79 78 77 77 80 81 81 82 82 81 80 79 78 78 78 77 77 77
80 79 78 76 77 74 74 76 77 75 73 75 78 74 70 71 70 75 78 79 80 79 80 82 82 82 81 78 80 80 80 79 81 81 81 80 79 78 78 78 77 77 77
80 81 79 76 75 74 73 75 80 76 74 72 74 81 76 76 69 70 75 77 79 81 79 79 81 82 83 81 83 81 80 78 79 80 80 80 79 79 79 79 78 78 77
80 81 80 78 75 75 77 75 77 76 75 74 72 77 76 76 75 72 69 73 76 78 79 80 80 81 83 82 80 79 80 79 78 79 78 78 79 80 81 80 79 79 78
79 82 82 76 75 75 76 75 77 77 76 76 75 74 76 72 70 72 70 70 73 77 78 80 80 81 80 81 85 82 79 78 78 77 76 76 77 78 80 79 79 79 79
75 76 77 76 75 76 76 76 76 76 77 75 76 75 75 74 76 75 72 72 72 74 78 79 82 82 84 81 83 83 80 79 78 76 74 74 75 76 77 77 77 77 78
74 77 77 77 77 78 77 76 76 76 76 75 75 76 75 75 78 76 75 76 76 72 74 78 80 81 81 82 82 82 82 77 78 76 74 73 73 73 74 74 74 74 75
77 74 75 77 77 77 78 76 74 75 75 76 74 76 75 76 77 77 77 77 76 69 70 77 76 80 80 81 82 83 82 80 75 77 75 73 72 72 73 73 72 72 72
73 74 75 75 76 77 79 76 75 76 75 79 77 75 76 76 77 76 76 76 76 74 72 79 81 80 83 86 84 83 83 79 77 74 75 73 72 72 72 72 72 71 71
71 72 73 73 73 76 77 76 75 76 75 74 76 76 76 77 77 76 76 75 76 75 74 76 78 80 80 79 81 81 83 82 81 76 73 74 72 71 71 71 70 70 69
72 71 71 70 72 75 76 75 75 78 76 75 76 75 76 81 76 76 75 75 74 74 74 72 73 75 76 79 79 79 83 88 83 81 72 72 70 69 68 68 67 67 66
72 72 72 72 74 75 75 76 76 76 76 76 76 75 76 76 75 74 74 75 75 77 75 72 73 75 76 78 78 79 80 80 85 83 72 70 69 68 67 65 64 63 61
77 76 77 76 76 77 78 77 77 76 76 77 77 77 77 77 76 75 75 74 74 74 73 72 72 73 74 78 76 76 77 77 78 86 80 73 70 68 67 65 64 63 60
78 78 78 77 78 79 82 78 77 77 75 76 76 78 78 78 77 76 78 75 74 72 72 71 70 71 72 74 74 75 74 74 76 77 75 77 71 69 67 66 67 66 61
77 77 76 77 77 83 77 74 77 77 77 76 75 75 78 78 76 73 73 74 76 74 72 71 71 71 72 73 74 73 72 70 69 75 74 78 75 74 73 68 68 65 62
75 76 76 77 75 77 72 70 71 80 78 78 76 77 78 85 77 79 72 71 71 70 73 74 71 71 70 71 71 70 70 70 70 75 73 75 77 76 80 75 66 65 63
70 74 74 75 75 77 70 70 69 73 75 76 78 78 78 79 78 77 77 76 76 77 72 73 73 77 74 78 73 75 72 72 72 74 75 72 77 75 82 75 66 65 63
69 70 73 74 74 75 68 65 66 71 74 75 77 76 77 77 74 69 75 75 75 76 74 68 70 70 70 69 72 72 71 69 72 75 72 72 78 71 74 72 68 64 63
67 68 70 71 71 74 68 63 64 71 69 75 75 76 69 74 68 66 74 77 74 77 75 78 72 71 68 70 66 72 77 71 72 72 77 72 73 70 70 72 65 62 60

GFSMA_sfc_temp_084.txt.gz
Temp
71 72 72 73 73 71 71 72 72 75 76 81 80 80 78 76 74 74 72 81 80 81 81 81 81 81 81 80 80 80 80 80 80 79 79 79 79 78 78 78 78 77 77
71 71 71 72 73 71 72 72 74 74 74 78 80 79 77 76 76 74 74 75 80 80 81 81 81 81 81 81 81 81 80 80 80 80 79 79 79 78 78 78 78 78 77
72 71 72 73 71 72 74 72 74 75 75 77 77 78 77 76 76 75 75 73 76 81 81 81 81 81 81 81 81 81 80 80 80 80 79 79 79 79 79 79 78 78 78
74 73 73 73 73 74 72 72 73 72 74 74 75 76 76 77 76 76 75 75 74 77 79 81 81 80 81 81 81 81 81 80 80 80 80 80 80 80 79 79 79 78 78
75 72 73 73 75 74 73 73 74 73 73 74 76 76 76 76 77 81 77 76 74 75 74 78 80 80 81 82 82 82 81 81 80 80 80 79 79 79 79 79 78 78 78
78 73 73 76 76 73 73 73 74 73 72 74 79 79 76 76 76 75 76 79 75 76 75 75 75 76 80 81 81 81 82 81 81 80 80 79 79 79 79 78 78 78 78
78 73 73 74 73 72 73 72 73 74 75 73 73 73 74 75 76 76 76 76 76 78 76 75 74 75 76 80 80 80 82 82 81 81 81 80 79 78 78 78 77 78 78
76 76 74 74 73 73 74 74 74 72 72 73 71 69 68 73 74 76 76 78 76 77 78 78 76 76 76 76 77 80 80 81 81 82 81 80 79 78 78 77 77 77 77
77 74 76 76 75 73 73 73 73 73 71 72 76 71 67 66 67 72 74 75 76 75 77 78 79 78 77 76 78 79 80 78 80 81 81 80 79 78 78 78 77 77 77
77 77 76 74 74 72 73 74 77 74 72 71 71 77 73 71 68 69 72 74 75 77 76 76 79 80 80 78 81 80 78 77 78 80 81 80 79 79 79 79 78 77 77
76 78 76 74 73 72 73 74 76 73 73 72 71 71 72 73 71 69 67 72 74 75 76 76 77 79 80 80 78 79 79 78 77 78 79 79 79 80 80 80 79 78 78
75 78 77 74 74 74 75 74 74 74 73 73 73 72 72 71 68 70 67 68 69 75 75 76 76 78 78 79 82 81 78 77 76 76 76 76 77 78 79 79 79 79 78
73 74 74 74 73 74 74 74 74 74 74 73 73 73 72 72 72 71 69 68 69 70 74 76 78 77 81 78 80 80 80 76 75 74 74 74 75 76 76 77 77 78 78
73 75 75 75 75 76 75 74 73 74 74 73 73 72 73 74 73 73 72 70 69 69 71 76 77 78 78 78 80 80 80 76 74 73 73 72 73 74 74 74 74 75 75
75 75 76 75 75 75 75 74 72 73 73 73 73 73 73 73 74 74 74 73 72 67 69 75 74 77 78 79 81 81 81 78 75 73 72 71 71 72 72 72 72 72 72
75 73 74 75 75 75 75 74 73 73 72 73 73 72 73 74 75 74 74 73 72 71 69 72 76 77 80 83 82 81 81 76 76 73 72 70 70 71 72 71 71 71 71
72 73 72 73 73 74 75 74 72 73 74 72 72 73 74 74 74 74 73 73 73 72 70 74 74 77 78 77 79 78 79 80 80 75 73 71 69 69 70 70 69 70 70
72 72 72 71 72 73 73 73 73 76 74 73 74 72 73 78 74 74 73 72 72 72 71 69 71 74 75 76 76 76 81 85 81 79 72 69 68 68 67 67 67 66 66
72 72 71 71 70 72 72 74 74 74 74 74 74 73 73 73 72 73 72 72 72 74 72 71 71 72 74 74 76 76 76 77 82 79 76 68 68 67 66 65 64 63 61
72 71 71 71 72 73 74 74 75 74 74 75 75 74 74 74 73 73 73 72 72 71 70 70 69 70 71 73 73 73 74 74 76 84 75 71 70 68 67 64 64 63 60
73 72 72 73 74 75 78 75 75 74 73 74 74 75 75 76 74 74 75 73 71 71 70 69 69 69 70 71 71 73 71 71 72 73 73 72 70 69 68 66 67 67 63
72 73 73 74 75 79 73 71 75 74 73 74 73 74 75 75 74 71 70 71 74 72 71 69 69 69 70 71 71 71 69 67 66 72 71 71 72 72 72 69 68 66 63
69 71 72 72 73 74 70 69 70 74 73 74 74 74 75 81 75 77 72 69 68 68 72 73 70 70 69 70 70 68 67 67 68 73 71 72 72 74 76 75 67 65 63
68 68 70 71 72 73 67 66 67 70 73 74 75 75 75 76 76 75 76 74 74 74 73 73 74 78 74 78 72 74 71 69 70 71 72 70 73 73 78 73 68 65 63
64 66 67 69 69 71 64 62 64 69 69 72 75 75 76 76 72 66 75 75 75 76 73 66 68 68 67 67 70 69 68 68 68 71 69 69 74 69 70 72 72 63 61
64 65 66 67 66 69 65 62 63 69 69 70 71 73 67 74 66 64 71 75 73 76 76 77 74 67 65 69 64 72 74 68 67 70 71 69 67 69 69 70 68 65 60

GFSMA_sfc_temp_087.txt.gz
Temp
70 71 71 71 72 70 70 71 71 73 77 75 76 76 75 74 73 73 72 80 80 80 81 81 80 80 80 80 80 80 80 80 80 79 79 79 79 78 78 78 78 77 77
70 71 71 71 71 71 70 70 72 72 73 74 74 75 75 74 74 73 72 73 80 80 81 81 81 81 81 81 80 80 80 80 80 80 79 79 79 79 79 78 78 78 77
72 71 71 71 70 71 73 71 73 73 73 75 75 75 75 74 74 73 73 72 73 80 80 81 81 81 81 81 81 81 80 80 80 80 79 79 79 79 79 79 79 78 78
73 71 72 72 72 72 70 71 71 71 72 72 72 73 74 74 74 74 74 73 73 75 77 81 80 80 81 81 81 81 81 80 80 80 80 80 80 80 79 79 79 78 78
74 72 72 73 73 72 70 71 72 72 71 73 75 74 73 74 74 78 75 74 73 74 73 77 79 79 81 82 82 82 81 81 80 80 80 79 79 79 79 79 79 78 78
75 72 72 73 73 72 72 71 71 72 71 72 77 77 73 74 74 73 74 77 74 75 74 74 73 75 79 81 81 81 82 81 81 80 80 79 79 79 78 78 78 78 78
74 73 72 72 72 71 72 72 71 72 72 71 71 72 71 73 74 74 74 74 75 76 75 74 73 73 74 78 79 80 82 82 82 81 80 79 79 78 78 77 77 77 78
75 75 73 73 71 72 73 73 72 71 70 71 70 66 66 71 72 73 73 75 74 75 77 77 75 75 74 74 76 80 80 80 81 82 81 80 79 78 78 77 77 77 77
75 75 74 73 72 72 72 72 71 71 70 71 71 70 65 64 65 71 72 72 74 73 74 76 77 77 76 75 77 78 79 78 80 81 81 80 79 78 78 78 77 77 77
75 75 75 74 73 71 71 73 75 72 70 71 70 74 70 69 66 68 71 71 73 75 74 74 76 77 78 77 80 80 78 77 78 80 81 80 79 79 79 79 78 77 77
75 76 75 73 72 71 71 73 73 73 71 71 70 69 70 70 68 67 66 70 71 73 74 74 75 75 77 78 77 78 78 77 77 77 79 79 79 80 80 80 79 78 78
72 74 75 73 72 72 72 73 73 73 72 72 71 71 70 70 68 68 65 66 67 72 73 75 74 75 76 76 81 80 79 77 75 75 75 77 78 78 79 79 79 79 78
71 73 73 72 72 73 74 72 73 73 72 71 72 71 71 71 70 69 67 66 66 69 73 74 75 76 79 76 78 79 79 76 74 73 73 74 75 76 77 77 77 78 78
72 73 73 73 73 74 73 73 72 72 73 72 72 71 71 75 72 71 70 68 68 68 69 73 75 76 76 77 78 78 79 75 74 72 71 71 72 73 75 75 75 75 75
74 73 73 74 73 74 74 73 71 72 72 71 71 71 71 75 76 72 71 70 69 66 68 73 72 76 77 77 79 79 78 76 74 73 71 70 70 71 73 73 73 73 73
71 73 73 74 73 73 73 72 72 71 71 71 71 71 71 73 76 76 72 72 70 69 67 70 74 76 78 80 80 78 80 75 74 73 71 70 69 70 71 72 72 71 72
71 73 72 73 73 73 73 72 72 72 71 71 71 71 72 72 72 75 75 72 71 70 69 72 72 74 75 76 78 77 77 77 78 74 71 70 68 69 69 69 69 69 70
71 70 72 71 71 71 72 72 72 74 72 71 72 70 72 75 72 72 72 74 71 71 70 69 70 72 74 75 76 75 78 81 79 77 71 70 68 67 67 67 66 66 66
70 70 71 70 70 71 71 72 72 72 72 72 72 71 72 71 70 71 71 71 70 72 70 69 69 70 72 72 74 75 75 76 80 78 75 71 68 67 66 65 64 63 61
71 70 70 70 70 71 73 72 73 72 72 73 73 72 71 72 71 71 71 71 70 69 69 69 68 68 69 72 71 71 72 72 74 81 74 71 70 69 67 65 64 64 60
70 72 71 70 71 72 75 72 73 73 71 72 73 73 73 73 72 72 73 72 70 69 68 68 67 68 68 68 69 70 69 70 69 70 70 71 70 70 70 68 69 68 64
68 68 70 71 71 75 71 69 73 73 72 72 72 73 74 73 73 69 68 69 72 71 69 68 68 68 68 68 69 69 68 66 65 69 69 71 70 70 71 70 69 67 65
67 67 68 70 71 71 67 66 69 73 72 72 71 72 73 79 73 75 72 69 68 67 68 73 70 70 69 70 69 68 66 66 65 69 69 69 70 71 74 73 67 66 64
64 64 65 66 68 70 64 62 64 68 70 71 72 73 72 74 73 73 74 73 73 74 72 70 72 76 74 76 71 72 69 67 67 68 71 67 70 70 74 73 67 66 63
62 63 64 65 66 66 62 61 63 68 68 69 70 71 73 73 69 65 69 72 74 75 73 65 67 67 66 65 68 68 67 66 70 69 69 68 68 68 67 71 71 64 61
62 63 64 65 64 65 62 60 61 67 68 68 70 70 65 69 66 62 68 72 72 74 76 75 73 67 64 68 64 69 74 68 70 69 70 68 66 67 67 69 68 69 68

GFSMA_sfc_temp_090.txt.gz
Temp
72 73 73 73 74 73 73 73 73 75 76 77 78 78 78 77 77 77 77 79 79 80 81 81 81 81 80 80 80 80 80 80 80 80 80 80 79 79 78 78 78 78 77
72 73 72 73 74 73 73 73 74 75 75 76 76 78 78 78 77 77 78 77 79 80 80 81 81 81 81 81 81 81 81 80 80 80 80 80 79 79 79 79 79 78 78
73 73 73 74 73 74 75 73 75 76 76 78 77 78 78 78 78 77 77 78 78 78 80 81 81 81 81 81 81 82 81 80 80 80 80 80 80 79 79 79 79 79 78
75 74 74 75 75 75 72 73 75 74 75 76 76 77 78 78 78 78 78 78 78 79 78 79 80 80 81 81 82 82 81 80 80 80 80 80 80 79 79 79 79 79 78
76 74 74 75 75 75 73 74 75 75 75 76 77 77 77 77 78 81 78 78 78 79 79 78 78 79 81 82 82 82 81 81 80 80 80 80 80 79 79 79 79 78 78
76 75 75 76 76 75 75 75 74 75 75 75 79 79 77 77 78 77 79 81 79 79 80 78 79 80 78 80 80 81 82 81 81 80 80 80 79 79 78 78 78 78 78
76 75 75 75 75 75 75 76 75 74 76 75 75 75 75 77 78 78 79 79 80 81 80 80 79 80 80 78 79 80 81 82 81 81 80 80 79 78 78 78 77 77 77
76 76 74 75 75 75 76 76 75 74 74 75 74 71 70 74 77 79 77 79 79 80 82 82 81 80 80 81 81 80 80 80 81 81 81 80 79 78 78 78 77 77 77
76 77 75 75 75 75 75 76 75 74 74 74 74 74 71 70 70 76 78 78 78 79 80 80 81 82 81 82 81 81 79 77 79 82 82 80 79 79 79 78 77 77 77
77 77 76 75 75 74 75 76 77 75 74 74 74 76 74 74 72 71 76 77 77 80 80 80 82 82 82 82 82 80 77 77 78 81 81 81 80 79 79 79 78 77 77
77 77 76 75 75 74 75 77 76 76 75 75 74 74 72 74 73 72 72 74 77 79 80 80 81 81 82 82 82 81 78 77 77 78 79 79 79 80 80 80 79 78 78
75 76 77 75 74 74 75 76 76 77 75 75 75 74 73 75 73 73 72 73 73 77 79 80 80 81 82 82 83 79 78 77 75 75 75 76 78 79 80 80 79 79 79
73 75 76 74 74 75 75 75 76 77 76 76 75 75 74 76 75 74 73 73 73 75 78 80 81 80 85 82 84 79 79 75 74 73 73 73 75 76 78 78 78 78 79
74 76 76 76 75 76 76 75 76 77 76 76 77 76 76 77 77 76 75 74 74 74 76 78 81 81 82 83 82 78 85 75 74 72 71 71 71 73 75 75 75 76 76
75 75 75 75 75 76 76 75 75 75 76 76 76 76 76 77 78 77 77 76 75 73 75 79 79 82 84 85 83 86 84 77 73 72 70 69 70 71 72 74 73 73 73
74 74 75 75 74 75 75 74 74 75 75 75 76 76 75 77 78 78 77 77 76 75 75 77 80 82 83 86 84 83 83 75 74 72 70 69 70 70 71 71 71 72 72
73 72 73 75 74 74 75 74 74 75 74 74 75 75 76 76 77 78 75 77 77 77 76 78 78 80 81 81 83 83 84 85 85 72 71 70 69 68 69 69 69 69 70
73 72 73 74 74 75 75 75 74 75 74 74 75 74 75 78 76 76 77 77 77 77 77 75 77 79 79 81 80 80 84 87 85 79 72 70 69 68 67 66 66 66 66
73 72 72 71 72 73 73 74 75 74 74 74 75 75 75 75 75 76 75 76 76 77 76 75 76 77 78 79 79 81 81 81 85 78 75 72 70 69 66 65 64 62 61
73 73 73 72 72 73 73 74 75 74 74 74 74 75 75 75 75 76 76 75 76 75 75 74 75 75 76 78 77 77 79 80 80 86 79 73 70 70 69 66 65 64 60
70 72 73 73 73 73 76 73 74 74 75 75 75 76 76 75 72 73 77 75 74 74 75 74 73 73 75 76 76 78 77 78 78 78 78 82 82 82 82 73 73 70 65
69 70 70 72 72 74 68 68 72 75 75 75 74 76 77 72 73 69 68 69 73 75 74 74 75 74 75 74 77 77 75 74 75 79 78 79 80 81 82 83 72 67 66
66 67 68 69 69 71 64 63 65 71 74 75 75 75 77 81 74 77 69 67 67 67 70 77 75 76 75 78 76 75 74 73 75 79 76 78 81 80 83 87 69 67 65
65 65 66 67 68 69 62 61 63 69 71 74 75 76 76 77 77 76 77 77 77 78 75 75 75 77 78 79 77 79 77 75 75 76 76 73 82 80 83 83 69 65 63
62 63 65 65 66 66 57 58 60 68 71 72 73 74 75 75 69 64 73 74 75 77 74 65 66 66 66 64 69 77 75 73 76 79 77 77 81 78 80 81 82 67 63
61 63 64 62 62 63 56 56 60 63 65 68 72 73 65 68 63 60 70 73 73 75 77 78 79 73 66 71 63 72 77 74 76 75 81 76 78 77 78 82 81 81 83

GFSMA_sfc_temp_093.txt.gz
Temp
83 84 84 86 85 87 87 86 87 87 86 88 89 88 89 88 89 91 91 79 80 80 81 81 81 81 81 81 81 81 81 81 81 81 81 80 80 80 79 79 79 79 78
84 85 85 86 86 87 88 86 86 87 87 90 87 88 89 91 88 88 91 90 79 80 80 81 81 81 82 82 82 82 82 81 81 81 81 80 80 80 80 80 80 79 79
83 83 86 85 86 86 85 87 88 88 90 91 88 90 91 90 91 89 91 92 91 79 80 81 81 81 81 82 82 82 82 81 81 81 81 80 80 80 80 80 80 80 79
84 84 87 86 86 86 88 88 88 89 89 91 90 91 91 91 90 89 91 91 91 93 85 80 80 80 81 82 82 82 82 81 81 81 81 81 81 80 80 80 80 79 79
84 86 87 86 86 87 87 89 88 88 88 90 91 91 91 91 91 94 90 90 91 91 92 84 79 80 81 82 82 82 82 81 81 81 81 80 80 80 80 79 79 79 79
85 86 87 86 87 88 88 88 85 88 87 87 91 92 91 92 92 92 93 94 93 91 93 88 91 92 80 80 81 81 82 82 81 81 81 80 80 79 79 79 79 78 79
84 85 87 85 87 87 86 86 88 85 89 88 88 91 91 92 92 93 94 95 93 95 93 93 92 94 94 82 80 80 81 82 82 82 81 80 80 79 79 78 78 78 78
84 86 84 85 85 87 84 84 84 88 88 86 85 86 85 89 93 94 93 94 93 96 96 94 92 91 92 94 90 81 81 81 82 82 82 81 80 79 79 78 78 78 78
85 84 85 86 85 86 88 85 85 84 86 86 83 85 84 82 85 92 91 94 91 95 95 94 94 93 92 94 91 90 81 78 81 83 82 81 80 79 79 79 78 78 78
85 85 84 85 84 87 84 86 88 86 86 84 87 87 84 83 84 85 92 93 93 96 94 96 97 96 93 96 90 83 78 78 79 81 82 81 81 80 80 79 78 78 78
85 86 84 84 83 87 85 85 84 84 87 86 86 87 84 87 84 85 85 89 94 95 96 96 96 97 95 95 96 89 79 78 77 78 79 80 80 81 81 80 80 79 79
86 84 85 84 83 84 84 86 84 84 85 85 87 86 86 86 85 86 86 86 86 92 94 96 95 96 97 97 93 80 79 77 76 76 76 77 78 80 81 81 80 80 80
83 84 84 83 85 83 84 84 83 83 85 86 84 87 88 88 88 87 86 87 87 91 93 95 94 94 99 97 96 81 83 76 75 73 73 74 75 77 79 79 79 79 80
82 85 84 85 84 84 84 84 86 88 86 87 84 85 89 89 89 88 87 86 86 88 90 86 95 95 95 95 89 80 95 78 74 72 71 71 72 73 75 77 77 77 77
86 84 85 85 84 84 84 83 86 84 84 85 85 85 88 90 90 90 89 88 86 84 87 90 92 93 95 97 89 94 93 78 73 72 71 70 71 72 73 74 75 75 75
82 82 83 84 83 84 84 82 84 84 83 86 87 84 84 89 89 90 90 90 89 87 85 91 93 92 92 96 92 93 93 78 74 73 71 71 71 72 71 72 72 73 73
81 81 81 82 83 82 83 80 81 83 82 83 83 83 84 84 89 90 89 88 88 88 85 90 90 92 88 89 91 92 94 93 95 74 72 71 70 70 70 71 70 70 70
81 81 81 82 81 84 82 82 82 84 82 82 83 82 83 87 83 84 88 84 86 86 85 81 87 89 87 88 87 87 92 97 95 84 73 71 70 69 68 68 66 66 66
81 81 80 80 81 81 81 82 82 82 83 84 84 83 84 83 82 86 84 86 88 86 86 84 85 88 88 89 88 89 88 89 95 82 77 75 72 70 68 67 65 63 61
81 81 82 81 80 81 82 82 82 82 82 83 84 83 83 84 83 83 84 83 85 84 85 84 85 86 87 88 87 86 87 91 90 94 86 79 73 72 71 68 67 67 62
79 81 81 81 81 81 81 80 81 82 82 82 85 85 85 81 75 77 85 83 83 81 85 85 85 86 86 87 86 88 86 88 89 90 90 93 94 94 93 82 81 72 67
75 77 78 76 77 77 64 65 72 81 82 82 82 82 84 75 76 69 68 69 75 81 80 83 85 84 81 84 87 86 86 85 83 94 85 89 94 92 94 96 76 71 66
74 73 74 76 75 75 61 61 65 80 81 81 81 82 83 90 80 84 72 68 68 66 69 79 80 81 81 83 82 81 83 84 83 89 88 86 92 91 94 97 73 68 65
71 72 73 74 71 68 59 59 62 78 79 80 81 81 81 82 82 81 83 83 84 84 81 83 81 83 85 86 83 84 82 81 84 88 88 81 91 90 93 94 75 69 65
70 71 71 71 66 63 57 58 68 75 76 76 77 79 78 79 62 61 77 81 82 84 79 67 67 67 66 65 69 83 84 84 84 88 91 85 87 89 89 90 92 72 66
69 71 69 67 60 60 56 56 63 73 70 73 73 70 62 62 58 57 69 75 76 81 81 83 84 79 71 78 64 76 84 83 84 84 90 85 87 88 84 92 93 92 93

GFSMA_sfc_temp_096.txt.gz
Temp
90 92 91 94 94 96 95 94 94 93 93 95 95 94 95 95 95 97 95 81 80 80 81 81 82 82 82 82 82 82 82 82 81 81 81 81 81 81 80 80 80 80 79
91 92 92 94 95 97 95 95 93 95 96 97 94 94 95 96 94 95 98 90 81 81 81 81 82 82 82 82 82 82 82 82 81 81 81 81 81 81 80 80 80 80 80
89 91 93 94 94 93 93 93 95 95 97 97 93 95 97 95 96 94 98 99 90 81 81 81 81 82 82 82 83 83 82 82 82 81 81 81 81 81 80 80 80 80 80
90 91 93 94 94 96 97 95 96 95 96 97 95 97 97 98 95 95 97 99 98 100 83 82 81 81 82 83 83 83 82 82 81 81 81 81 81 81 81 80 80 80 80
90 93 95 93 93 96 96 98 95 95 95 97 98 98 98 98 97 100 95 97 96 100 99 83 81 81 82 83 83 83 82 82 81 81 81 81 81 81 80 80 80 79 79
90 93 93 92 95 97 95 95 91 95 95 95 99 98 99 100 99 99 99 101 98 97 101 97 99 93 82 82 82 82 82 82 82 82 82 81 80 80 80 79 79 79 79
90 90 94 92 94 93 91 92 95 91 95 96 95 96 96 98 98 100 102 103 98 102 100 100 102 100 97 84 82 82 82 83 83 83 82 81 80 80 79 79 79 79 79
90 91 90 92 92 92 90 90 89 95 96 94 92 93 90 93 99 101 101 102 99 103 102 100 100 98 99 101 92 83 83 81 83 84 83 82 81 80 80 79 79 79 79
91 90 90 93 90 92 93 92 92 89 93 93 91 92 89 88 94 99 97 100 97 101 102 101 101 101 99 101 97 91 82 79 82 84 84 83 81 81 80 79 79 79 79
91 91 90 90 89 94 91 91 94 92 90 91 95 95 91 89 90 90 97 98 99 100 99 104 105 102 101 104 92 86 80 79 80 82 82 82 82 81 81 80 79 79 79
90 92 90 89 89 93 90 91 90 90 94 93 94 95 91 95 92 92 91 94 99 102 104 104 104 105 102 102 104 86 81 79 79 79 80 80 81 82 82 81 80 80 80
91 90 90 89 89 91 89 91 90 89 90 91 94 94 94 92 92 94 93 92 94 97 103 104 103 104 104 104 95 82 83 79 77 76 76 77 79 80 82 82 81 81 81
89 88 88 87 90 88 90 91 88 89 90 92 88 95 96 95 95 94 95 93 94 98 100 102 104 104 105 103 100 85 86 78 76 74 73 74 75 77 79 81 81 81 81
90 91 89 90 90 90 90 89 91 92 91 91 89 89 95 97 97 95 93 92 92 94 95 91 102 104 103 101 90 84 99 77 74 73 72 72 73 74 76 78 79 79 79
93 90 90 89 90 90 89 89 92 89 90 89 90 89 91 97 98 98 96 95 91 89 93 94 97 98 101 104 92 99 98 79 75 73 72 72 72 73 74 75 76 76 76
88 88 89 90 89 89 88 86 90 89 88 91 93 90 88 95 94 96 96 96 95 92 89 97 98 97 97 99 95 97 97 83 78 76 72 72 72 73 73 74 74 74 74
87 85 86 88 88 87 88 86 86 88 87 88 89 88 87 89 92 96 96 95 94 94 90 95 98 98 92 93 94 95 97 97 101 77 74 74 72 72 72 72 72 71 71
86 86 87 86 86 89 88 87 86 89 86 87 88 88 87 92 88 88 93 90 92 91 90 85 91 93 92 92 93 91 96 101 99 84 78 75 72 71 70 69 69 68 67
86 89 88 85 87 88 87 86 87 87 88 88 88 88 87 88 86 90 90 91 93 93 92 90 90 94 95 95 93 93 93 94 100 84 79 73 75 73 70 67 66 65 62
86 88 88 88 88 88 88 88 88 87 87 88 89 89 88 88 87 86 88 87 89 88 90 89 90 92 94 95 94 93 94 97 97 100 91 84 81 79 73 70 68 68 63
87 86 87 88 88 89 91 86 87 87 86 86 88 89 90 86 78 79 89 88 86 87 90 90 90 92 92 93 90 93 92 94 94 98 98 97 99 100 99 78 80 72 69
82 84 84 85 86 90 63 65 74 87 87 86 86 87 88 81 79 71 70 70 75 80 83 86 88 88 86 88 92 91 91 89 87 98 93 94 99 97 100 102 77 72 69
80 80 82 82 75 75 60 61 65 84 87 86 86 86 88 94 83 88 74 69 68 67 69 80 81 84 82 85 85 84 85 86 87 93 91 90 96 95 100 102 75 72 69
79 80 80 78 74 69 58 59 63 81 86 86 86 85 85 84 68 74 86 88 89 89 84 86 86 85 85 87 85 86 84 84 88 93 93 89 96 94 97 100 77 73 69
77 78 79 73 71 67 56 57 67 84 83 83 79 72 75 74 59 60 79 83 85 87 82 68 68 67 66 66 70 85 85 87 88 91 96 94 95 95 95 97 99 74 70
75 79 75 72 63 68 54 55 62 83 79 84 79 73 61 65 56 56 73 77 78 81 81 81 84 82 73 77 65 78 87 85 87 88 94 92 92 93 88 96 99 99 99

GFSMA_sfc_temp_099.txt.gz
Temp
91 92 92 92 93 92 90 95 95 95 94 96 97 97 96 96 98 98 93 82 82 81 82 82 82 82 82 83 82 83 83 83 82 82 82 82 81 81 81 81 81 80 80
84 89 87 92 94 92 92 96 94 96 94 97 95 96 97 97 96 98 96 89 82 82 82 82 82 82 83 83 83 83 83 82 82 82 82 81 81 81 81 81 81 81 80
92 92 90 88 88 94 93 95 95 97 98 98 95 97 97 97 96 96 99 96 88 82 83 83 83 82 83 83 83 83 83 82 82 82 82 81 81 81 81 81 81 81 80
92 92 93 86 96 94 97 96 97 97 97 98 97 98 97 98 96 96 98 100 98 96 84 83 83 83 83 83 83 83 83 82 82 82 82 82 81 81 81 80 81 80 80
93 84 88 91 89 92 96 94 97 95 96 98 98 98 98 98 97 100 96 98 97 100 99 83 83 83 83 84 84 83 83 82 82 82 82 82 81 81 81 80 80 80 79
92 87 94 93 85 93 95 95 91 96 95 96 98 98 99 99 99 99 98 101 98 98 101 97 93 92 82 85 84 83 83 83 83 83 82 82 81 81 80 80 80 80 79
92 91 89 92 94 91 89 93 93 91 95 96 94 96 96 98 99 100 102 103 99 102 101 99 101 100 93 84 84 84 84 83 83 84 83 82 81 81 80 79 79 79 80
92 92 91 90 89 93 91 91 90 92 96 96 92 94 89 94 99 102 101 102 101 103 101 101 100 97 99 100 94 85 84 82 84 85 84 83 81 81 80 80 79 79 79
92 92 91 83 92 89 90 91 93 91 90 94 92 87 87 85 93 98 97 100 97 101 101 100 101 100 99 101 93 88 83 81 82 84 84 84 82 81 81 80 80 79 79
93 93 92 91 90 92 88 89 95 91 90 92 96 97 91 91 85 86 97 98 99 100 100 102 103 101 101 103 92 85 82 81 81 82 83 83 83 82 82 81 80 80 80
92 93 92 91 90 92 92 89 90 90 94 90 94 95 92 96 94 91 86 93 99 101 102 101 103 105 102 102 99 86 83 81 79 80 80 80 81 83 83 82 81 81 81
92 91 92 91 91 92 90 91 92 91 89 90 93 92 84 82 86 90 91 91 94 97 101 102 102 103 104 104 95 86 86 81 78 77 76 77 79 80 83 84 83 82 82
76 88 90 88 91 90 91 91 89 89 90 90 89 92 97 95 96 94 93 90 93 97 98 102 103 103 100 103 97 87 86 79 76 74 74 75 76 77 79 81 83 82 82
93 88 90 90 90 91 91 91 92 92 92 92 90 89 93 97 97 96 93 92 84 93 96 93 102 100 100 102 92 87 93 77 77 74 74 74 75 76 76 77 79 79 80
82 92 90 90 91 91 91 91 91 91 83 90 91 90 91 95 98 97 97 96 92 80 79 70 86 76 86 97 90 99 97 81 79 76 74 73 74 75 75 76 76 76 76
82 87 90 90 90 90 90 89 90 91 89 90 93 90 90 93 95 96 97 97 95 92 88 86 95 95 97 99 94 96 95 83 84 76 74 75 75 75 75 75 74 74 74
88 88 88 89 90 89 90 88 87 88 88 88 89 88 89 89 91 94 94 96 95 94 90 94 95 88 93 94 95 95 95 95 99 77 75 74 75 74 74 74 73 72 72
89 88 88 87 88 88 89 87 87 89 88 87 88 88 88 92 89 88 92 88 90 90 89 82 88 92 90 94 93 92 95 100 99 82 76 76 75 73 71 71 70 69 68
87 89 89 86 86 87 88 88 86 87 89 89 89 89 89 88 87 89 88 89 92 93 91 90 88 93 94 96 93 93 93 94 99 83 79 75 75 74 72 69 68 66 64
87 88 89 89 89 89 84 89 88 88 88 90 90 90 89 88 87 88 88 87 89 88 89 89 90 92 93 94 95 92 93 97 96 101 93 85 83 78 73 71 70 68 64
86 88 88 88 90 91 79 75 89 89 87 87 89 89 90 87 77 79 88 86 83 86 88 89 89 91 92 87 86 92 91 93 93 97 97 97 99 99 97 78 79 73 68
80 85 85 85 84 75 63 65 71 82 87 88 86 88 89 81 80 74 72 72 75 81 81 84 85 84 82 86 88 88 87 87 83 95 91 92 96 96 98 100 80 75 69
79 82 82 77 73 71 60 61 65 81 84 84 84 84 87 85 80 86 74 69 70 68 70 80 80 82 82 84 83 82 83 84 84 90 88 89 96 95 100 101 75 72 72
77 79 79 77 75 69 58 59 63 78 84 85 84 83 82 78 67 70 77 83 87 88 81 82 84 85 85 85 84 83 83 82 86 90 90 85 96 95 100 101 74 72 72
77 79 76 76 73 67 56 57 65 85 83 81 75 75 80 78 59 59 76 81 82 83 77 68 70 68 67 66 71 82 83 84 85 89 94 89 88 91 93 96 98 76 69
77 77 73 75 64 69 55 56 61 78 81 79 81 72 60 65 56 56 69 77 78 81 81 80 82 81 75 81 67 75 80 79 77 81 90 79 89 88 86 93 95 96 98

GFSMA_sfc_temp_102.txt.gz
Temp
84 84 75 76 73 77 79 84 82 84 86 89 89 88 89 89 89 86 81 81 81 82 82 82 82 82 82 83 82 82 82 82 82 82 82 82 81 81 80 80 80 80 80
80 79 73 81 80 79 86 82 75 78 84 88 87 90 88 89 88 85 83 80 81 82 82 83 83 83 83 83 83 83 83 82 82 82 81 81 80 80 80 80 80 80 80
78 75 78 83 86 87 88 87 86 87 86 90 87 89 90 89 90 88 86 83 82 82 82 83 83 83 83 83 83 83 82 82 82 81 81 81 81 81 80 80 80 80 80
81 78 83 83 88 86 86 84 84 86 87 86 85 87 87 88 89 90 90 88 85 88 82 82 82 82 83 83 83 83 82 82 81 81 81 81 81 81 80 80 80 79 80
81 84 83 86 87 84 78 82 84 84 86 85 89 88 88 86 87 93 90 90 90 87 86 81 82 82 83 84 84 83 82 82 82 82 82 81 81 81 80 80 80 80 79
89 84 86 87 84 84 77 86 84 85 85 84 90 92 88 89 88 87 89 93 90 90 89 84 81 82 81 84 84 83 83 83 82 82 82 82 81 80 80 79 79 80 79
90 86 84 87 76 79 86 87 85 83 84 87 84 84 85 89 89 89 90 91 90 91 91 90 87 86 82 82 84 84 84 84 83 83 83 82 81 80 80 79 79 79 79
88 88 83 82 77 81 86 86 86 83 85 86 80 79 77 81 87 92 90 92 91 91 92 92 89 89 86 84 82 85 84 83 84 84 84 83 82 81 80 80 79 79 79
89 85 83 78 80 76 78 84 86 83 80 84 86 81 74 73 79 85 88 88 89 88 89 91 91 90 89 87 83 84 82 81 82 83 83 83 82 81 81 80 79 79 79
86 88 86 81 81 74 74 81 88 84 82 80 84 88 85 82 77 77 83 86 88 91 90 88 91 91 89 88 87 84 82 81 81 82 82 82 82 82 82 82 80 80 80
86 87 87 87 84 79 78 77 80 83 84 80 80 83 82 82 83 79 77 80 84 87 88 87 91 89 91 88 86 82 82 81 79 79 79 80 80 81 82 83 82 81 81
84 88 86 88 86 75 77 83 86 86 84 82 82 80 70 67 65 70 73 78 81 85 88 89 89 90 88 85 88 83 84 81 78 77 77 78 79 80 81 82 83 82 81
72 76 86 84 84 83 82 84 83 84 84 82 82 82 70 68 72 71 80 69 76 81 81 76 73 72 72 73 74 85 83 79 77 76 75 76 78 78 79 79 81 82 82
72 79 83 84 86 86 87 86 85 84 84 83 83 82 82 82 82 84 81 70 71 69 67 69 72 72 71 71 74 78 84 79 76 77 76 76 76 77 77 77 78 79 79
73 72 71 84 85 83 86 83 84 83 76 75 79 83 82 83 84 85 84 82 77 65 61 66 66 71 71 71 73 87 88 80 79 76 75 76 75 75 76 76 75 75 75
70 71 73 80 85 85 85 86 84 82 80 78 83 82 81 83 83 84 83 82 82 77 68 67 68 72 72 74 75 87 88 81 81 78 75 77 76 75 75 75 74 73 73
72 71 75 83 82 85 86 82 83 83 81 80 82 82 81 83 82 82 82 82 80 80 77 75 77 73 72 73 87 88 87 86 86 76 76 77 76 75 75 74 73 72 71
82 82 84 81 82 83 83 82 82 84 82 81 83 83 83 87 82 82 81 80 81 81 79 76 80 81 81 84 84 84 89 95 87 85 76 75 75 73 73 72 71 70 69
84 86 84 80 80 81 81 80 81 81 81 82 83 82 83 81 81 81 80 80 81 82 79 78 77 80 81 83 81 82 84 86 91 86 74 74 72 73 72 70 69 67 65
79 80 82 80 80 83 82 81 81 80 81 84 84 85 84 84 81 81 81 80 81 79 79 77 78 79 79 81 81 79 80 81 82 92 87 82 78 76 73 71 69 68 64
76 78 79 81 72 71 68 69 72 77 79 82 83 82 84 77 76 74 81 79 78 76 76 77 77 79 78 79 77 79 78 80 81 80 82 83 86 86 86 81 74 72 69
75 76 76 77 71 67 63 64 67 77 80 80 80 81 82 76 77 72 72 72 74 76 75 74 74 75 75 75 79 79 77 77 75 81 80 81 84 85 86 87 82 75 71
73 73 72 70 65 63 60 61 65 75 80 79 79 79 80 75 69 71 73 68 69 68 68 74 75 76 76 77 78 76 76 75 76 80 79 79 84 84 84 91 75 74 74
71 72 71 70 68 63 58 59 63 73 78 79 78 77 76 67 62 64 70 77 79 80 78 76 75 77 78 79 77 78 76 77 79 81 81 74 83 80 83 84 76 72 70
70 72 74 70 67 61 56 57 64 74 78 76 71 66 71 65 59 59 71 72 75 77 71 67 66 66 66 65 68 75 76 74 75 77 81 74 78 81 82 81 83 74 69
75 74 72 70 65 62 56 56 58 72 71 72 69 65 60 60 57 56 64 67 70 71 68 70 74 75 74 77 70 72 76 72 72 74 78 74 75 76 75 79 81 83 83

GFSMA_sfc_temp_105.txt.gz
Temp
72 71 70 71 71 71 70 72 76 78 78 81 82 85 82 80 77 75 72 81 80 81 82 82 82 82 82 82 82 82 82 82 81 81 81 81 81 80 80 80 80 80 80
73 73 69 69 70 71 74 75 76 76 77 81 82 83 83 81 79 76 75 76 80 81 82 82 83 82 83 83 82 82 82 82 81 81 81 80 80 80 80 80 80 79 80
73 71 71 70 74 73 79 77 77 76 76 81 82 82 83 83 81 79 78 75 77 81 81 82 82 82 82 83 83 82 82 81 81 81 81 80 80 80 80 79 80 79 79
76 74 74 75 77 81 79 80 79 77 76 74 78 79 81 82 83 81 80 79 77 80 80 82 82 81 82 83 83 82 82 81 81 81 81 81 80 80 80 79 79 79 79
78 79 76 78 78 76 72 76 77 80 78 78 80 79 78 80 83 87 83 81 79 79 78 80 81 81 82 84 83 83 82 82 81 81 81 81 80 80 79 79 79 79 79
80 81 77 73 75 75 74 78 77 81 81 77 85 84 79 80 80 80 84 86 82 82 80 80 78 79 81 82 83 83 83 83 82 82 82 81 80 80 79 79 79 79 79
82 80 75 75 70 73 75 79 79 78 78 79 77 77 77 80 81 78 83 83 83 84 83 81 79 79 80 81 81 83 83 83 83 83 82 81 81 80 79 79 78 78 78
82 82 75 73 74 73 74 78 78 78 76 78 74 72 71 76 79 82 81 85 83 84 85 86 82 82 81 79 79 82 83 83 83 83 83 82 81 81 80 79 78 78 78
82 80 74 73 74 72 72 72 75 76 72 76 78 75 69 71 72 77 80 81 83 81 83 85 86 85 83 81 81 81 82 80 82 83 83 82 81 81 80 80 79 78 78
81 81 77 76 74 69 69 71 79 76 76 73 76 82 78 75 71 72 76 79 81 83 82 76 84 82 79 76 80 80 80 79 81 82 82 81 81 81 81 81 80 79 78
80 82 79 78 73 71 73 73 74 77 75 74 72 72 73 69 67 68 68 72 72 76 72 71 74 71 73 74 73 76 77 78 79 79 79 80 80 80 81 81 81 80 80
74 75 82 78 73 71 72 74 76 77 77 75 72 70 69 66 64 67 65 65 67 70 72 72 73 70 71 71 75 77 76 77 77 77 77 79 79 80 81 81 82 81 81
70 72 73 77 76 74 74 75 76 77 77 76 76 72 69 67 69 67 69 68 63 67 68 70 71 70 72 71 75 77 77 74 77 75 75 76 77 78 79 79 80 81 81
72 73 74 75 77 77 78 76 77 77 75 74 74 74 72 72 69 69 68 65 63 67 68 68 69 69 70 71 72 74 73 74 78 75 74 75 75 75 76 77 77 78 78
73 73 73 72 74 78 80 77 76 75 75 75 74 74 74 74 79 76 71 67 68 64 64 65 65 70 71 71 72 71 72 76 77 76 74 74 75 74 74 74 75 75 75
71 73 72 72 73 78 78 77 76 75 74 74 74 75 75 75 77 77 76 73 74 67 66 66 68 70 71 73 74 73 76 76 78 79 76 72 74 74 73 73 73 72 72
70 70 72 72 76 78 78 77 76 76 76 74 75 75 75 78 78 76 76 75 75 76 73 74 72 71 72 73 78 75 79 82 83 77 75 73 72 74 73 72 72 71 71
72 72 74 75 76 77 76 76 76 78 75 74 76 73 75 81 75 75 74 73 73 74 73 70 72 73 70 73 75 76 83 89 88 83 74 71 71 72 72 71 70 70 69
75 75 76 75 76 75 75 76 76 76 76 76 76 75 76 76 74 75 74 73 73 75 72 70 71 73 75 78 81 79 79 81 85 82 80 77 71 70 70 69 68 67 65
74 76 76 76 75 71 70 70 72 73 74 77 76 76 76 76 75 74 75 73 73 72 71 70 70 72 74 76 76 74 74 76 75 85 81 78 76 75 72 70 69 69 65
73 75 75 70 69 67 65 65 67 70 75 74 74 77 74 74 72 72 74 73 72 71 70 69 68 69 69 70 70 72 71 72 73 74 75 82 82 83 83 79 80 76 69
71 73 70 68 65 63 61 63 64 66 72 75 73 74 72 69 69 68 68 68 69 70 69 69 69 69 69 70 72 71 71 70 69 74 74 78 79 80 83 81 79 76 73
70 70 65 61 60 60 60 61 64 66 70 72 72 72 71 67 63 65 68 69 69 67 69 70 69 69 70 71 72 71 71 70 70 77 74 73 78 76 81 84 76 74 71
69 67 65 63 60 61 59 59 63 69 69 69 67 69 64 60 59 62 67 70 71 68 68 70 69 69 70 70 71 72 72 71 72 74 72 70 74 74 78 80 74 72 69
68 67 67 62 59 59 57 58 63 67 68 64 60 64 61 58 59 60 65 65 67 67 67 67 66 65 64 64 66 67 68 68 68 69 74 70 72 72 75 75 77 72 68
68 68 67 64 60 58 56 57 60 63 63 65 62 60 61 59 56 56 61 61 62 63 62 66 69 71 70 72 68 68 69 67 67 66 72 69 71 69 67 72 79 76 77

GFSMA_sfc_temp_108.txt.gz
Temp
71 70 68 68 70 70 70 70 71 74 75 77 78 77 77 76 73 72 71 81 80 81 82 82 82 82 82 82 82 82 82 82 81 81 81 81 80 80 80 79 79 79 80
71 69 69 69 70 71 71 71 71 72 75 76 78 79 79 76 75 73 72 74 80 80 81 82 83 82 82 82 82 82 82 81 81 81 81 80 80 80 80 80 79 79 79
71 71 69 70 70 72 72 72 73 75 76 77 78 79 78 78 77 76 75 73 75 81 81 82 82 82 82 83 83 82 81 81 81 81 80 80 80 80 80 79 80 80 79
72 70 70 71 72 71 74 72 72 76 75 73 75 77 77 78 78 77 77 76 75 78 79 82 81 81 82 83 83 82 82 81 81 81 81 81 80 80 80 79 79 79 79
76 75 72 72 72 72 70 73 72 76 76 75 77 76 74 76 78 83 78 78 76 77 77 79 80 81 83 84 83 83 82 82 81 81 81 81 80 80 79 79 79 78 77
79 75 73 72 72 74 73 77 76 76 77 75 81 81 77 77 76 75 78 81 78 79 78 78 77 77 81 82 82 82 83 82 82 82 81 81 80 80 79 79 78 78 78
77 75 74 72 71 72 72 75 77 77 77 75 74 74 74 75 76 72 78 79 79 81 79 79 77 77 78 81 81 82 83 83 83 82 82 81 81 80 79 79 78 78 78
78 76 74 73 73 72 72 73 74 75 75 74 71 70 67 68 71 75 73 80 80 81 82 83 80 81 76 75 78 81 81 81 82 83 82 81 81 80 79 79 78 78 78
78 75 74 74 72 70 70 70 73 74 72 74 74 72 65 67 68 74 76 73 75 73 75 75 75 77 75 74 76 77 78 77 79 81 82 82 80 80 80 79 78 78 78
76 77 75 75 72 68 70 72 74 73 73 72 73 76 70 70 68 69 70 72 75 74 71 72 72 74 75 75 79 78 77 76 78 79 80 81 80 80 80 80 79 78 78
77 78 75 75 72 71 72 73 74 73 74 72 70 68 69 67 68 66 66 66 70 72 71 71 71 71 75 77 77 75 77 76 76 76 78 79 80 81 81 81 80 79 79
73 74 78 75 74 73 73 72 74 76 74 73 71 68 67 66 67 67 64 64 65 69 70 70 71 71 72 73 80 78 77 76 75 74 75 77 78 79 81 81 81 81 80
70 72 74 73 72 73 71 73 74 74 74 73 73 70 66 67 66 67 67 66 64 66 69 69 70 70 73 71 72 77 77 74 73 72 73 74 75 77 78 79 79 80 81
70 73 73 74 75 75 75 75 73 74 73 72 73 71 71 68 68 69 67 66 63 64 67 69 68 69 70 70 73 76 73 72 72 72 72 73 74 74 75 76 76 77 78
73 72 74 73 74 75 75 75 73 74 73 72 71 72 72 72 73 72 69 67 68 64 65 68 67 69 69 70 71 71 71 74 73 72 72 72 71 72 73 74 73 73 74
72 72 72 72 74 74 75 74 73 74 74 72 72 72 72 72 73 73 72 69 71 67 65 67 69 68 71 73 73 72 75 74 74 72 72 72 71 72 72 72 72 72 72
70 71 71 72 73 74 75 74 73 74 74 73 73 72 73 73 73 74 73 72 71 70 67 71 70 71 72 73 76 74 75 76 79 75 72 73 71 70 70 71 70 70 70
69 69 70 72 73 75 74 74 74 75 74 73 74 73 73 77 72 72 71 71 71 71 70 67 70 70 70 73 74 74 80 84 82 79 72 72 71 70 69 68 68 67 67
72 71 72 73 74 74 73 73 73 73 73 74 73 72 73 73 72 72 72 71 71 73 70 68 69 70 72 74 74 79 78 76 82 78 76 74 72 72 70 68 67 66 63
71 71 72 73 70 68 68 69 70 71 73 74 74 74 73 73 72 72 73 71 71 70 69 68 67 68 70 72 72 70 71 72 72 80 76 75 73 73 71 69 69 69 65
71 71 69 68 66 65 65 64 67 68 71 74 74 74 70 70 69 68 69 70 71 68 68 67 66 67 67 68 68 70 70 70 71 71 72 78 78 78 78 74 75 74 67
70 70 67 65 63 63 62 63 65 66 68 71 72 72 68 68 68 67 67 67 68 70 68 67 67 67 67 68 70 70 69 68 68 72 71 74 75 74 76 76 71 69 67
69 65 60 59 60 61 61 62 65 67 68 70 69 69 68 67 63 64 66 68 67 66 66 67 67 67 67 69 70 69 68 68 68 73 71 69 73 72 75 81 70 68 67
66 62 60 59 62 61 59 60 66 69 68 64 65 63 60 59 58 62 66 66 67 66 65 68 65 66 66 67 66 68 67 68 69 71 71 67 71 71 73 75 70 68 65
65 63 62 60 61 58 57 59 65 67 63 59 60 61 60 59 59 59 64 64 64 65 66 65 64 63 62 62 64 66 66 66 65 67 71 68 69 68 69 71 74 70 65
66 64 61 60 60 58 57 57 60 62 61 63 59 60 60 59 56 56 62 60 61 61 60 63 66 67 66 67 65 64 65 64 64 64 67 64 66 65 64 68 72 73 76

GFSMA_sfc_temp_111.txt.gz
Temp
70 68 67 68 69 70 70 70 71 71 72 75 76 75 75 74 71 71 71 80 80 80 82 82 82 82 82 82 82 82 82 82 81 81 80 80 80 80 80 79 79 79 79
70 68 68 69 69 70 71 70 71 71 71 74 75 76 75 75 73 72 71 71 80 80 81 82 82 82 82 82 82 82 82 81 81 81 81 80 80 80 80 80 80 79 79
71 69 69 70 71 71 72 72 72 72 73 75 75 76 75 75 74 74 73 71 73 80 81 82 82 81 82 82 82 82 81 81 81 81 80 80 80 80 80 79 80 79 77
71 71 70 71 71 68 72 70 71 73 73 73 73 74 75 75 75 75 75 74 74 76 78 81 81 81 82 83 83 82 82 81 81 81 80 80 80 80 80 79 78 79 79
72 73 72 71 71 71 71 71 71 73 74 74 76 75 73 74 75 80 76 76 75 76 75 79 80 80 82 84 83 82 82 82 81 81 81 81 80 80 79 79 78 78 78
76 72 71 71 71 71 71 73 73 73 74 72 78 79 75 74 74 73 76 79 77 77 77 77 76 76 80 81 81 82 82 82 82 81 81 80 80 80 79 79 78 78 78
75 73 71 69 70 71 72 74 73 73 73 72 72 72 72 74 75 71 75 76 77 78 78 78 77 74 75 80 80 81 82 82 81 81 81 80 80 80 79 79 78 78 78
76 74 73 71 72 71 71 73 72 72 72 71 70 68 66 68 69 70 71 75 77 78 79 81 78 79 75 75 78 80 79 80 82 82 81 80 79 79 79 78 78 78 78
77 75 73 71 71 69 70 70 72 72 70 72 71 70 65 66 66 69 71 70 71 71 72 73 76 78 76 75 78 79 79 77 80 82 81 80 79 79 79 79 78 78 78
75 76 74 73 70 67 70 71 74 73 71 69 71 72 68 69 67 66 69 69 71 72 71 72 74 75 76 75 79 79 78 77 78 80 80 80 80 79 80 79 78 77 78
75 76 74 73 71 70 71 72 73 73 72 70 68 67 68 66 67 66 65 66 68 70 70 70 71 72 74 74 73 74 77 76 76 77 77 78 78 80 80 81 80 79 78
72 74 76 73 72 71 71 72 73 74 72 71 69 67 66 66 65 66 64 62 64 67 69 70 70 70 72 73 78 76 77 75 74 74 74 75 76 79 80 81 81 81 80
70 71 73 72 71 71 71 71 72 72 73 72 71 69 66 66 66 66 66 65 63 64 67 69 70 70 72 71 72 75 76 73 73 72 72 73 75 76 77 78 79 80 80
70 72 73 73 73 73 72 72 72 72 72 71 71 71 69 68 67 68 67 65 64 64 66 68 68 69 70 70 73 75 72 72 72 71 71 72 72 73 74 75 76 76 77
71 72 73 73 74 74 74 73 72 72 71 71 71 71 71 70 69 70 68 66 66 62 64 68 67 70 68 69 71 71 71 73 72 72 71 69 71 71 71 73 73 73 73
72 71 71 72 73 73 74 73 72 72 71 71 71 70 70 71 71 71 71 68 68 66 64 67 69 68 70 73 75 74 74 73 73 71 70 69 70 71 71 72 72 71 72
70 70 70 70 71 72 73 73 72 72 72 71 71 71 71 71 71 71 71 70 69 67 66 69 68 70 71 73 75 75 76 76 76 73 71 70 71 71 71 70 69 69 70
69 69 69 69 71 72 73 73 73 74 73 72 72 71 71 75 71 70 70 70 69 69 68 66 68 69 71 72 73 73 78 82 76 77 71 71 70 69 69 69 68 68 66
70 70 70 71 71 72 72 72 72 73 73 73 73 72 73 72 71 71 70 70 70 71 68 67 67 68 70 70 71 73 74 73 78 77 74 73 70 69 68 66 66 64 62
69 71 71 71 71 69 69 69 70 71 71 73 73 73 73 72 71 71 71 70 70 69 68 67 66 66 67 70 69 69 69 71 71 78 75 73 72 71 70 67 69 67 63
71 71 69 68 66 66 65 64 66 67 69 71 73 73 71 70 69 68 70 70 69 67 67 66 66 66 67 67 67 69 68 69 70 70 70 72 72 73 74 73 73 69 66
70 70 67 65 64 64 63 63 65 65 68 71 71 70 69 69 68 67 67 66 67 67 67 66 66 66 66 67 68 68 68 66 65 72 69 71 72 72 74 74 68 67 65
69 64 62 61 61 61 61 62 64 67 68 69 71 69 67 66 63 65 66 66 65 65 66 68 66 66 66 68 66 65 65 66 66 69 69 68 70 70 73 75 67 66 65
64 59 58 60 62 62 60 62 66 68 66 66 65 65 62 61 59 63 65 66 64 63 63 64 62 62 63 63 63 65 65 65 67 68 66 65 68 68 71 71 66 67 64
61 58 59 58 59 60 57 59 64 62 61 60 60 61 62 60 59 60 64 63 63 62 65 62 62 61 61 62 63 65 63 63 63 65 64 60 65 64 66 67 70 66 64
62 61 59 59 59 58 56 57 61 63 60 60 60 60 60 58 56 56 60 60 60 59 60 62 62 63 63 64 64 58 58 57 60 57 60 57 60 60 59 64 65 69 69

GFSMA_sfc_temp_114.txt.gz
Temp
71 70 70 71 72 73 73 74 74 75 75 77 78 78 77 77 76 77 76 78 79 80 81 82 82 82 82 82 82 82 82 82 81 81 81 81 81 80 80 80 79 80 80
71 70 71 72 72 72 74 74 74 74 75 77 77 78 78 78 76 75 77 76 79 80 81 82 82 82 82 82 82 82 82 81 81 81 81 80 80 80 80 80 80 80 80
72 71 70 72 73 72 75 75 75 75 77 79 78 78 78 78 78 77 76 76 78 80 81 82 82 81 82 83 83 82 82 81 81 81 81 81 80 80 80 79 80 80 80
73 72 72 72 73 72 75 74 74 76 77 77 77 78 78 78 78 77 77 78 78 80 79 80 81 81 82 83 83 82 82 82 81 81 81 81 81 80 80 79 79 79 79
74 73 74 74 74 74 74 76 75 76 77 77 79 78 77 77 78 82 79 79 80 80 80 79 79 80 82 83 83 82 82 82 81 81 81 81 80 80 80 79 79 79 79
76 74 74 74 74 74 75 76 76 76 76 76 81 80 77 77 77 77 79 82 81 81 82 79 80 81 80 82 82 82 82 82 82 81 81 80 80 80 80 79 78 79 78
76 74 74 74 74 74 74 77 76 76 76 75 76 76 76 76 76 75 78 78 80 83 82 82 81 79 81 79 81 81 83 82 82 81 81 80 80 79 79 79 78 78 78
76 75 74 74 75 74 75 76 76 75 75 74 74 72 70 73 73 74 74 78 79 80 82 83 82 81 80 80 81 81 81 80 82 82 81 80 79 79 79 78 78 78 78
76 76 75 74 74 72 74 75 76 75 74 74 74 74 69 71 71 74 75 74 75 76 78 78 80 81 79 78 79 79 79 77 79 80 81 79 78 79 79 79 78 78 78
76 76 76 74 73 71 74 75 76 76 75 75 75 75 72 73 72 72 75 75 76 78 76 76 78 78 79 79 78 78 76 77 77 79 80 80 79 79 79 80 79 78 78
77 78 75 75 73 73 74 76 76 75 75 74 72 71 72 71 71 71 72 72 75 77 76 75 76 75 78 78 77 75 76 76 75 76 77 78 79 79 80 80 80 79 79
74 76 77 75 75 75 75 75 76 76 75 73 72 71 72 71 71 70 70 68 70 72 73 74 75 76 75 76 80 77 76 75 73 74 74 75 76 77 79 80 81 81 80
72 73 75 74 74 75 74 74 75 76 76 75 74 73 71 71 70 71 71 69 68 70 72 75 76 75 76 77 78 76 76 73 73 72 72 72 73 75 76 77 79 80 81
72 74 74 75 75 75 74 74 75 76 75 75 75 74 74 72 72 72 72 72 71 70 71 75 75 75 76 77 77 75 78 72 72 71 70 71 72 73 74 75 76 77 77
73 74 75 75 75 76 76 75 75 75 75 74 75 75 75 74 74 75 72 72 72 70 70 75 75 77 76 77 78 80 79 73 71 70 69 70 71 72 72 73 72 72 73
72 73 73 74 74 75 75 75 75 76 74 75 75 74 74 75 76 75 75 72 74 72 70 72 77 75 77 81 81 81 81 75 73 71 70 70 70 70 71 71 71 71 71
73 73 72 73 73 74 75 74 74 75 74 74 75 74 75 75 76 76 76 75 74 73 72 75 75 77 77 78 81 81 83 83 83 71 70 70 69 69 69 70 69 69 68
72 72 73 72 72 72 75 74 74 75 74 74 75 74 75 77 74 75 75 74 75 74 74 72 74 75 76 78 78 79 81 85 82 75 70 69 68 68 68 67 66 65 63
72 72 71 71 72 74 75 75 74 74 75 75 76 74 75 75 74 74 74 75 75 75 74 73 74 74 76 77 77 78 79 79 83 76 74 72 69 68 67 65 65 63 60
71 72 72 73 74 73 73 73 72 72 73 74 75 75 76 75 74 74 74 74 74 73 72 72 72 72 73 75 75 74 75 77 77 82 78 74 71 70 70 66 66 65 62
71 70 71 71 70 70 69 68 70 71 71 73 74 75 74 71 69 69 73 73 73 72 71 72 71 71 73 73 72 73 72 74 76 77 77 79 79 80 79 74 73 67 64
70 70 69 68 68 67 63 64 66 68 70 71 73 73 70 69 69 67 66 66 68 71 71 70 69 70 71 71 73 71 71 70 70 77 74 78 79 79 78 77 66 65 64
69 68 66 64 64 64 61 62 65 68 70 70 71 69 68 67 65 68 66 65 65 64 66 71 70 70 69 70 68 69 70 70 71 71 72 75 77 76 78 76 64 63 62
67 64 61 61 63 64 59 61 65 70 68 65 65 65 63 62 62 63 70 69 67 67 67 70 67 66 65 65 67 70 69 70 72 68 64 69 73 74 76 76 63 63 61
63 61 62 61 61 60 57 59 65 64 62 61 61 64 62 61 59 60 67 67 67 66 64 61 61 61 60 60 61 71 69 70 70 67 63 61 67 69 73 73 72 62 59
62 62 61 60 59 59 56 56 63 65 62 63 62 61 59 58 57 57 64 65 65 64 67 66 65 64 63 63 61 62 64 65 65 65 62 62 64 64 67 72 68 67 67

GFSMA_sfc_temp_117.txt.gz
Temp
84 84 83 86 86 87 87 88 89 89 87 90 90 89 90 88 89 92 91 79 80 80 81 82 82 82 82 82 82 82 82 82 82 82 82 82 81 81 80 80 80 80 80
84 86 84 86 86 87 89 89 88 88 89 92 89 89 89 89 87 87 91 89 79 80 81 82 82 82 83 83 83 83 83 82 82 82 82 81 81 81 81 81 81 80 80
84 82 84 85 86 85 85 87 88 89 93 94 89 90 90 88 89 88 91 93 92 81 81 82 82 82 82 83 83 83 82 82 82 82 81 81 81 81 81 81 81 80 80
83 82 85 86 86 84 88 88 90 91 92 92 90 91 90 90 90 90 92 92 92 95 86 81 81 81 82 83 83 83 82 82 82 82 81 81 81 81 81 81 81 80 80
83 84 86 87 85 87 88 91 89 90 90 91 92 91 91 92 91 95 91 91 92 91 93 85 80 80 82 83 83 83 83 82 82 82 81 81 81 81 81 80 80 80 79
84 84 86 85 87 89 90 90 87 88 90 91 94 93 93 93 93 93 93 95 93 91 93 90 92 92 80 81 82 83 83 83 82 82 81 81 81 81 81 80 80 79 79
84 84 87 86 87 87 85 87 88 86 89 88 89 89 90 91 91 90 92 94 94 95 94 94 93 94 94 81 80 82 83 83 83 82 81 80 80 80 80 80 79 79 79
84 85 84 86 85 88 86 86 86 89 88 87 87 86 84 88 90 93 91 91 92 94 95 94 92 90 90 92 87 81 82 80 80 81 81 80 79 79 80 80 79 79 79
85 84 84 85 85 85 88 85 87 85 88 86 83 87 84 85 87 91 89 91 88 91 93 91 91 90 89 90 87 86 80 78 79 80 79 80 79 79 80 80 80 79 79
84 85 84 84 83 85 84 86 88 87 86 86 87 88 85 85 86 86 90 91 90 92 91 93 92 91 89 91 85 80 76 77 77 78 78 78 79 78 80 80 80 79 79
85 86 84 83 82 85 84 84 85 85 88 88 87 86 84 86 84 85 85 89 91 92 92 91 92 91 90 88 91 85 77 76 76 76 76 77 78 79 80 81 81 80 80
86 84 85 83 83 84 83 86 85 84 85 85 87 86 87 86 86 85 84 85 84 90 90 91 91 91 92 91 88 78 78 76 75 74 74 75 76 77 79 81 82 82 81
81 82 82 82 84 83 84 83 83 84 85 86 84 88 86 87 87 86 86 85 84 88 89 93 91 91 91 92 91 79 79 75 73 72 72 73 74 76 77 79 80 81 82
84 84 84 83 84 84 84 83 86 87 84 86 83 84 87 87 87 87 87 85 84 86 88 85 93 93 91 91 86 77 91 74 72 71 71 71 72 74 75 76 77 77 77
84 82 83 83 84 84 84 83 86 84 84 84 84 83 86 88 87 88 86 86 84 81 84 89 89 89 91 92 85 91 91 74 73 72 71 70 70 72 72 73 73 73 73
81 81 81 82 83 83 84 82 82 84 83 85 86 82 83 87 87 87 87 86 85 84 81 88 90 88 88 92 89 90 90 79 74 72 71 70 70 71 71 71 70 70 70
80 79 81 82 82 82 83 82 81 83 82 83 84 82 82 84 86 87 86 86 85 84 82 87 87 88 85 86 89 90 91 91 92 72 70 70 69 69 69 69 68 67 67
81 81 81 80 81 81 82 82 82 84 82 82 83 82 83 86 82 81 85 83 83 83 82 79 84 86 84 86 85 85 89 93 90 76 71 69 68 68 66 66 65 64 63
80 81 80 79 80 81 81 82 82 82 83 83 83 83 82 83 80 84 80 79 83 85 80 80 82 84 84 85 84 85 84 85 91 78 74 71 69 68 66 65 64 62 59
79 79 80 80 81 82 82 81 80 80 80 81 80 83 83 82 81 82 81 80 83 78 79 78 80 83 84 84 84 83 84 87 86 91 81 77 74 70 68 65 65 63 60
79 79 79 78 79 79 78 77 79 80 80 80 81 80 81 72 69 69 74 79 78 78 77 77 76 80 78 82 78 84 82 84 85 84 88 90 88 86 81 72 71 64 62
74 77 77 70 70 73 64 65 67 77 78 79 79 81 76 72 71 67 66 67 70 76 76 75 76 74 77 80 83 81 81 81 81 82 79 84 87 82 80 75 63 62 61
70 73 70 68 68 67 62 62 65 76 77 76 76 79 75 72 70 71 67 66 66 65 67 77 77 78 76 77 75 76 78 79 80 78 80 77 85 81 81 74 62 61 60
69 68 66 65 64 62 59 60 64 74 76 73 69 71 71 65 63 67 70 69 69 72 74 81 76 73 72 73 75 79 77 77 76 77 74 80 81 82 80 73 61 60 59
68 64 63 64 64 63 57 59 66 70 69 65 64 65 68 66 60 60 68 68 69 70 63 61 61 61 60 60 65 81 81 80 79 76 72 74 76 77 81 78 75 59 58
64 62 62 65 62 65 56 57 67 77 73 73 70 68 59 64 57 58 73 74 72 72 74 73 73 69 68 67 64 70 77 78 78 75 66 70 75 74 76 76 70 73 74

GFSMA_sfc_temp_120.txt.gz
Temp
90 93 91 95 95 97 97 96 97 96 95 97 97 96 97 95 96 98 97 81 80 80 82 82 83 83 83 83 83 83 83 83 83 82 83 82 82 82 81 82 81 81 80
91 93 92 94 95 97 98 98 95 96 98 98 95 96 96 96 94 95 98 91 81 81 82 82 83 83 83 83 83 83 83 83 82 83 82 82 82 81 81 82 82 82 81
89 89 93 94 95 95 92 94 95 96 98 99 95 96 97 95 96 94 98 100 91 80 82 82 82 82 83 83 83 83 83 82 82 82 82 82 82 82 80 81 82 82 81
90 89 94 95 95 94 97 97 98 97 98 97 96 98 97 98 95 95 97 100 100 103 85 83 82 82 82 83 83 84 83 83 82 82 82 82 81 82 81 81 82 81 81
90 93 95 95 93 97 97 99 97 97 95 97 98 98 98 99 97 101 96 96 98 99 102 84 82 81 83 84 84 84 83 83 82 82 82 82 81 81 81 81 81 81 80
90 91 94 93 94 97 97 97 94 97 98 99 103 98 100 100 100 101 100 101 100 98 101 98 98 98 81 83 83 83 84 84 83 82 82 81 80 80 81 81 81 81 80
90 90 95 93 95 95 92 94 94 92 96 96 95 96 96 97 97 98 101 102 101 101 102 102 99 101 98 82 82 82 84 84 82 82 81 80 80 79 80 80 80 80 80
90 91 90 93 91 96 92 92 91 96 97 97 95 95 90 93 98 100 100 100 99 102 102 101 99 97 96 99 90 82 82 81 81 82 81 80 80 79 79 79 80 80 80
91 90 90 92 91 91 95 91 92 90 95 95 91 92 90 90 94 98 96 99 97 100 100 100 98 98 97 97 91 89 80 78 80 81 81 80 79 79 79 79 81 80 80
91 91 90 90 89 93 90 93 95 91 89 93 96 98 91 90 91 91 97 99 98 99 100 99 102 101 97 99 89 84 79 78 78 79 80 80 79 79 79 80 81 81 80
91 92 90 89 89 92 90 89 90 89 95 92 94 95 92 95 93 91 90 96 99 100 101 99 101 100 98 96 98 86 79 77 77 77 77 78 78 79 80 81 81 82 81
92 90 91 89 89 90 89 91 90 89 89 90 93 93 93 92 93 92 91 91 92 97 99 101 99 100 101 100 94 80 80 78 76 75 75 75 77 79 80 82 82 83 83
91 90 88 87 90 88 89 89 88 89 89 90 88 93 95 94 94 93 91 93 90 96 97 100 100 100 100 100 97 81 82 77 74 72 72 74 75 77 78 80 81 82 82
89 89 89 89 89 89 89 89 91 91 91 91 88 88 93 95 95 94 92 90 89 93 95 90 101 100 99 98 87 79 90 75 73 72 72 72 72 74 75 76 77 77 77
86 87 88 88 89 89 89 88 91 89 89 89 90 89 90 95 95 95 94 93 89 85 89 94 94 95 97 98 87 96 95 73 74 73 71 71 71 72 72 72 72 72 73
86 87 87 88 88 88 88 86 90 90 88 91 92 89 87 93 94 94 94 94 93 89 86 95 96 95 93 95 92 95 95 82 74 73 72 71 70 71 71 70 69 69 70
87 86 86 87 87 87 88 86 87 88 87 87 88 87 86 88 91 94 94 93 92 92 86 92 95 96 89 90 91 93 95 94 88 70 71 69 68 68 68 67 66 66 66
86 86 87 86 86 87 88 86 85 89 87 86 87 87 87 91 87 86 90 88 89 89 88 82 88 90 89 90 89 88 93 98 95 73 70 68 66 66 65 64 63 62 62
86 88 87 85 86 86 86 86 84 86 86 88 88 87 87 87 85 87 85 85 86 88 84 83 85 88 91 92 90 90 89 90 96 76 70 67 66 66 64 63 62 60 59
86 86 86 86 86 87 87 86 85 85 86 88 87 87 86 85 85 85 85 83 76 77 80 83 82 82 87 91 89 89 90 93 92 97 78 79 74 68 65 63 63 62 59
86 86 85 85 85 86 88 84 85 85 85 85 86 85 86 81 70 73 80 79 76 83 86 86 83 80 76 82 79 82 88 90 83 90 83 77 77 87 80 71 70 62 60
84 84 84 84 82 85 64 66 69 82 83 83 83 84 82 72 72 68 68 68 72 78 78 75 79 80 79 77 83 87 87 87 79 81 84 88 88 84 81 74 61 61 60
77 77 81 80 76 78 62 62 65 76 83 83 82 83 80 86 77 81 67 66 67 67 67 70 75 77 77 81 79 80 81 81 80 85 82 79 89 83 81 72 61 60 59
73 73 74 74 74 72 59 60 63 72 78 82 79 79 78 78 69 70 73 74 76 68 70 80 80 75 77 75 78 83 80 80 82 84 79 75 86 83 80 73 61 60 59
70 68 65 64 63 63 58 59 65 74 74 70 68 73 70 69 60 61 73 77 73 70 62 61 61 61 61 61 67 84 85 83 73 79 78 80 84 80 84 81 71 61 59
66 63 61 61 60 63 58 57 64 77 75 79 76 72 61 69 59 59 77 77 75 77 78 74 73 69 70 70 67 75 80 81 83 82 72 75 81 75 74 81 79 80 80